[[{"header":{"parameterUnit":"m.s-1","parameterCategory":1,"la1":30.6,"la2":29.2853,"lo1":-89.7004,"lo2":-87.6739,"dy":0.0162,"dx":0.0183,"nx":112,"ny":82,"refTime":"2023-08-25T00:00:00:Z","depth":0,"parameterNumber":2,"parameterNumberName":"U-component_of_WINDS"},"data":[0.0,0.0,0.0,0.0,0.0,0.0,0.0,0.0,0.0,0.0,0.0,0.0,0.0,0.0,0.0,0.0,0.0,0.0,0.0,0.0,0.0,0.0,0.0,0.0,0.0,0.0,0.0,0.0,0.0,0.0,0.0,0.0,0.0,0.0,0.0,0.0,0.0,0.0,0.0,0.0,0.0,0.0,0.0,0.0,0.0,0.0,0.0,0.0,0.0,0.0,0.0,0.0,0.0,0.0,0.0,0.0,0.0,0.0,0.0,0.0,0.0,0.0,0.0,0.0,0.0,0.0,0.0,0.0,0.0,0.0,0.0,0.0,0.0,0.0,0.0,0.0,0.0,0.0,0.0,0.0,0.0,0.0,0.0,0.0,0.0,0.0,0.0,0.0,0.0,0.0,1.3692,1.1889,0.8956,0.7893,0.9902,1.2082,1.6846,2.485,0.0,0.0,0.0,0.0,0.0,0.0,0.0,0.0,0.0,0.0,0.0,0.0,0.0,0.0,0.0,0.0,0.0,0.0,0.0,0.0,0.0,0.0,0.0,0.0,0.0,0.0,0.0,0.0,0.0,0.0,0.0,0.0,0.0,0.0,0.0,0.0,0.0,0.0,0.0,0.0,0.0,0.0,0.0,0.0,0.0,0.0,0.0,0.0,0.0,0.0,0.0,0.0,0.0,0.0,0.0,0.0,0.0,0.0,0.0,0.0,0.0,0.0,0.0,0.0,0.0,0.0,0.0,0.0,0.0,0.0,0.0,0.0,0.0,0.0,0.0,0.0,0.0,0.0,0.0,0.0,0.0,0.0,0.0,0.0,0.0,0.0,0.0,0.0,0.0,0.0,0.0,0.0,0.0,0.0,0.0,0.0,0.0,0.0,0.0,0.0,0.0,0.0,0.0,0.0,1.5594,0.9971,0.8013,0.7245,0.7624,0.9785,1.4684,2.3169,0.0,0.0,0.0,0.0,0.0,0.0,0.0,0.0,0.0,0.0,0.0,0.0,0.0,0.0,0.0,0.0,0.0,0.0,0.0,0.0,0.0,0.0,0.0,0.0,0.0,0.0,0.0,0.0,0.0,0.0,0.0,0.0,0.0,0.0,0.0,0.0,0.0,0.0,0.0,0.0,0.0,0.0,0.0,0.0,0.0,0.0,0.0,0.0,0.0,0.0,0.0,0.0,0.0,0.0,0.0,0.0,0.0,0.0,0.0,0.0,0.0,0.0,0.0,0.0,0.0,0.0,0.0,0.0,0.0,0.0,0.0,0.0,0.0,0.0,0.0,0.0,0.0,0.0,0.0,0.0,0.0,0.0,0.0,0.0,0.0,0.0,0.0,0.0,0.0,0.0,0.0,0.0,0.0,0.0,0.0,0.0,0.0,0.0,0.0,0.0,0.0,0.0,0.0,1.7434,1.4767,0.9474,0.8364,0.8109,0.812,0.9244,1.3503,2.1607,2.6093,0.0,0.0,0.0,0.0,0.0,0.0,0.0,0.0,0.0,0.0,0.0,0.0,0.0,0.0,0.0,0.0,0.0,0.0,0.0,0.0,0.0,0.0,0.0,0.0,0.0,0.0,0.0,0.0,0.0,0.0,0.0,0.0,0.0,0.0,0.0,0.0,0.0,0.0,0.0,0.0,0.0,0.0,0.0,0.0,0.0,0.0,0.0,0.0,0.0,0.0,0.0,0.0,0.0,0.0,0.0,0.0,0.0,0.0,0.0,0.0,0.0,0.0,0.0,0.0,0.0,0.0,0.0,0.0,0.0,0.0,0.0,0.0,0.0,0.0,0.0,0.0,0.0,0.0,0.0,0.0,0.0,0.0,0.0,0.0,0.0,0.0,0.0,0.0,0.0,0.0,0.0,0.0,0.0,0.0,0.0,0.0,0.0,0.0,0.0,0.0,0.0,0.0,1.5546,1.3304,0.9657,0.9061,0.8803,0.854,0.8744,1.211,1.959,2.3296,0.0,0.0,0.0,0.0,0.0,0.0,0.0,0.0,0.0,0.0,0.0,0.0,0.0,0.0,0.0,0.0,0.0,0.0,0.0,0.0,0.0,0.0,0.0,0.0,0.0,0.0,0.0,0.0,0.0,0.0,0.0,0.0,0.0,0.0,0.0,0.0,0.0,0.0,0.0,0.0,0.0,0.0,0.0,0.0,0.0,0.0,0.0,0.0,0.0,0.0,0.0,0.0,0.0,0.0,0.0,0.0,0.0,0.0,0.0,0.0,0.0,0.0,0.0,0.0,0.0,0.0,0.0,0.0,0.0,0.0,0.0,0.0,0.0,0.0,0.0,0.0,0.0,0.0,0.0,0.0,0.0,0.0,0.0,0.0,0.0,0.0,0.0,0.0,0.0,0.0,0.0,0.0,0.0,0.0,0.0,0.0,0.0,0.0,0.0,0.0,0.0,0.0,1.6067,1.1969,1.0611,0.9492,0.8452,0.7316,0.7248,1.0052,1.6509,2.1073,0.0,0.0,0.0,0.0,0.0,0.0,0.0,0.0,0.0,0.0,0.0,0.0,0.0,0.0,0.0,0.0,0.0,0.0,0.0,0.0,0.0,0.0,0.0,0.0,0.0,0.0,0.0,0.0,0.0,0.0,0.0,0.0,0.0,0.0,0.0,0.0,0.0,0.0,0.0,0.0,0.0,0.0,0.0,0.0,0.0,0.0,0.0,0.0,0.0,0.0,0.0,0.0,0.0,0.0,0.0,0.0,0.0,0.0,0.0,0.0,0.0,0.0,0.0,0.0,0.0,0.0,0.0,0.0,0.0,0.0,0.0,0.0,0.0,0.0,0.0,0.0,0.0,0.0,0.0,0.0,0.0,0.0,0.0,0.0,0.0,0.0,0.0,0.0,0.0,0.0,0.0,0.0,0.0,0.0,0.0,0.0,0.0,0.0,0.0,0.0,0.0,0.0,1.7581,1.4102,0.0,1.0178,0.9139,0.7228,0.776,1.0639,1.622,0.0,0.0,0.0,0.0,0.0,0.0,0.0,0.0,0.0,0.0,0.0,0.0,0.0,0.0,0.0,0.0,0.0,0.0,0.0,0.0,0.0,0.0,0.0,0.0,0.0,0.0,0.0,0.0,0.0,0.0,0.0,0.0,0.0,0.0,0.0,0.0,0.0,0.0,0.0,0.0,0.0,0.0,0.0,0.0,0.0,0.0,0.0,0.0,0.0,0.0,0.0,0.0,0.0,0.0,0.0,0.0,0.0,0.0,0.0,0.0,0.0,0.0,0.0,0.0,0.0,0.0,0.0,0.0,0.0,0.0,0.0,0.0,0.0,0.0,0.0,0.0,0.0,0.0,0.0,0.0,0.0,0.0,0.0,0.0,0.0,0.0,0.0,0.0,0.0,0.0,0.0,0.0,0.0,0.0,0.0,0.0,0.0,0.0,0.0,0.0,0.0,0.0,2.0878,1.8101,1.4781,0.0,1.0611,0.9657,0.7312,0.7841,1.0494,1.5393,0.0,0.0,0.0,0.0,0.0,0.0,0.0,0.0,0.0,0.0,0.0,0.0,0.0,0.0,0.0,0.0,0.0,0.0,0.0,0.0,0.0,0.0,0.0,0.0,0.0,0.0,0.0,0.0,0.0,0.0,0.0,0.0,0.0,0.0,0.0,0.0,0.0,0.0,0.0,0.0,0.0,0.0,0.0,0.0,0.0,0.0,0.0,0.0,0.0,0.0,0.0,0.0,0.0,0.0,0.0,0.0,0.0,0.0,0.0,0.0,0.0,0.0,0.0,0.0,0.0,0.0,0.0,0.0,0.0,0.0,0.0,0.0,0.0,0.0,0.0,0.0,0.0,0.0,0.0,0.0,0.0,0.0,0.0,0.0,0.0,0.0,0.0,0.0,0.0,0.0,0.0,0.0,0.0,0.0,0.0,0.0,0.0,0.0,0.0,0.0,0.0,0.0,2.145,1.7111,1.3215,1.0869,1.0611,0.9657,0.7312,0.7139,0.9009,0.0,0.0,0.0,0.0,0.0,0.0,0.0,0.0,0.0,0.0,0.0,0.0,0.0,0.0,0.0,0.0,0.0,0.0,0.0,0.0,0.0,0.0,0.0,0.0,0.0,0.0,0.0,0.0,0.0,0.0,0.0,0.0,0.0,0.0,0.0,0.0,0.0,0.0,0.0,0.0,0.0,0.0,0.0,0.0,0.0,0.0,0.0,0.0,0.0,0.0,0.0,0.0,0.0,0.0,0.0,0.0,0.0,0.0,0.0,0.0,0.0,0.0,0.0,0.0,0.0,0.0,0.0,0.0,0.0,0.0,0.0,0.0,0.0,0.0,0.0,0.0,0.0,0.0,0.0,0.0,0.0,0.0,0.0,0.0,0.0,0.0,0.0,0.0,0.0,0.0,0.0,0.0,0.0,0.0,0.0,0.0,0.0,0.0,0.0,0.0,0.0,0.0,0.0,1.9697,1.5636,1.2248,1.0783,0.9923,0.8798,0.7228,0.7139,0.9009,1.3618,0.0,0.0,0.0,0.0,0.0,0.0,0.0,0.0,0.0,0.0,0.0,0.0,0.0,0.0,0.0,0.0,0.0,0.0,0.0,0.0,0.0,0.0,0.0,0.0,0.0,0.0,0.0,0.0,0.0,0.0,0.0,0.0,0.0,0.0,0.0,0.0,0.0,0.0,0.0,0.0,0.0,0.0,0.0,0.0,0.0,0.0,0.0,0.0,0.0,0.0,0.0,0.0,0.0,0.0,0.0,0.0,0.0,0.0,0.0,0.0,0.0,0.0,0.0,0.0,0.0,0.0,0.0,0.0,0.0,0.0,0.0,0.0,0.0,0.0,0.0,0.0,0.0,0.0,0.0,0.0,0.0,0.0,0.0,0.0,0.0,0.0,0.0,0.0,0.0,0.0,0.0,0.0,0.0,0.0,0.0,0.0,0.0,0.0,0.0,0.0,0.0,0.0,1.8873,1.5007,1.1895,1.0697,0.9579,0.8452,0.7228,0.7139,0.8674,1.2283,0.0,0.0,0.0,0.0,0.0,0.0,0.0,0.0,0.0,0.0,0.0,0.0,0.0,0.0,0.0,0.0,0.0,0.0,0.0,0.0,0.0,0.0,0.0,0.0,0.0,0.0,0.0,0.0,0.0,0.0,0.0,0.0,0.0,0.0,0.0,0.0,0.0,0.0,0.0,0.0,0.0,0.0,0.0,0.0,0.0,0.0,0.0,0.0,0.0,0.0,0.0,0.0,0.0,0.0,0.0,0.0,0.0,0.0,0.0,0.0,0.0,0.0,0.0,0.0,0.0,0.0,0.0,0.0,0.0,0.0,0.0,0.0,0.0,0.0,0.0,0.0,0.0,0.0,0.0,0.0,0.0,0.0,0.0,0.0,0.0,0.0,0.0,0.0,0.0,0.0,0.0,0.0,0.0,0.0,0.0,0.0,0.0,0.0,0.0,0.0,0.0,0.0,1.8549,1.467,1.1552,1.0524,0.9405,0.8281,0.7228,0.7139,0.8078,1.0358,0.0,0.0,0.0,0.0,0.0,0.0,0.0,0.0,0.0,0.0,0.0,0.0,0.0,0.0,0.0,0.0,0.0,0.0,0.0,0.0,0.0,0.0,0.0,0.0,0.0,0.0,0.0,0.0,0.0,0.0,0.0,0.0,0.0,0.0,0.0,0.0,0.0,0.0,0.0,0.0,0.0,0.0,0.0,0.0,0.0,0.0,0.0,0.0,0.0,0.0,0.0,0.0,0.0,0.0,0.0,0.0,0.0,0.0,0.0,0.0,-3.7657,0.0,0.0,0.0,0.0,0.0,0.0,0.0,0.0,0.0,0.0,0.0,0.0,0.0,0.0,0.0,0.0,0.0,0.0,0.0,0.0,0.0,0.0,0.0,0.0,0.0,0.0,0.0,0.0,0.0,0.0,0.0,0.0,0.0,0.0,0.0,0.0,0.0,0.0,0.0,0.0,0.0,1.6377,1.2421,0.9492,0.9323,0.8189,0.7404,0.7139,0.7139,0.8078,1.0358,1.352,0.0,0.0,0.0,0.0,0.0,0.0,0.0,0.0,0.0,0.0,0.0,0.0,0.0,0.0,0.0,0.0,0.0,0.0,0.0,0.0,0.0,0.0,0.0,0.0,0.0,0.0,0.0,0.0,0.0,0.0,0.0,0.0,0.0,0.0,0.0,0.0,0.0,0.0,0.0,0.0,0.0,0.0,0.0,0.0,0.0,0.0,0.0,0.0,0.0,0.0,0.0,0.0,0.0,0.0,0.0,0.0,0.0,0.0,0.0,0.0,-4.0222,0.0,0.0,0.0,0.0,0.0,0.0,0.0,0.0,0.0,0.0,0.0,0.0,0.0,0.0,0.0,0.0,0.0,0.0,0.0,0.0,0.0,0.0,0.0,0.0,0.0,0.0,0.0,0.0,0.0,0.0,0.0,0.0,0.0,0.0,0.0,0.0,0.0,0.0,0.0,0.0,1.5658,1.1662,0.889,0.889,0.7841,0.7139,0.7139,0.7139,0.7566,0.8757,1.2994,0.0,0.0,0.0,0.0,0.0,0.0,0.0,0.0,0.0,0.0,0.0,0.0,0.0,0.0,0.0,0.0,0.0,0.0,0.0,0.0,0.0,0.0,0.0,0.0,0.0,0.0,0.0,0.0,0.0,0.0,0.0,0.0,0.0,0.0,0.0,0.0,0.0,0.0,0.0,0.0,0.0,0.0,0.0,0.0,0.0,0.0,0.0,0.0,0.0,0.0,0.0,0.0,0.0,-4.1006,-4.1191,-4.1191,-4.1049,-4.0889,-4.0766,-3.9988,-3.997,-4.0158,0.0,0.0,0.0,0.0,0.0,0.0,0.0,0.0,0.0,0.0,0.0,0.0,0.0,0.0,0.0,0.0,0.0,0.0,0.0,0.0,0.0,0.0,0.0,0.0,0.0,-0.2743,-0.3174,0.0,0.0,0.0,0.0,0.0,0.0,0.0,0.0,0.0,0.0,0.0,0.0,1.4738,1.1155,0.8627,0.8627,0.7665,0.7228,0.7401,0.7404,0.7573,0.7998,1.2909,1.626,0.0,0.0,0.0,0.0,0.0,0.0,0.0,0.0,0.0,0.0,0.0,0.0,0.0,0.0,0.0,0.0,0.0,0.0,0.0,0.0,0.0,0.0,0.0,0.0,0.0,0.0,0.0,0.0,0.0,0.0,0.0,0.0,-3.7447,-3.8461,0.0,0.0,0.0,0.0,0.0,0.0,0.0,0.0,0.0,0.0,0.0,0.0,0.0,-4.0842,-4.0842,-4.1019,-4.1111,-4.1111,-4.1171,-4.1191,-4.1191,-4.095,-4.0809,-4.0785,-4.048,0.0,-3.9293,-3.6714,0.0,0.0,0.0,0.0,0.0,0.0,0.0,0.0,0.0,0.0,0.0,0.0,0.0,0.0,0.0,0.0,0.0,0.0,0.0,0.0,0.0,0.0,-0.5764,-0.6048,-0.6413,-0.6498,0.0,-0.2468,0.1321,0.4226,0.5015,0.0,0.0,0.0,0.0,0.0,0.0,0.0,1.1288,0.8931,0.7316,0.7316,0.7228,0.7492,0.854,0.8627,0.947,1.139,1.2361,1.4792,1.9336,2.0092,0.0,0.0,0.0,0.0,0.0,0.0,0.0,0.0,0.0,0.0,0.0,0.0,0.0,0.0,0.0,0.0,0.0,0.0,0.0,0.0,0.0,0.0,0.0,0.0,0.0,0.0,0.0,0.0,0.0,-3.6726,-3.867,-3.9429,-3.9887,-4.012,0.0,0.0,0.0,0.0,0.0,0.0,0.0,0.0,0.0,-4.0914,-4.1049,-4.1105,-4.1105,-4.1171,-4.1191,-4.1191,-4.1191,-4.1191,-4.1191,-4.092,-4.0801,-4.0785,-4.0584,-4.0296,-3.9853,-3.8173,-3.659,-3.5048,0.0,0.0,0.0,0.0,-2.2764,-2.045,-1.8695,-1.5926,0.0,0.0,0.0,0.0,0.0,0.0,0.0,0.0,0.0,0.0,0.0,0.0,0.0,-0.6779,-0.7139,-0.7139,-0.7139,-0.5422,-0.3099,0.0,0.0352,0.1931,0.7839,0.0,0.0,0.0,0.0,1.1038,1.053,0.8503,0.7139,0.7139,0.7665,0.8364,0.889,0.9492,1.026,1.1257,1.3084,1.5174,1.7434,2.0345,2.305,0.0,0.0,0.0,0.0,0.0,0.0,0.0,0.0,0.0,0.0,0.0,0.0,0.0,0.0,0.0,0.0,0.0,0.0,0.0,0.0,0.0,0.0,0.0,0.0,0.0,0.0,0.0,0.0,-3.8507,-3.9399,-4.0023,-4.038,-4.0563,0.0,0.0,0.0,0.0,0.0,0.0,-4.0857,-4.0988,-4.1052,-4.1052,-4.115,-4.1191,-4.1191,-4.1191,-4.1191,-4.1191,-4.1191,-4.1191,-4.1191,-4.092,-4.0801,-4.0785,-4.0584,-4.0489,-4.0403,-3.9265,-3.7916,-3.6397,-3.4759,-3.2708,-3.0617,-3.011,-2.8967,-2.7467,-2.6305,-2.3169,-1.8749,-1.3041,0.0,-0.4729,0.1271,0.0,0.0,0.0,0.0,0.1297,-0.2275,-0.3796,-0.4972,-0.6688,-0.7139,-0.7139,-0.7139,-0.7058,-0.6248,0.0,-0.3195,-0.2032,0.273,0.0,0.0,0.0,0.0,0.9947,0.9688,0.8165,0.7228,0.7489,0.8364,0.9148,0.9753,1.0524,1.1375,1.2298,1.4698,1.6254,1.6895,2.0542,2.2834,2.3313,0.0,0.0,0.0,0.0,0.0,0.0,0.0,0.0,0.0,0.0,0.0,0.0,0.0,0.0,0.0,0.0,0.0,0.0,0.0,0.0,0.0,0.0,0.0,0.0,0.0,0.0,0.0,0.0,0.0,-4.0101,-4.0514,0.0,0.0,0.0,0.0,-4.0793,-4.0914,-4.0992,-4.0992,-4.1126,-4.1191,-4.1191,-4.1191,-4.1191,-4.1191,-4.1191,-4.1191,-4.1191,-4.1191,-4.1191,-4.1191,-4.092,-4.0801,-4.0785,-4.0584,-4.0489,-4.0403,-3.9265,-3.8737,-3.8358,-3.5299,-3.3986,-3.3632,-3.1656,-3.0847,-3.0426,-2.8035,-2.5745,-2.329,-1.9506,-1.3108,-0.6648,-0.5199,-0.1613,0.0,0.0,-0.1483,-0.2366,-0.5948,-0.6868,-0.6959,-0.7051,-0.7139,-0.7139,-0.7139,-0.7068,-0.6358,0.0,-0.3568,-0.2759,-0.0177,0.0,0.783,0.9362,0.9257,0.8536,0.7401,0.7136,0.7577,0.8715,0.889,0.9749,1.198,1.2151,1.3574,1.6748,1.7082,1.8132,2.0226,2.0624,2.1532,2.324,2.3374,0.0,0.0,0.0,0.0,0.0,0.0,0.0,0.0,0.0,0.0,0.0,0.0,0.0,0.0,0.0,0.0,0.0,0.0,0.0,0.0,0.0,0.0,0.0,0.0,0.0,0.0,0.0,0.0,-4.0101,-4.0491,0.0,-4.0703,-4.084,-4.0925,-4.0925,-4.1052,-4.1128,-4.1128,-4.1171,-4.1191,-4.1191,-4.1191,-4.1191,-4.1191,-4.1191,-4.1191,-4.1191,-4.1191,-4.1191,-4.1191,-4.1019,-4.0877,-4.0793,-4.0676,-4.0588,-4.0473,-3.9868,-3.9317,-3.8637,-3.7006,-3.6041,-3.545,-3.4378,-3.331,-3.2367,-3.15,-2.8549,-2.4429,-2.0195,-1.6009,-1.2504,-1.2081,-0.9324,-0.6427,-0.727,-0.6346,-0.5497,-0.6773,-0.7139,-0.7139,-0.7139,-0.7139,-0.7139,-0.7139,-0.7058,-0.6884,-0.5994,-0.3393,-0.0981,-0.0178,0.1423,0.3742,0.7425,0.7871,0.7595,0.7143,0.7139,0.7228,0.7665,0.9056,1.0351,1.1123,1.2601,1.3971,1.5144,1.6527,1.7658,1.847,1.9835,2.0914,2.1532,2.1532,2.2794,0.0,0.0,0.0,0.0,0.0,0.0,0.0,0.0,0.0,0.0,0.0,0.0,0.0,0.0,0.0,0.0,0.0,0.0,0.0,0.0,0.0,0.0,0.0,0.0,0.0,0.0,-4.0138,-4.0101,-4.0477,-4.0731,-4.0731,-4.0909,-4.1023,-4.1055,-4.115,-4.1191,-4.1191,-4.1191,-4.1191,-4.1191,-4.1191,-4.1191,-4.1191,-4.1191,-4.1191,-4.1191,-4.1191,-4.1191,-4.1191,-4.1055,-4.0925,-4.0793,-4.0721,-4.0623,-4.0489,-4.0321,-3.9848,-3.9158,-3.8236,-3.7557,-3.6988,-3.619,-3.5211,-3.4152,-3.262,-2.9285,-2.5012,-2.0747,-1.8196,-1.6627,-1.5906,-1.4052,-1.219,-1.1844,-1.0555,-0.9265,-0.8935,-0.8507,-0.8165,-0.7837,-0.7401,-0.7139,-0.7139,-0.7139,-0.7058,-0.7081,-0.4561,-0.1876,-0.0268,-0.0,0.134,0.5366,0.6631,0.7078,0.7143,0.7139,0.7401,0.8185,0.9657,1.0956,1.1735,1.3215,1.425,1.4657,1.6281,1.7504,1.7827,1.9972,2.1078,2.1078,2.1375,2.2499,2.4271,0.0,0.0,0.0,0.0,0.0,0.0,0.0,0.0,0.0,0.0,0.0,0.0,0.0,0.0,0.0,0.0,0.0,0.0,0.0,0.0,0.0,0.0,0.0,-3.8809,-3.9621,-4.0178,-4.0139,-4.052,-4.0801,-4.0801,-4.0925,-4.1055,-4.1191,-4.1191,-4.1191,-4.1191,-4.1191,-4.1191,-4.1191,-4.1191,-4.1191,-4.1191,-4.1191,-4.1191,-4.1191,-4.1191,-4.1191,-4.1191,-4.1074,-4.0925,-4.0801,-4.0731,-4.0636,-4.0504,-4.0504,-4.0356,-4.0003,-3.8859,-3.8414,-3.824,-3.6911,-3.6416,-3.5779,-3.1287,-2.8023,-2.5228,-2.1775,-1.9839,-1.8549,-1.6458,-1.5733,-1.5405,-1.4289,-1.3951,-1.3625,-1.2475,-1.1379,-1.0368,-0.9222,-0.8101,-0.7224,-0.7139,-0.7139,-0.7146,-0.7081,-0.7091,-0.5557,-0.0984,-0.0089,0.0805,0.3124,0.5547,0.0,0.7143,0.7139,0.8009,1.0265,1.0611,1.1563,1.3822,1.4088,1.4573,1.5621,1.6683,1.7827,1.8877,2.0884,2.1952,2.1952,2.2999,2.3447,2.3313,0.0,0.0,0.0,0.0,0.0,0.0,0.0,0.0,0.0,0.0,0.0,0.0,0.0,0.0,0.0,0.0,0.0,0.0,0.0,0.0,0.0,0.0,-3.8887,-3.9137,-3.9891,-4.0442,-4.053,-4.0683,-4.085,-4.0944,-4.1077,-4.1151,-4.1191,-4.1191,-4.1191,-4.1191,-4.1191,-4.1191,-4.1191,-4.1191,-4.1191,-4.1191,-4.1191,-4.1191,-4.1191,-4.1191,-4.1191,-4.1191,-4.1151,-4.1077,-4.095,-4.0821,-4.0722,-4.0649,-4.053,-4.0457,-4.0283,-3.9158,-3.8588,-3.8272,-3.7343,-3.6724,-3.5994,-3.3251,-3.0648,-2.8174,-2.6063,-2.3455,-2.0943,-2.037,-1.8538,-1.6621,-1.6283,-1.5078,-1.3625,-1.2475,-1.2554,-1.2469,-1.059,-1.0489,-1.0383,-0.879,-0.8364,-0.8105,-0.7234,-0.6166,-0.5369,-0.5211,-0.2243,0.0269,0.0894,0.4474,0.0,0.7078,0.7061,0.7665,0.9235,1.0096,1.1214,1.2681,1.3561,1.425,1.4489,1.6281,1.7415,1.7747,1.9816,2.1011,2.1011,2.2541,2.3358,0.0,0.0,0.0,0.0,0.0,0.0,0.0,0.0,0.0,0.0,0.0,0.0,0.0,0.0,0.0,0.0,0.0,0.0,0.0,0.0,0.0,0.0,-3.8497,-3.9274,-3.9754,-4.0206,-4.0545,-4.068,-4.0731,-4.0813,-4.0988,-4.1077,-4.1149,-4.1191,-4.1191,-4.1191,-4.1191,-4.1191,-4.1191,-4.1191,-4.1191,-4.1191,-4.1191,-4.1191,-4.1191,-4.1191,-4.1191,-4.1191,-4.1191,-4.1191,-4.1128,0.0,-4.0864,-4.0752,-4.0692,-4.0559,-4.0489,0.0,0.0,0.0,0.0,0.0,-3.702,-3.6096,-3.3958,-3.2113,-3.0381,-2.8085,-2.571,-2.3625,-2.3251,-2.1561,-1.9793,-1.9793,-1.8903,-1.7706,-1.6565,-1.6098,-1.539,-1.3136,-1.2403,-1.1736,-0.9995,-0.9235,-0.8536,-0.7295,-0.6334,0.0,-0.6936,-0.3139,-0.0,-0.0,0.3218,0.6002,0.6996,0.7064,0.7577,0.8803,0.9923,1.1037,1.2242,1.3379,0.0,0.0,0.0,1.7883,1.9219,2.0498,0.0,0.0,0.0,2.2952,2.2147,0.0,0.0,0.0,2.2336,2.2379,0.0,0.0,0.0,0.0,0.0,0.0,0.0,0.0,0.0,0.0,0.0,0.0,0.0,0.0,0.0,0.0,-3.8842,-3.98,-4.037,-4.0473,-4.0559,-4.0684,-4.0707,-4.0791,-4.0996,-4.1023,-4.1077,-4.1191,-4.1191,-4.1191,-4.1191,0.0,0.0,0.0,0.0,-4.1191,-4.1191,-4.1191,-4.1191,-4.1191,-4.1191,-4.1191,-4.1191,-4.1191,-4.1147,-4.1,-4.0864,-4.0781,-4.0696,-4.0559,-4.0489,-4.0406,-3.9821,-3.9576,-3.9414,-3.83,-3.7342,-3.6288,-3.4259,0.0,0.0,-2.9077,-2.7433,-2.6468,-2.5571,-2.4625,-2.3918,-2.3857,-2.3722,-2.3396,-2.2179,-2.0569,-1.8659,-1.6517,-1.4503,-1.2728,-1.1434,-1.025,-0.9043,-0.7621,-0.7312,-0.7262,-0.7098,-0.313,-0.0,-0.0,0.1786,0.4109,0.6723,0.7068,0.758,0.8803,0.0,0.0,1.2242,1.3379,1.4088,1.4088,1.6124,1.8594,2.1573,2.18,2.1811,2.1811,2.2702,2.2339,2.0566,2.1288,2.1288,2.0634,2.1019,2.1463,0.0,0.0,0.0,0.0,0.0,0.0,0.0,0.0,0.0,0.0,0.0,0.0,0.0,0.0,0.0,-3.8211,-3.9029,-3.9754,-4.012,-4.0356,-4.0563,-4.0761,-4.0788,-4.0883,-4.1149,-4.1151,-4.1171,-4.1191,-4.1191,-4.1191,-4.1191,-4.1191,-4.1191,-4.1191,-4.1191,-4.1191,-4.1191,-4.1191,-4.1191,-4.1191,0.0,0.0,-4.1191,-4.1191,-4.1191,-4.115,-4.0908,-4.0785,-4.077,-4.0577,-4.0372,-4.0139,-3.9735,-3.9438,-3.9107,-3.8223,-3.779,-3.7506,-3.6667,-3.4891,-3.2827,-3.2226,-3.0397,-2.8451,-2.8231,-2.7499,0.0,-2.5908,-2.5202,-2.4163,-2.2391,-2.22,-2.204,-1.987,-1.9045,-1.8039,-1.5085,-1.3664,-1.2111,-0.9131,-0.854,-0.8204,-0.7262,-0.3127,-0.0,-0.0,0.0358,0.2234,0.6554,0.7088,0.7598,0.8807,0.9923,1.1037,1.2242,1.3379,1.4088,1.4088,1.6124,1.798,1.9492,2.0382,2.0857,2.0857,2.1088,2.1011,2.0566,1.9904,1.9904,2.0566,1.8894,1.9131,0.0,0.0,0.0,0.0,0.0,0.0,0.0,0.0,0.0,0.0,0.0,-3.5889,-3.6427,0.0,-3.8111,-3.8659,-3.9226,-3.9731,-4.0042,-4.0339,-4.0568,-4.0722,-4.0788,-4.0877,-4.108,-4.1151,-4.1191,-4.1191,-4.1191,-4.1191,-4.1191,-4.1191,-4.1191,-4.1191,-4.1191,-4.1191,-4.1191,-4.1191,-4.1191,-4.1191,-4.1191,-4.1191,-4.1191,-4.1191,-4.1151,-4.1082,-4.0902,-4.0788,-4.0732,-4.0568,-4.0406,-4.0267,-3.9963,-3.9534,-3.9044,-3.8486,-3.8132,-3.7825,-3.7253,-3.5821,-3.4182,-3.3828,-3.2344,-3.0617,-3.0259,-2.952,-2.8579,-2.7866,-2.6953,-2.6034,-2.5083,-2.453,-2.3857,-2.2211,-2.1473,-2.0419,-1.7686,-1.5858,-1.4081,-1.1855,-1.0086,-0.8719,-0.812,-0.5531,-0.2769,-0.0358,-0.0,0.1338,0.4919,0.6361,0.734,0.7929,0.9575,1.0869,1.1381,1.3124,1.4334,1.4901,1.6445,1.7827,1.8957,2.0001,2.0566,2.0566,2.0566,2.0566,2.0566,2.0079,2.0079,2.0566,1.8301,1.823,0.0,0.0,0.0,0.0,0.0,0.0,0.0,-3.328,-3.3777,-3.4551,-3.5574,-3.6462,-3.698,-3.763,-3.8323,-3.908,-3.9414,-3.9754,-4.012,-4.0356,-4.053,-4.0662,-4.0733,-4.0864,-4.1023,-4.1149,-4.1191,-4.1191,-4.1191,-4.1191,-4.1191,-4.1191,-4.1191,-4.1191,-4.1191,-4.1191,-4.1191,-4.1191,-4.1191,-4.1191,-4.1191,-4.1191,-4.1191,-4.1191,-4.1128,-4.0992,-4.0843,-4.0732,-4.0642,-4.0545,-4.0489,-4.0473,-4.012,-3.9712,-3.9257,-3.8913,-3.846,-3.7962,-3.7453,-3.6519,-3.5467,-3.4964,-3.3795,-3.2462,-3.2026,-3.1324,-3.0558,-2.9822,-2.9171,-2.8525,-2.841,-2.7033,-2.553,-2.4684,-2.3469,-2.2019,-2.0091,-1.8066,-1.621,-1.4835,-1.2167,-0.9976,-0.9305,-0.8201,-0.6077,-0.1966,-0.0625,0.107,0.3933,0.5911,0.7081,0.7061,0.8969,1.0438,1.0864,1.2863,1.4573,1.5613,1.6683,1.7827,1.8957,2.0226,2.0857,2.0857,2.1088,2.1155,2.1155,2.0769,2.0702,2.0779,1.8461,1.7989,-2.9628,-3.1057,-3.2114,-3.2296,-3.2864,-3.3499,0.0,-3.4414,-3.4781,-3.5925,-3.6631,-3.7212,-3.7684,-3.8249,-3.8815,-3.9432,-3.9576,-3.98,-4.037,-4.0473,-4.0504,-4.0519,-4.0701,-4.0908,-4.115,-4.1191,-4.1191,-4.1191,-4.1191,-4.1191,-4.1191,-4.1191,-4.1191,-4.1191,-4.1191,-4.1191,-4.1191,-4.1191,-4.1191,-4.1191,-4.1191,-4.1191,-4.1191,-4.1191,-4.1128,-4.0988,-4.08,-4.063,-4.0519,-4.0504,-4.0489,-4.0438,-3.9882,-3.9797,-3.9901,-3.9282,-3.8865,-3.8596,-3.8528,-3.7399,-3.6063,-3.6488,-3.5172,-3.3534,-3.3876,-3.3625,-3.3035,-3.2175,-3.1855,-3.1602,-3.0847,-2.9515,-2.8352,-2.8184,-2.6418,-2.4362,-2.3128,-2.1977,-2.034,-1.7326,-1.5635,-1.3758,-1.0781,-0.9378,-0.8113,-0.6548,-0.2681,0.161,0.6126,0.693,0.7094,0.7084,0.8292,0.9923,1.1901,1.3294,1.4573,1.5613,1.6683,1.7827,1.8957,2.0807,2.1811,2.1811,2.2702,2.3147,2.3147,2.1293,2.0921,2.1811,1.8753,1.839,-3.0274,-3.1998,-3.3198,-3.3198,-3.3684,-3.4235,-3.4528,-3.4828,-3.5436,-3.6609,-3.7248,-3.7773,-3.8267,-3.8546,-3.8833,-3.9231,-3.9462,-3.9757,-4.0194,-4.0389,-4.0534,-4.061,-4.0696,-4.0799,-4.0955,-4.1105,-4.1191,-4.1191,-4.1191,-4.1191,-4.1191,-4.1191,-4.1191,-4.1191,-4.1191,-4.1191,-4.1191,-4.1191,-4.1191,-4.1191,-4.1191,-4.1151,-4.108,-4.108,-4.0983,-4.0818,-4.0648,-4.0545,-4.0489,-4.0489,-4.0489,-4.0473,-4.0211,-4.0101,-4.0002,-3.9163,-3.8913,-3.8923,-3.8762,-3.8029,-3.7163,-3.7417,-3.6469,-3.5256,-3.5311,-3.4772,-3.4088,-3.3611,-3.2914,-3.2238,-3.1864,-3.0919,-2.9983,-2.9572,-2.8352,-2.6822,-2.5375,-2.3853,-2.2062,-1.9531,-1.759,-1.5383,-1.2041,-1.055,-0.9209,-0.7347,-0.42,-0.0892,0.25,0.42,0.6071,0.8803,0.9584,1.0875,1.3118,1.3822,1.4328,1.4734,1.6879,1.8382,1.8858,2.1435,2.285,2.285,2.3294,2.3514,2.3514,2.2071,2.1552,2.1952,1.9474,1.9116,-3.1127,-3.2586,-3.3633,-3.3836,-3.4382,-3.4894,-3.4894,-3.517,-3.5761,-3.6768,-3.736,-3.7877,-3.8382,-3.8596,-3.8833,-3.9178,-3.9438,-3.9735,-4.0139,-4.0372,-4.0549,-4.0636,-4.0667,-4.074,-4.0785,-4.1019,-4.1151,-4.1191,-4.1191,-4.1191,-4.1191,-4.1191,-4.1191,-4.1191,-4.1191,-4.1191,-4.1191,-4.1191,-4.1191,-4.1191,-4.1191,-4.115,-4.1052,-4.0988,-4.0855,-4.0692,-4.0559,-4.0489,-4.0489,-4.0489,-4.0489,-4.0489,-4.0425,-4.0321,-4.0101,-3.9242,-3.9017,-3.9044,-3.8803,-3.835,-3.7928,-3.8065,-3.7433,-3.6626,-3.6611,-3.5874,-3.5061,-3.4927,-3.4072,-3.3185,-3.3185,-3.2444,-3.1496,-3.1049,-3.0026,-2.8781,-2.759,-2.589,-2.408,-2.2328,-2.0101,-1.746,-1.4489,-1.2277,-1.0287,-0.836,-0.6065,-0.3212,0.0535,0.3123,0.588,0.9305,1.0178,1.13,1.2954,1.3737,1.425,1.4489,1.6944,1.8523,1.884,2.1878,2.3514,2.3514,2.4036,2.4181,2.3891,2.2925,2.2253,2.1952,2.0207,1.9844,-3.2367,-3.3093,-3.3735,-3.4431,-3.5052,-3.5577,-3.5577,-3.5577,-3.5722,-3.6291,-3.6843,-3.736,-3.7843,-3.835,-3.8902,-3.9481,-3.9599,-3.98,-4.0406,-4.0489,-4.0504,-4.0504,-4.0623,-4.074,0.0,-4.092,-4.1055,-4.1191,-4.1191,-4.1191,-4.1191,-4.1191,-4.1191,-4.1191,-4.1191,-4.1191,-4.1191,-4.1191,-4.1191,-4.1191,-4.1191,-4.1191,-4.1191,-4.092,-4.0781,-4.0692,-4.0559,-4.0489,-4.0489,-4.0489,-4.0489,-4.0473,-4.0213,-4.0269,-4.0422,-3.98,-3.9364,-3.9044,-3.8803,-3.835,-3.798,-3.8515,-3.7982,-3.7248,-3.772,-3.7155,-3.6333,-3.6333,-3.5907,-3.5515,-3.5515,-3.4396,-3.3243,-3.3176,-3.1541,-2.9949,-2.9875,-2.8688,-2.7298,-2.6276,-2.3769,-2.1055,-1.8893,-1.4967,-1.1725,-1.053,-0.8448,-0.4474,0.2596,0.5563,0.7088,0.7231,0.9222,1.0611,1.0697,1.2778,1.4573,1.5621,1.6683,1.7819,1.8957,2.192,2.3514,2.3514,2.5429,2.5955,2.4933,2.3963,2.2925,2.1962,2.1001,2.0566,-3.2382,-3.3093,-3.3735,-3.4431,-3.5098,-3.5622,-3.5622,-3.5622,-3.5739,-3.6308,-3.6522,-3.6843,-3.7323,-3.7843,-3.8291,-3.8728,-3.9233,-3.9735,-4.0157,-4.0389,-4.0489,-4.0489,-4.053,0.0,0.0,0.0,0.0,-4.1191,-4.1191,-4.1191,-4.1191,-4.1191,-4.1191,-4.1191,-4.1191,-4.1191,-4.1191,-4.1191,-4.1191,-4.1191,-4.1105,-4.1077,-4.1055,-4.0852,-4.0729,-4.0692,-4.0559,-4.0489,-4.0489,-4.0489,-4.0489,-4.0489,-4.0389,-4.0406,-4.0438,-4.0062,-3.9859,-3.9731,-3.9402,-3.9026,-3.8744,-3.8915,-3.8368,-3.7773,-3.8267,-3.7738,-3.6981,-3.7305,-3.6768,-3.6139,-3.6139,-3.5504,-3.47,-3.4284,-3.284,-3.1407,-3.0967,-2.9219,-2.7445,-2.6493,-2.4495,-2.204,-1.9204,-1.5701,-1.2137,-0.8798,-0.6245,-0.3304,0.0715,0.4659,0.7081,0.7112,0.9205,1.0869,1.1638,1.3209,1.425,1.4657,1.6952,1.8444,1.8849,2.1878,2.3818,2.4492,2.448,2.4992,2.6025,2.3661,2.2702,2.2925,2.1385,2.0566,-3.268,-3.3287,-3.3836,-3.4736,-3.5253,-3.5622,-3.5622,-3.5622,-3.5739,-3.6308,-3.6374,-3.6563,-3.7097,-3.7578,-3.7993,-3.837,-3.8951,-3.9576,-4.0041,-4.025,-4.0389,-4.0489,-4.0489,-4.059,0.0,0.0,0.0,-4.1191,-4.1191,-4.1191,-4.1191,-4.1191,-4.1191,-4.1191,-4.1191,-4.1191,-4.1191,-4.1191,-4.1191,-4.1191,-4.1105,-4.1052,-4.0992,-4.0875,-4.0781,-4.0692,-4.061,-4.0545,-4.0489,-4.0489,-4.0489,-4.0489,-4.0489,-4.0489,-4.0473,-4.0321,-4.0232,-4.0195,-3.9735,-3.9462,-3.9264,-3.9264,-3.8934,-3.8548,-3.8778,-3.8273,-3.7666,-3.7859,-3.7305,-3.6684,-3.6684,-3.6291,-3.5793,-3.5323,-3.4154,-3.2956,-3.2268,-3.0201,-2.8268,-2.7419,-2.5238,-2.2859,-2.0741,-1.683,-1.2385,-0.7786,-0.5099,-0.2408,0.0893,0.3933,0.6346,0.7632,0.947,1.1037,1.2242,1.3379,1.425,1.4657,1.6952,1.8453,1.8858,2.1511,2.3294,2.3891,2.3963,2.4325,2.4898,2.3283,2.2478,2.2414,2.1155,2.0566,-3.3182,-3.3582,-3.3937,-3.5207,-3.5577,-3.5622,-3.5622,-3.5622,-3.5739,-3.6249,-3.6333,-3.6522,-3.702,-3.7542,-3.7959,-3.829,-3.8775,-3.9339,-3.9982,-4.0101,-4.0213,-4.0473,-4.0489,-4.0577,-4.0788,-4.0793,0.0,-4.1171,0.0,-4.1191,-4.1191,-4.1191,-4.1191,-4.1191,-4.1191,-4.1191,-4.1191,-4.1191,-4.1191,-4.1191,-4.1191,-4.1128,-4.1019,-4.0996,-4.0903,-4.0715,-4.0703,-4.0623,-4.0489,-4.0489,-4.0489,-4.0489,-4.0489,-4.0489,-4.0489,-4.0489,-4.0489,-4.0422,-3.9842,-3.9645,-3.9622,-3.9622,-3.9622,-3.9552,-3.9212,-3.8803,-3.8401,-3.8092,-3.7667,-3.7268,-3.7268,-3.6865,-3.644,-3.6416,-3.5504,-3.4479,-3.3786,-3.1789,-2.9872,-2.9213,-2.6046,-2.3441,-2.3103,-1.7952,-1.2385,-0.7786,-0.501,-0.1692,0.3123,0.3749,0.5078,0.8536,0.9923,1.1037,1.2242,1.3464,1.4657,1.5621,1.6764,1.7908,1.8957,2.0884,2.1962,2.2027,2.3818,2.3891,2.2103,2.2925,2.2414,2.0634,2.0644,2.0566,-3.2734,-3.3582,-3.4431,-3.4783,-3.5207,-3.5622,-3.5622,-3.5622,-3.5667,-3.5783,-3.581,-3.5854,-3.5968,-3.6746,-3.7433,-3.7488,-3.8623,-3.9529,-3.969,-4.012,-4.0422,-4.0489,-4.0489,-4.0554,-4.0718,-4.074,0.0,0.0,-4.1149,-4.1191,-4.1191,-4.1191,-4.1191,-4.1191,-4.1191,-4.1191,-4.1191,-4.1191,-4.1191,-4.1191,-4.1191,-4.1171,-4.115,-4.1049,-4.0914,-4.077,-4.0729,-4.0623,-4.0489,-4.0489,-4.0489,-4.0489,-4.0489,-4.0489,-4.0489,-4.0489,-4.0489,-4.0473,-4.0336,-4.0139,-3.9982,-3.9982,-3.9797,-3.9599,-3.9505,-3.9395,-3.9277,-3.92,-3.8776,-3.8357,-3.8145,-3.7713,-3.7127,-3.6528,-3.5778,-3.5057,-3.4463,-3.2547,-3.0749,-2.9886,-2.6354,-2.1966,-1.715,-1.4996,-1.2385,-0.7786,-0.3566,0.0801,0.557,0.6198,0.6986,0.9104,1.0115,1.1037,1.2242,1.4105,1.5379,1.5696,1.7488,1.8718,1.8966,2.0226,2.1298,2.1952,2.1821,2.2188,2.3147,2.1897,2.1451,2.1593,2.0934,2.0566,-3.2879,-3.3582,-3.4284,-3.4894,-3.5316,-3.5622,-3.5622,-3.5622,-3.5622,-3.5622,-3.5622,-3.5622,-3.5622,-3.6481,-3.719,-3.719,-3.8314,-3.932,-3.9552,-3.9884,-4.0193,-4.0473,-4.0489,-4.0545,-4.068,-4.0703,-4.0752,0.0,-4.1049,-4.1149,-4.1191,-4.1191,-4.1191,-4.1191,-4.1191,-4.1191,-4.1191,-4.1191,-4.1191,-4.1191,-4.1191,-4.1191,-4.1191,-4.1126,-4.0988,-4.0793,0.0,-4.066,-4.0489,-4.0489,-4.0489,-4.0489,-4.0489,-4.0489,-4.0489,-4.0489,-4.0489,-4.0489,-4.0489,-4.0389,-4.0286,-4.0286,-4.0157,-3.9984,-3.9861,-3.9819,-3.9797,-3.9645,-3.9387,-3.9114,-3.8987,-3.8431,-3.7778,-3.7088,-3.6383,-3.563,-3.4797,-3.3092,-3.1096,-2.8816,-2.5778,-2.188,-1.691,-1.4832,-1.2355,-0.7785,-0.3992,0.0534,0.6385,0.7104,0.7882,0.9786,1.0366,1.13,1.2942,1.4699,1.5861,1.6355,1.806,1.9195,1.9678,2.0245,2.0857,2.1375,2.1298,2.1527,2.2188,2.1973,2.1669,2.1375,2.1298,2.1011,-3.313,-3.3582,-3.3987,-3.5161,-3.5515,-3.5622,-3.5622,-3.5622,-3.5622,-3.5622,-3.5622,-3.5622,-3.5622,-3.6399,-3.7114,-3.7173,-3.8032,-3.8865,-3.9505,-3.9645,-3.9863,-4.0422,-4.0489,-4.0545,-4.0655,-4.0667,-4.0699,-4.0788,-4.0896,-4.1019,-4.1171,-4.1191,-4.1191,-4.1191,-4.1191,-4.1191,-4.1191,-4.1191,-4.1191,-4.1191,-4.1191,-4.1191,-4.1191,-4.1191,-4.1055,-4.0836,0.0,0.0,-4.0534,-4.0504,-4.0489,-4.0489,-4.0489,-4.0489,-4.0489,-4.0489,-4.0489,-4.0489,-4.0489,-4.0489,-4.0489,-4.0489,-4.0489,-4.0457,-4.0213,-4.0158,-4.0081,-3.98,-3.9712,-3.9712,-3.9668,-3.9111,-3.8407,-3.7842,-3.7106,-3.6215,-3.5078,-3.3524,-3.1162,-2.7367,-2.5003,-2.2583,-1.9282,-1.6025,-1.2308,-0.7756,-0.5034,-0.1068,0.5641,0.7088,0.8312,1.0356,1.0783,1.1729,1.4075,1.5304,1.6355,1.7496,1.855,1.9599,2.0566,2.0566,2.0566,2.0566,2.1375,2.1441,2.0789,2.2339,2.2339,2.0789,2.1517,2.1375,-3.2695,-3.3582,-3.4479,-3.4736,-3.5207,-3.5622,-3.5622,-3.5622,-3.5622,-3.5622,-3.5622,-3.5622,-3.5622,-3.6097,-3.6684,-3.7152,-3.7923,-3.8718,-3.9486,-3.984,-4.012,-4.0473,-4.0489,-4.0504,-4.053,-4.053,0.0,0.0,0.0,-4.0835,-4.1023,-4.1149,-4.1191,-4.1191,-4.1191,-4.1191,-4.1191,-4.1191,-4.1191,-4.1191,-4.1191,-4.1191,-4.1191,-4.1191,-4.1105,-4.0959,-4.0857,0.0,-4.0662,-4.0545,-4.0489,-4.0489,-4.0489,-4.0489,-4.0489,-4.0489,-4.0489,-4.0489,-4.0489,-4.0489,-4.0489,-4.0489,-4.0489,-4.0489,-4.0438,-4.0441,-4.0406,-4.0353,-4.0336,-4.0283,-4.0062,-3.9712,-3.9207,-3.8437,-3.7647,-3.6865,-3.6215,-3.4072,-3.15,-2.874,-2.6211,-2.3352,-1.9341,-1.6025,-1.2386,-0.7744,-0.4579,-0.1155,0.2668,0.7153,1.0124,1.0534,1.1466,1.2917,1.5206,1.6437,1.7496,1.863,1.9678,2.0401,2.0566,2.0566,2.0566,2.0566,2.0789,2.1155,2.1735,2.1308,2.1298,2.1735,2.1155,2.0789,-3.2492,-3.3339,-3.4186,-3.4528,-3.5098,-3.5622,-3.5622,-3.5622,-3.5622,-3.5622,-3.5622,-3.5622,-3.5622,-3.6054,-3.658,-3.7097,-3.7736,-3.8462,-3.9443,-3.9754,-4.0003,-4.0457,-4.0489,-4.0489,-4.0489,-4.0489,-4.0534,-4.0582,0.0,-4.0781,-4.0988,-4.1128,-4.1191,-4.1191,-4.1191,-4.1191,-4.1191,-4.1191,-4.1191,-4.1191,-4.1191,-4.1191,-4.1191,-4.1191,-4.1128,-4.0992,-4.0864,0.0,-4.0692,-4.0559,-4.0489,-4.0489,-4.0489,-4.0489,-4.0489,-4.0489,-4.0489,-4.0489,-4.0489,-4.0489,-4.0489,-4.0489,-4.0489,-4.0489,-4.0489,-4.0489,-4.0489,-4.0489,-4.0489,-4.0473,-4.0339,-4.0101,-3.9652,-3.8813,-3.7661,-3.6545,-3.5664,-3.3793,-3.1698,-2.9729,-2.7302,-2.4637,-2.1668,-1.7584,-1.3411,-1.0005,-0.686,-0.3117,0.1777,0.6145,0.9275,1.0443,1.1638,1.3008,1.4727,1.6363,1.7496,1.8069,1.9678,2.0566,2.0566,2.0566,2.0566,2.0566,2.1078,2.1517,2.2027,2.2038,2.2038,2.1952,2.1517,2.1088,-3.2231,-3.2879,-3.3547,-3.4235,-3.4894,-3.5407,-3.5577,-3.5622,-3.5622,-3.5622,-3.5622,-3.5622,-3.5622,-3.5941,-3.6416,-3.696,-3.7433,-3.8154,-3.9264,-3.9515,-3.9821,-4.0422,-4.0489,-4.0489,-4.0489,-4.0489,0.0,-4.0489,0.0,0.0,-4.0988,-4.1103,-4.1171,-4.1191,-4.1191,-4.1191,-4.1191,-4.1191,-4.1191,-4.1191,-4.1191,-4.1191,-4.1191,-4.1191,-4.1149,-4.1046,-4.0908,0.0,0.0,-4.0596,-4.0534,-4.0489,-4.0489,-4.0489,-4.0489,-4.0489,-4.0489,-4.0489,-4.0489,-4.0489,-4.0489,-4.0489,-4.0489,-4.0489,-4.0489,-4.0489,-4.0489,-4.0489,-4.0489,-4.0489,-4.0489,-4.0304,-3.9844,-3.8774,-3.7538,-3.6256,-3.5065,-3.3623,-3.209,-3.05,-2.8248,-2.5908,-2.3857,-1.8907,-1.4533,-1.2456,-0.9252,-0.4917,0.1154,0.4972,0.7994,1.0351,1.1638,1.2845,1.4321,1.5951,1.7172,1.7658,1.9274,2.0323,2.0566,2.0789,2.0934,2.0934,2.1821,2.2328,2.2328,2.2925,2.2776,2.2027,2.1811,2.1298,-3.1582,-3.2104,-3.2841,-3.3531,-3.4186,-3.4847,-3.547,-3.5622,-3.5622,-3.5622,-3.5622,-3.5622,-3.5622,-3.5667,-3.5854,-3.6374,-3.6921,-3.7629,-3.8738,-3.9301,-3.9821,-4.0422,-4.0489,-4.0489,-4.0489,-4.0489,-4.0489,0.0,0.0,0.0,-4.0988,-4.1019,-4.1077,-4.1191,-4.1191,-4.1191,-4.1191,-4.1191,-4.1191,-4.1191,-4.1191,-4.1191,-4.1191,-4.1191,-4.1191,-4.1171,-4.1049,0.0,0.0,-4.0699,-4.061,-4.0489,-4.0489,-4.0489,-4.0489,-4.0489,-4.0489,-4.0489,-4.0489,-4.0489,-4.0489,-4.0489,-4.0489,-4.0489,-4.0489,-4.0489,-4.0489,-4.0489,-4.0489,-4.0489,-4.0489,-4.0304,-3.97,-3.8107,-3.7417,-3.6825,-3.5749,-3.4431,-3.2951,-3.1246,-2.8982,-2.6582,-2.3918,-1.8907,-1.4895,-1.3834,-0.9885,-0.5361,-0.0442,0.4251,0.7994,1.0351,1.1638,1.3171,1.5372,1.5703,1.6675,1.8718,1.9036,1.9599,2.0566,2.1451,2.1886,2.1886,2.285,2.3368,2.3368,2.2553,2.2103,2.1952,2.1155,2.0712,-3.1482,-3.2064,-3.2734,-3.3443,-3.4087,-3.4783,-3.547,-3.5622,-3.5622,-3.5622,-3.5622,-3.5622,-3.5622,-3.5622,-3.5898,-3.6764,-3.7076,-3.7613,-3.8813,-3.9352,-3.9757,-4.0213,-4.0389,-4.0489,0.0,0.0,-4.0489,0.0,0.0,0.0,-4.0864,-4.0955,-4.1055,-4.1191,-4.1191,-4.1191,-4.1191,-4.1191,-4.1191,-4.1191,-4.1191,-4.1191,-4.1191,-4.1191,-4.1191,-4.1191,-4.1055,0.0,0.0,-4.0721,-4.0623,-4.0489,-4.0489,-4.0489,-4.0489,-4.0489,-4.0489,-4.0489,-4.0489,-4.0489,-4.0489,-4.0489,-4.0489,-4.0489,-4.0489,-4.0489,-4.0489,-4.0489,-4.0489,-4.0489,-4.0489,-4.0138,-3.9566,-3.8553,-3.7763,-3.6981,-3.6249,-3.4797,-3.3072,-3.1358,-2.9618,-2.738,-2.4062,-1.941,-1.5717,-1.409,-0.9976,-0.5361,-0.0619,0.4176,0.8028,1.0351,1.1638,1.2923,1.4559,1.5296,1.6108,1.6919,1.8221,1.9195,1.9599,2.1125,2.2027,2.2027,2.2999,2.3514,2.3514,2.2478,2.2027,2.1962,2.1011,2.0566,-3.1482,-3.191,-3.2477,-3.3391,-3.3937,-3.4544,-3.5407,-3.5622,-3.5622,-3.5622,-3.5622,-3.5622,-3.5622,-3.5622,-3.5898,-3.6786,-3.7114,-3.7596,-3.8718,-3.9219,-3.9622,-4.0061,-4.0269,-4.0406,0.0,-4.0489,0.0,0.0,0.0,0.0,0.0,-4.089,-4.1023,-4.1191,-4.1191,-4.1191,-4.1191,-4.1191,-4.1191,-4.1191,-4.1191,-4.1191,-4.1191,-4.1191,-4.1191,-4.1191,0.0,0.0,0.0,-4.0742,-4.0636,-4.0489,-4.0489,-4.0489,-4.0489,-4.0489,-4.0489,-4.0489,-4.0489,-4.0489,-4.0489,-4.0489,-4.0489,-4.0489,-4.0489,-4.0489,-4.0489,-4.0489,-4.0489,-4.0489,-4.0489,-4.012,-3.9588,-3.8969,-3.805,-3.714,-3.6522,-3.5061,-3.3316,-3.1358,-3.0069,-2.8085,-2.4195,-2.0031,-1.6683,-1.4835,-1.0326,-0.5351,-0.0619,0.4188,0.7963,1.0356,1.1295,1.2419,1.3997,1.481,1.5462,1.6108,1.7658,1.8789,1.9441,2.142,2.2328,2.2038,2.3294,2.3672,2.3073,2.2328,2.1886,2.1593,2.0934,2.0566,-3.1482,-3.1539,-3.1838,-3.3235,-3.3582,-3.3937,-3.5316,-3.5622,-3.5622,-3.5622,-3.5622,-3.5622,-3.5622,-3.5622,-3.5783,-3.6291,-3.6843,-3.7488,-3.829,-3.8822,-3.9339,-4.0022,-4.0101,-4.0195,-4.0473,-4.0489,0.0,0.0,0.0,0.0,0.0,-4.0781,-4.092,-4.1191,-4.1191,-4.1191,-4.1191,-4.1191,-4.1191,-4.1191,-4.1191,-4.1191,-4.1191,-4.1191,-4.1191,0.0,0.0,0.0,0.0,-4.0801,-4.0671,-4.0489,-4.0489,-4.0489,-4.0489,-4.0489,-4.0489,-4.0489,-4.0489,-4.0489,-4.0489,-4.0489,-4.0489,-4.0489,-4.0489,-4.0489,-4.0489,-4.0489,-4.0489,-4.0489,-4.0489,-4.0304,-3.9884,-3.902,-3.8163,-3.7381,-3.6568,-3.5459,-3.3874,-3.1455,-3.047,-2.8587,-2.4244,-2.0737,-1.7943,-1.6306,-1.0945,-0.5419,-0.0621,0.4194,0.7963,1.0356,1.0611,1.1563,1.3913,1.4088,1.4985,1.718,1.7342,1.831,2.0479,2.2489,2.2999,2.2027,2.3963,2.4036,2.2027,2.2038,2.1517,2.0644,2.0566,2.0566,-3.1482,-3.1853,-3.2477,-3.3375,-3.3937,-3.4496,-3.5424,-3.5622,-3.5622,-3.5622,-3.5622,-3.5622,-3.5622,-3.5622,-3.5898,-3.6803,-3.7114,-3.7542,-3.8473,-3.9072,-3.9529,-3.9731,-4.012,-4.0425,0.0,0.0,0.0,0.0,0.0,0.0,0.0,-4.0729,-4.0824,-4.1052,-4.115,-4.1191,-4.1191,-4.1191,-4.1191,-4.1191,-4.1191,-4.1191,-4.1191,-4.1191,0.0,0.0,0.0,0.0,0.0,-4.0843,-4.0742,-4.0636,-4.0549,-4.0489,-4.0489,-4.0489,-4.0489,-4.0489,-4.0489,-4.0489,-4.0489,-4.0489,-4.0489,-4.0489,-4.0489,-4.0489,-4.0489,-4.0489,-4.0489,-4.0489,-4.0489,-4.0138,-3.969,-3.9411,-3.8291,-3.7251,-3.702,-3.5718,-3.4055,-3.2261,-3.0849,-2.8837,-2.5071,-2.1128,-1.7638,-1.5015,-0.8923,-0.3539,-0.0442,0.4188,0.7963,1.0356,1.0611,1.1563,1.3913,1.4088,1.4741,1.6108,1.6927,1.798,1.9441,2.142,2.2328,2.2038,2.2627,2.2627,2.2027,2.1375,2.0857,2.0566,2.0566,2.0566,-3.1409,-3.1853,-3.2422,-3.3391,-3.3937,-3.4431,-3.5362,-3.5622,-3.5622,-3.5622,-3.5622,-3.5622,-3.5622,-3.5622,-3.5898,-3.6764,-3.7076,-3.7487,-3.8285,-3.899,-3.9505,-3.9754,0.0,0.0,0.0,0.0,0.0,0.0,0.0,0.0,0.0,-4.0667,-4.0761,-4.087,-4.1046,-4.115,-4.1191,-4.1191,-4.1191,-4.1191,-4.1191,-4.1191,-4.1191,-4.1191,0.0,0.0,0.0,0.0,0.0,-4.0914,-4.0807,-4.0692,-4.061,-4.0545,-4.0489,-4.0489,-4.0489,-4.0489,-4.0489,-4.053,-4.0574,-4.0519,-4.053,-4.0574,-4.0519,-4.0489,-4.0489,-4.0489,-4.0489,-4.0489,-4.0489,-4.0138,-3.9754,-3.9622,-3.8449,-3.7307,-3.721,-3.6053,-3.4365,-3.2191,-3.1049,-2.9091,-2.4989,-2.1053,-1.7454,-1.4352,-0.9556,-0.4517,0.0266,0.4548,0.7963,1.0356,1.0611,1.1563,1.3913,1.4088,1.4741,1.6191,1.6927,1.798,1.952,2.1115,2.1811,2.1441,2.1811,2.1811,2.1441,2.0867,2.0566,2.0566,2.0566,2.0566,0.0,-3.1539,-3.1894,-3.3182,-3.3582,-3.3987,-3.5253,-3.5577,0.0,-3.5622,-3.5622,-3.5622,-3.5622,-3.5622,-3.5783,-3.6291,-3.6843,-3.736,-3.7825,-3.8608,-3.9364,0.0,-4.0302,0.0,0.0,0.0,0.0,0.0,0.0,0.0,0.0,-4.0623,-4.0692,-4.0703,-4.0889,-4.1049,-4.1171,-4.1191,-4.1191,-4.1191,-4.1191,-4.1191,-4.1191,-4.1191,0.0,0.0,0.0,0.0,0.0,-4.0992,-4.0863,-4.0692,-4.0692,-4.061,-4.0489,-4.0489,-4.0489,-4.0489,-4.0489,-4.0602,-4.068,-4.0559,-4.0582,-4.0655,-4.053,-4.0504,-4.0519,-4.0504,-4.0489,-4.0489,-4.0489,-4.0285,-3.9982,-3.9668,-3.8588,-3.7539,-3.725,-3.6357,-3.4684,-3.1677,-3.0989,-2.9359,-2.4329,-2.0737,-1.7454,-1.4289,-1.1974,-0.7499,0.1154,0.5095,0.7963,1.0356,1.0611,1.1563,1.3913,1.4088,1.4985,1.7172,1.7342,1.8301,2.0479,2.1441,2.1517,2.0644,2.1451,2.1441,2.0566,2.0566,2.0566,2.0566,2.0566,2.0566,-3.1467,0.0,-3.2437,-3.2734,-3.3582,-3.4431,0.0,-3.5207,-3.5622,-3.5622,-3.5622,-3.5622,-3.5622,-3.5622,-3.5783,-3.6291,-3.6843,-3.736,-3.7825,-3.8803,0.0,-3.969,-4.0175,-4.0406,0.0,0.0,0.0,0.0,0.0,0.0,0.0,-4.0534,-4.0582,-4.0692,-4.0751,-4.0859,-4.1049,-4.115,-4.1191,-4.1191,-4.1191,-4.1191,-4.1191,-4.1191,0.0,0.0,0.0,0.0,-4.0992,-4.0883,-4.0799,-4.0692,-4.0602,-4.0534,-4.0489,-4.0489,-4.0489,-4.0489,-4.0489,-4.0602,-4.0692,-4.0655,-4.0596,-4.053,-4.0504,-4.0574,-4.0636,-4.0534,-4.0489,-4.0489,-4.0489,-4.012,-3.9709,-3.9622,-3.8681,-3.7701,-3.7285,-3.6271,-3.4742,-3.246,-3.1006,-2.8726,-2.4072,-2.0647,-1.7129,-1.3201,-1.1462,-0.7863,-0.0442,0.4368,0.7963,1.0356,1.0611,1.1563,1.3913,1.4088,1.4985,1.7172,1.7342,1.8301,2.0479,2.0789,2.0867,2.0566,2.0789,2.0779,2.0566,2.0566,2.0566,2.0566,2.0566,2.0566,-3.1409,-3.1796,-3.2176,-3.2547,-3.3391,-3.4235,-3.4528,-3.5098,-3.5622,-3.5622,-3.5622,-3.5622,-3.5622,-3.5827,-3.5985,-3.6028,-3.6865,-3.7737,0.0,0.0,-3.9486,-3.9797,-4.012,0.0,0.0,0.0,0.0,0.0,0.0,0.0,0.0,-4.0489,-4.053,-4.061,-4.0655,-4.08,-4.0996,-4.1077,-4.1149,-4.1191,-4.1191,-4.1191,-4.1191,-4.1191,-4.1191,0.0,0.0,0.0,-4.0992,-4.0857,-4.0771,-4.0692,-4.0623,-4.0559,-4.0489,-4.0489,-4.0489,-4.0504,-4.0574,-4.0649,-4.0715,-4.0742,-4.0684,-4.0582,-4.0582,-4.0649,-4.0667,-4.053,-4.0489,-4.0473,-4.0356,-3.9964,-3.9576,-3.9408,-3.8619,-3.7755,-3.7285,-3.6236,-3.4692,-3.216,-3.0791,-2.8428,-2.3489,-1.9907,-1.6628,-1.3471,-1.0681,-0.6792,-0.0797,0.5078,0.9222,1.0448,1.1037,1.2077,1.3913,1.4573,1.5304,1.6519,1.7496,1.863,1.9844,2.0323,2.0566,2.0566,2.0566,2.0323,1.9844,1.9844,1.9599,1.9107,1.9599,1.9844,-3.1278,-3.1582,-3.1796,-3.2327,-3.2933,-3.3633,-3.4284,-3.4958,-3.547,-3.5577,-3.5622,-3.5622,-3.5694,-3.6028,-3.6139,-3.5766,-3.6886,0.0,-3.8906,-3.9072,-3.9308,-3.9816,-3.9962,0.0,0.0,0.0,0.0,0.0,0.0,0.0,0.0,-4.0489,-4.0489,-4.0489,-4.061,-4.0762,-4.0944,-4.0988,-4.1077,-4.1191,-4.1191,-4.1191,-4.1191,-4.1191,-4.1191,0.0,0.0,0.0,-4.0959,-4.0836,-4.0742,-4.0667,-4.0667,-4.0596,-4.0489,-4.0489,-4.0489,-4.0534,-4.0667,-4.0703,-4.0703,-4.0796,-4.0762,-4.0667,-4.0692,-4.068,-4.0649,-4.0515,-4.0473,-4.0389,-4.0158,-3.9819,-3.9438,-3.9178,-3.8536,-3.7877,-3.7323,-3.6219,-3.4468,-3.1576,-3.022,-2.7907,-2.26,-1.8815,-1.5916,-1.3848,-0.962,-0.5006,-0.0533,0.6236,1.0582,1.0626,1.1638,1.2766,1.3997,1.522,1.5861,1.5703,1.7819,1.9036,1.9283,2.0079,2.0566,2.0566,2.0401,1.9923,1.9036,1.8798,1.831,1.7585,1.855,1.9125,-3.1278,-3.1966,-3.2327,-3.1796,-3.2216,-3.2949,-3.3582,-3.4284,-3.4894,-3.547,-3.5622,-3.5739,-3.6182,-3.5968,-3.5854,-3.6224,-3.6865,-3.7667,0.0,0.0,-3.9036,-3.8931,0.0,0.0,0.0,0.0,0.0,0.0,0.0,0.0,0.0,-4.0489,-4.0489,-4.0489,-4.0519,-4.061,-4.0751,-4.0916,-4.1077,-4.1191,-4.1191,-4.1191,-4.1191,-4.1191,-4.1191,0.0,0.0,-4.0944,-4.0816,-4.0752,-4.0642,-4.0515,-4.0515,-4.0519,-4.0489,-4.0489,-4.0489,-4.053,-4.0713,-4.0668,-4.0582,-4.0877,-4.0781,-4.0545,-4.0674,-4.0623,-4.0534,-4.0504,-4.0339,-4.0158,-4.0101,-3.9645,-3.916,-3.9125,-3.8818,-3.8318,-3.7414,-3.6115,-3.4319,-3.1561,-2.9275,-2.6295,-2.137,-1.7778,-1.4789,-1.2428,-0.7562,-0.312,-0.0355,0.6236,1.0582,1.0626,1.1638,1.2766,1.3997,1.5959,1.6683,1.5779,1.7819,1.9441,2.0323,2.0479,2.0566,2.0566,1.9687,1.9195,1.9036,1.8069,1.7989,1.8718,1.8957,1.952,-3.1278,-3.1739,-3.2007,-3.2064,-3.2864,-3.3735,-3.4087,-3.464,-3.5207,-3.5532,-3.5622,-3.5783,-3.6308,-3.6457,-3.6706,-3.7524,0.0,-3.7843,-3.8578,-3.8803,-3.8894,0.0,0.0,0.0,0.0,0.0,0.0,0.0,0.0,0.0,0.0,0.0,-4.0489,-4.0489,-4.0489,-4.0574,-4.0692,-4.0832,-4.0959,-4.1082,-4.1171,-4.1191,-4.1191,-4.1191,-4.1191,-4.1191,0.0,-4.092,-4.0793,-4.0721,-4.0623,-4.0489,-4.0489,-4.0489,-4.0489,-4.0489,-4.0545,-4.061,-4.0629,-4.0623,-4.063,-4.0791,-4.0676,-4.0534,-4.0655,-4.061,-4.0489,-4.0489,-4.0321,-4.0061,-3.988,-3.9481,-3.9044,-3.8923,-3.8566,-3.8065,-3.736,-3.5847,-3.3941,-3.1465,-2.9091,-2.597,-2.1145,-1.7559,-1.4385,-1.1537,-0.5761,-0.08,0.1601,0.739,1.1081,1.0621,1.2169,1.3711,1.4894,1.5869,1.7001,1.8292,1.8789,1.9441,2.0566,2.0566,2.0323,1.9766,1.9274,1.839,1.7245,1.6683,1.6675,1.7245,1.7819,1.8709,-3.1278,-3.164,-3.1894,-3.2437,-3.3235,-3.4021,-3.4479,-3.4894,-3.5207,-3.5532,-3.5694,-3.5898,-3.6333,-3.6843,-3.7451,-3.8201,-3.8117,-3.8099,-3.8627,-3.8707,0.0,0.0,0.0,0.0,0.0,0.0,0.0,0.0,0.0,0.0,0.0,0.0,-4.0473,-4.0406,-4.0473,-4.0545,-4.0642,-4.0743,-4.0864,-4.0996,-4.1103,-4.1171,-4.1191,-4.1171,-4.1171,-4.1191,-4.1055,-4.092,-4.0793,-4.0721,-4.0623,-4.0489,-4.0489,-4.0489,-4.0489,-4.0489,-4.0574,-4.063,-4.0574,-4.0582,-4.0655,-4.0707,-4.0617,-4.0534,-4.0655,-4.061,-4.0489,-4.0422,-4.0194,-3.9922,-3.9668,-3.9308,-3.8915,-3.8572,-3.8183,-3.772,-3.7135,-3.5443,-3.3432,-3.1369,-2.8754,-2.5492,-2.108,-1.7338,-1.3987,-1.1084,-0.4511,0.1067,0.4018,0.8732,1.1408,1.0361,1.2522,1.4657,1.5944,1.6355,1.7641,2.0401,1.9599,1.9441,2.0566,2.0323,1.9844,1.9036,1.847,1.7407,1.5696,1.5462,1.5455,1.5703,1.6764,1.7747,-3.1278,-3.2007,-3.2532,-3.2602,-3.216,-3.2241,-3.417,-3.4137,-3.4103,-3.5362,-3.5985,-3.6333,-3.6374,-3.6843,-3.721,-3.7303,-3.7649,-3.8099,-3.8627,0.0,0.0,0.0,0.0,0.0,0.0,0.0,0.0,0.0,0.0,0.0,0.0,0.0,0.0,-4.0139,-4.0372,-4.0504,-4.0519,-4.0703,-4.0864,-4.0996,-4.1019,-4.108,-4.1191,-4.1077,-4.108,-4.1191,-4.1055,-4.092,-4.0793,-4.0721,-4.0623,-4.0489,-4.0489,-4.0489,-4.0489,-4.0489,-4.0504,-4.0515,-4.0649,-4.061,-4.0559,-4.0733,-4.0657,-4.0534,-4.0655,-4.061,-4.0457,-4.0195,-3.9901,-3.9622,-3.9599,-3.9181,-3.8609,-3.8099,-3.7946,-3.7649,-3.6684,-3.4747,-3.276,-3.1298,-2.7752,-2.401,-2.0873,-1.683,-1.3239,-1.0921,-0.4511,0.1689,0.6278,0.9745,1.106,0.9244,1.2089,1.4901,1.7009,1.8141,1.9274,2.0489,1.9599,1.9441,2.0566,1.9599,1.9116,1.9036,1.7001,1.5861,1.5696,1.4734,1.4734,1.5703,1.6764,1.7334,-3.1278,-3.2064,-3.2586,-3.2586,-3.2382,-3.2625,-3.4235,-3.4382,-3.4479,-3.5407,-3.5783,-3.6011,-3.6333,-3.734,-3.8016,-3.7685,-3.8065,-3.8465,0.0,0.0,0.0,0.0,0.0,0.0,0.0,0.0,0.0,0.0,0.0,0.0,0.0,0.0,0.0,-4.0101,-4.0356,-4.0489,-4.0489,-4.066,-4.0772,-4.0818,-4.0939,-4.0988,-4.0955,-4.0988,-4.1026,-4.108,-4.1113,-4.1052,-4.0914,-4.0805,-4.071,-4.0623,-4.053,-4.0489,-4.0489,-4.0489,-4.0489,-4.0504,-4.0559,-4.053,-4.05,-4.0584,-4.0563,-4.0504,-4.0559,-4.053,-4.0438,-4.0177,-3.9859,-3.9552,-3.9339,-3.8762,-3.815,-3.7946,-3.7415,-3.6865,-3.6498,-3.4424,-3.2291,-3.1216,-2.7611,-2.3807,-2.0797,-1.6758,-1.3161,-1.0921,-0.459,0.1685,0.6459,0.945,1.0733,1.0014,1.3659,1.5884,1.5394,1.8221,1.9599,1.863,1.9432,2.0167,2.0566,1.9599,1.8638,1.7989,1.6437,1.5379,1.4734,1.4334,1.4977,1.6683,1.709,1.7658,-3.1724,-3.2216,-3.2641,-3.2841,-3.2749,-3.2933,-3.4284,-3.4431,-3.4576,-3.5661,-3.5854,-3.5985,-3.6333,-3.7414,-3.8101,0.0,-3.8234,0.0,0.0,0.0,0.0,0.0,0.0,0.0,0.0,0.0,0.0,0.0,0.0,0.0,0.0,0.0,0.0,0.0,-4.0302,-4.0489,-4.0489,-4.0636,-4.068,-4.0649,-4.0807,-4.0877,-4.0801,-4.0902,-4.0959,-4.1019,-4.1149,-4.1126,-4.0992,-4.0857,-4.0742,-4.0636,-4.0549,-4.0489,-4.0489,-4.0489,-4.0489,-4.0489,-4.0489,-4.0489,-4.0489,-4.0489,-4.0489,-4.0489,-4.0489,-4.0441,-4.0302,-4.0003,-3.969,-3.9383,-3.9054,-3.8449,-3.7859,-3.772,-3.702,-3.6333,-3.6182,-3.3876,-3.1738,-3.1117,-2.743,-2.3492,-2.0807,-1.6758,-1.3161,-1.0921,-0.4583,0.1683,0.6459,0.9165,1.0869,1.1649,1.4406,1.5928,1.5144,1.8141,1.959,1.839,1.9756,2.0566,2.0566,1.9599,1.863,1.7827,1.6764,1.5869,1.5151,1.5151,1.5876,1.7342,1.7342,1.7577,-3.2586,-3.2586,-3.2803,-3.3443,-3.3093,-3.3002,-3.4284,-3.4087,-3.4153,-3.6002,-3.6374,-3.6374,-3.6374,-3.6843,-3.7228,-3.719,-3.805,0.0,0.0,0.0,0.0,0.0,0.0,0.0,0.0,0.0,0.0,0.0,0.0,0.0,0.0,0.0,0.0,0.0,-4.0175,-4.0489,-4.0489,-4.0636,-4.0636,-4.0504,-4.0617,-4.0731,-4.0793,-4.0801,-4.087,-4.1016,-4.1149,-4.1126,-4.0992,-4.0857,-4.0671,-4.0489,-4.0489,-4.0489,-4.0489,-4.0489,-4.0489,-4.0489,-4.0489,-4.0489,-4.0489,-4.0489,-4.0489,-4.0489,-4.0489,-4.0321,-4.0022,-3.969,-3.9364,-3.9036,-3.8762,-3.83,-3.779,-3.7323,-3.6803,-3.6266,-3.5694,-3.3141,-3.0989,-3.0989,-2.6921,-2.2785,-2.0675,-1.6758,-1.3161,-1.0921,-0.4583,0.1771,0.6545,0.9165,1.1477,1.3822,1.4021,1.4899,1.7082,1.831,1.9441,2.0489,2.0566,2.0566,2.0566,1.952,1.8966,1.9036,1.7908,1.7253,1.7342,1.7342,1.7342,1.7334,1.7342,1.6764,-3.1853,-3.2571,-3.3235,-3.2933,-3.3443,-3.4137,-3.4528,-3.4431,-3.4703,-3.6105,-3.6374,-3.6374,-3.6374,-3.7135,0.0,-3.7248,0.0,0.0,0.0,0.0,0.0,0.0,0.0,0.0,0.0,0.0,0.0,0.0,0.0,0.0,0.0,0.0,0.0,0.0,-4.0003,-4.0321,-4.0489,-4.053,-4.053,-4.0489,-4.053,-4.0568,-4.0597,-4.0743,-4.0816,-4.087,-4.1103,-4.1171,-4.1126,-4.0883,-4.0671,-4.0489,-4.0489,-4.0489,-4.0489,-4.0489,-4.0489,-4.0489,-4.0489,-4.0489,-4.0489,-4.0489,-4.0489,-4.0489,-4.0489,-4.0321,-4.0022,-3.969,-3.9364,-3.9036,-3.8762,-3.805,-3.736,-3.721,-3.6481,-3.5661,-3.5035,-3.283,-3.0672,-2.948,-2.5518,-2.173,-1.9627,-1.5576,-1.2257,-1.084,-0.4583,0.2292,0.8773,1.0875,1.2425,1.3913,1.5448,1.625,1.6191,1.8621,1.9923,1.952,2.0167,2.0566,2.0566,1.8789,1.8149,1.8957,1.7163,1.6519,1.7342,1.7342,1.7747,1.8479,1.7658,1.709,-3.2579,-3.3375,-3.3987,-3.3853,-3.4186,-3.4688,-3.4941,-3.5157,-3.5459,-3.5968,-3.6266,-3.6333,-3.6139,-3.6746,0.0,0.0,0.0,0.0,0.0,0.0,0.0,0.0,0.0,0.0,0.0,0.0,0.0,0.0,0.0,0.0,0.0,0.0,0.0,0.0,-3.9731,-3.9983,-4.0138,-4.0285,-4.0339,-4.0339,-4.0457,-4.0489,-4.0504,-4.0688,-4.0779,-4.0809,-4.108,-4.1171,-4.1103,-4.0883,-4.0703,-4.0568,-4.0519,-4.0489,-4.0489,-4.0489,-4.0489,-4.0489,-4.0489,-4.0489,-4.0489,-4.0489,-4.0489,-4.0489,-4.0489,-4.0212,-3.9859,-3.9645,-3.9282,-3.8847,-3.846,-3.7773,-3.719,-3.719,-3.6197,-3.5098,-3.4688,-3.2476,-3.0177,-2.8822,-2.4969,-2.1085,-1.8574,-1.524,-1.2345,-1.0809,-0.2112,0.5747,1.0072,1.1638,1.293,1.4559,1.5869,1.6764,1.7001,1.8868,1.9844,1.9678,2.0245,2.0566,2.0566,1.9353,1.8948,1.9599,1.8292,1.7971,1.8621,1.8621,1.8948,1.9599,1.806,1.7342,-3.4038,-3.4528,-3.4736,-3.5362,-3.5098,-3.4847,-3.547,-3.5985,-3.6224,-3.5783,-3.6028,-3.6182,-3.5739,-3.6097,-3.662,0.0,0.0,0.0,0.0,0.0,0.0,0.0,0.0,0.0,0.0,0.0,0.0,0.0,0.0,0.0,0.0,0.0,0.0,-3.9099,-3.9408,-3.9576,-3.9599,-3.9922,-4.0101,0.0,-4.0372,-4.0489,-4.0504,-4.0649,-4.0752,-4.0824,-4.1082,-4.1126,-4.0992,-4.0857,-4.0771,-4.068,-4.0545,-4.0489,-4.0489,-4.0489,-4.0489,-4.0489,-4.0489,-4.0489,-4.0489,-4.0489,-4.0489,-4.0489,-4.0473,-4.0063,-3.9599,-3.9576,-3.9154,-3.8596,-3.8032,-3.7542,-3.7173,-3.7041,-3.5788,-3.4576,-3.4414,-3.2059,-2.9651,-2.8491,-2.4773,-2.0741,-1.7556,-1.5162,-1.2795,-1.0045,0.194,1.067,1.0626,1.1729,1.3341,1.5448,1.5779,1.6675,1.8798,1.9125,1.952,2.0566,2.0566,2.0566,2.0566,2.0489,2.0489,2.0566,2.0489,2.0489,2.0566,2.0566,2.0566,2.0401,1.8301,1.7253,-3.2741,-3.3786,-3.4624,-3.4783,-3.5098,-3.5407,-3.5577,-3.5694,-3.5854,-3.6182,-3.5968,-3.5854,-3.6182,-3.6684,0.0,0.0,0.0,0.0,0.0,0.0,0.0,0.0,0.0,0.0,0.0,0.0,0.0,0.0,0.0,0.0,0.0,0.0,0.0,-3.9099,-3.916,-3.9339,-3.9599,-3.9922,-4.0101,0.0,-4.0372,-4.0489,-4.0504,-4.0649,-4.08,-4.0959,-4.1128,-4.1126,-4.0992,-4.0857,-4.0771,-4.068,-4.0545,-4.0489,-4.0489,-4.0489,-4.0489,-4.0489,-4.0489,-4.0489,-4.0489,-4.0489,-4.0489,-4.0457,-4.025,-3.9903,-3.9552,-3.9289,-3.898,-3.8596,-3.8032,-3.7542,-3.6946,-3.601,-3.5165,-3.4284,-3.3045,-3.1321,-2.9147,-2.6211,-2.2922,-1.9648,-1.6508,-1.3873,-0.9941,-0.3279,0.5566,1.1332,1.0707,1.2425,1.4223,1.553,1.6437,1.7496,1.8877,1.9756,2.0323,2.0566,2.0566,2.0566,2.0566,1.9756,1.9756,2.0566,1.9756,1.9766,2.0566,2.0566,2.0167,1.9274,1.7908,1.6846,-3.2493,-3.3772,-3.4688,-3.4988,-3.5362,-3.5622,-3.5622,-3.5622,-3.5694,-3.5985,-3.5766,-3.5711,-3.5985,-3.6457,0.0,0.0,0.0,0.0,0.0,0.0,0.0,0.0,0.0,0.0,0.0,0.0,0.0,0.0,0.0,0.0,0.0,-3.8318,-3.8504,-3.8894,-3.8923,-3.899,-3.9181,-3.9641,-3.9859,-3.988,-4.0302,-4.0489,-4.0504,-4.0649,-4.0781,-4.0914,-4.1052,-4.1093,-4.108,-4.0877,-4.0788,-4.0722,-4.0568,-4.0489,-4.0489,-4.0489,-4.0489,-4.0489,-4.0489,-4.0489,-4.0489,-4.0489,-4.0489,-4.0457,-4.0177,-3.988,-3.9486,-3.8915,-3.8554,-3.815,-3.7396,-3.6755,-3.6111,-3.5239,-3.4267,-3.3165,-3.2081,-2.9921,-2.738,-2.4613,-2.1169,-1.7723,-1.4545,-0.9623,-0.3615,0.3901,0.8894,1.1754,1.1483,1.3438,1.5304,1.6355,1.7415,1.855,1.9678,2.0245,2.0566,2.0566,2.0566,2.0566,2.0566,2.0079,2.0001,2.0566,2.0079,2.0001,2.0566,2.0566,2.0079,1.8957,1.7827,1.7009,-3.2391,-3.3792,-3.4783,-3.5407,-3.5622,-3.5622,-3.5622,-3.5622,-3.5622,-3.5622,-3.5622,-3.5622,-3.5739,0.0,0.0,0.0,0.0,0.0,0.0,0.0,0.0,0.0,0.0,0.0,0.0,0.0,0.0,0.0,0.0,0.0,-3.7755,-3.7859,-3.8099,-3.8546,-3.8658,-3.8707,-3.8707,-3.9223,-3.9534,-3.9599,-4.0211,-4.0489,-4.0504,-4.061,-4.0721,-4.0801,-4.095,-4.108,-4.1171,-4.0944,-4.0816,-4.0777,-4.0597,-4.0519,-4.0489,-4.0489,-4.0489,-4.0489,-4.0457,-4.0457,-4.0489,-4.037,-4.037,-4.0372,-4.0023,-3.969,-3.9233,-3.8504,-3.8074,-3.7524,-3.6487,-3.5805,-3.516,-3.4252,-3.294,-3.1688,-3.0995,-2.8466,-2.5583,-2.3162,-1.9409,-1.5517,-1.2433,-0.5264,0.2396,0.9522,1.1194,1.1732,1.2254,1.4266,1.6108,1.7172,1.831,1.9441,2.0489,2.0566,2.0566,2.0566,2.0566,2.0566,2.0566,2.0566,2.0566,2.0566,2.0566,2.0566,2.0566,2.0566,1.9923,1.8718,1.7738,1.709,-3.1255,-3.304,-3.4783,-3.5407,-3.5622,-3.5622,-3.5622,-3.5622,-3.5622,-3.5622,-3.5622,-3.5739,0.0,0.0,0.0,0.0,0.0,0.0,0.0,0.0,0.0,0.0,0.0,0.0,0.0,0.0,0.0,0.0,0.0,0.0,-3.7285,-3.7685,-3.7928,-3.8013,-3.8465,-3.8707,-3.8707,-3.8999,-3.9314,-3.9599,-4.0211,-4.0489,-4.0504,-4.0519,-4.0616,-4.0801,-4.095,-4.108,-4.1191,-4.1049,-4.0889,-4.0785,-4.0718,-4.0596,-4.0489,-4.0489,-4.0489,-4.0473,-4.0232,-4.0304,-4.0422,-3.9884,-3.9922,-4.0042,-3.9414,-3.8915,-3.8474,-3.8092,-3.7631,-3.7023,-3.584,-3.5491,-3.4772,-3.23,-3.0995,-3.0071,-2.9172,-2.7576,-2.5165,-2.1504,-1.7268,-1.3613,-1.1194,-0.4791,0.2396,0.9522,1.0707,1.1139,1.2157,1.4266,1.6108,1.7172,1.831,1.9441,2.0489,2.0566,2.0566,2.0566,2.0566,2.0566,2.0566,2.0566,2.0566,2.0566,2.0566,2.0566,2.0566,2.0566,1.9511,1.7496,1.7342,1.6288,-3.2032,-3.3569,-3.4783,-3.5407,-3.5622,-3.5622,-3.5622,-3.5622,-3.5622,-3.5622,-3.5622,-3.565,0.0,0.0,0.0,0.0,0.0,0.0,0.0,0.0,0.0,0.0,0.0,0.0,0.0,0.0,0.0,0.0,0.0,-3.644,-3.6724,-3.6943,-3.721,-3.7506,-3.7998,-3.8267,-3.8267,-3.882,-3.9364,-3.988,-4.0139,-4.0356,-4.0489,-4.0489,-4.0604,-4.0801,-4.0864,-4.1019,-4.1191,-4.1052,-4.0959,-4.0902,-4.0771,-4.0655,-4.0596,-4.0534,-4.0406,-4.025,-4.0139,-4.0043,-3.9945,-3.969,-3.969,-3.969,-3.8924,-3.8564,-3.8209,-3.7306,-3.6636,-3.6027,-3.5165,-3.4023,-3.2788,-3.157,-2.9975,-2.8329,-2.6788,-2.5102,-2.2273,-1.6838,-1.3471,-1.0028,-0.5416,-0.2041,0.257,1.01,1.0855,1.13,1.3033,1.5199,1.6764,1.7253,1.8868,2.0089,2.0566,2.0566,2.0566,2.0566,2.0566,2.0566,2.0566,2.0566,2.0566,2.0566,2.0566,2.0566,2.0566,2.0566,1.9432,1.7342,1.7342,1.6445,-3.2268,-3.355,-3.4284,-3.5161,-3.5362,-3.5407,-3.556,-3.5622,-3.5622,0.0,-3.5694,0.0,0.0,0.0,0.0,0.0,0.0,0.0,0.0,0.0,0.0,0.0,0.0,0.0,0.0,0.0,0.0,0.0,0.0,-3.5783,-3.6182,-3.635,-3.6563,-3.6981,-3.7578,-3.7893,-3.7893,-3.8715,-3.9389,-3.9963,-4.0061,-4.0232,-4.0489,-4.0489,-4.0597,-4.0779,-4.0785,-4.0925,-4.1131,-4.1086,-4.1026,-4.0988,-4.0809,-4.0718,-4.068,-4.0545,-4.0372,-4.0177,-4.0022,-3.988,-3.9709,-3.9451,-3.9408,-3.9321,-3.8523,-3.8182,-3.7869,-3.6729,-3.5822,-3.4994,-3.4235,-3.2654,-3.1142,-3.0543,-2.8983,-2.7005,-2.4578,-2.2094,-1.8774,-1.3593,-1.1079,-0.7661,-0.1154,0.0978,0.408,1.0784,1.11,1.1558,1.4146,1.6124,1.7423,1.7658,1.9432,2.0566,2.0566,2.0566,2.0566,2.0566,2.0566,2.0566,2.0566,2.0566,2.0566,2.0566,2.0566,2.0566,2.0566,2.0566,1.9599,1.7747,1.7423,1.6764,-3.0968,-3.2053,-3.3039,-3.4333,-3.464,-3.483,-3.547,-3.5622,-3.5622,-3.5622,-3.6011,0.0,0.0,0.0,0.0,0.0,0.0,0.0,0.0,0.0,0.0,0.0,0.0,0.0,0.0,0.0,0.0,0.0,0.0,-3.5622,-3.5667,-3.6139,-3.6416,-3.6457,-3.7379,-3.7893,-3.7893,-3.8715,-3.9264,-3.9622,-3.9943,-4.0232,-4.0489,-4.0489,-4.0588,-4.0715,-4.077,-4.0877,-4.1023,-4.113,-4.1105,-4.0988,-4.085,-4.0762,-4.068,-4.0545,-4.0489,-4.0406,-3.9821,-3.9819,-3.9941,-3.9027,-3.8923,-3.8971,-3.8158,-3.7614,-3.7135,-3.6563,-3.5548,-3.4284,-3.2819,-3.186,-3.072,-2.8451,-2.7789,-2.6629,-2.2886,-1.8801,-1.5531,-1.4115,-1.2059,-0.8328,-0.1245,0.3748,0.7886,1.1255,1.11,1.1798,1.5191,1.6601,1.7747,1.8798,1.9923,2.0566,2.0566,2.0566,2.0566,2.0566,2.0566,2.0566,2.0566,2.0566,2.0566,2.0566,2.0566,2.0566,2.0566,2.0566,2.0001,1.8877,1.7819,1.6764,-3.0067,-3.1113,-3.1952,-3.2903,-3.3537,-3.4137,-3.48,-3.4941,-3.5098,-3.5515,0.0,0.0,0.0,0.0,0.0,0.0,0.0,0.0,0.0,0.0,0.0,0.0,0.0,0.0,0.0,0.0,0.0,0.0,0.0,0.0,-3.5577,-3.5783,-3.5898,-3.5898,-3.6545,-3.7097,-3.7433,-3.8392,-3.8857,-3.8823,-3.9252,-3.9626,-3.9925,-4.0139,-4.0266,-4.0329,-4.0654,-4.087,-4.1019,-4.1149,-4.1171,-4.1105,-4.0896,-4.0796,-4.0733,-4.0568,-4.0389,-4.0195,-3.9735,-3.9552,-3.9383,-3.8862,-3.8762,-3.8658,-3.7737,-3.7008,-3.6331,-3.5497,-3.4301,-3.3045,-3.1962,-3.0764,-2.9171,-2.6612,-2.3867,-2.1362,-1.9273,-1.5959,-1.2934,-1.1354,-0.8372,-0.4814,-0.0711,0.5169,0.9689,1.084,1.1408,1.2656,1.5357,1.6601,1.7738,1.8877,2.0518,2.1221,2.0634,2.1155,2.1221,2.0644,2.0566,2.0566,2.0566,2.0566,2.0566,2.0566,2.0566,2.0566,2.0566,2.0566,2.0079,1.8957,1.8559,1.7407,-2.8927,-2.9854,-3.072,-3.1351,-3.2206,-3.3035,-3.3989,-3.4382,-3.4783,-3.547,0.0,0.0,0.0,0.0,0.0,0.0,0.0,0.0,0.0,0.0,0.0,0.0,0.0,0.0,0.0,0.0,0.0,0.0,0.0,0.0,-3.4911,-3.5161,-3.5436,-3.5854,-3.6224,-3.6643,-3.7173,-3.8016,-3.8405,-3.8414,-3.8878,-3.9264,-3.9599,-3.9819,-4.0002,-4.012,-4.0462,-4.0738,-4.0955,-4.1128,-4.1191,-4.1171,-4.0955,-4.085,-4.0777,-4.0623,-4.0419,-4.0195,-3.9861,-3.9552,-3.9231,-3.8923,-3.8792,-3.8515,-3.7487,-3.6685,-3.5872,-3.4888,-3.3447,-3.1957,-3.1113,-2.9302,-2.6953,-2.408,-2.0681,-1.7785,-1.6291,-1.3888,-1.1547,-1.0183,-0.5791,-0.1423,0.1774,0.677,1.0552,1.1552,1.206,1.3412,1.6421,1.7382,1.8266,1.9432,2.1344,2.2113,2.1155,2.1669,2.1735,2.1078,2.0789,2.0566,2.0566,2.0566,2.0566,2.0566,2.0566,2.0566,2.0566,2.0566,2.0235,1.952,1.9204,1.798,0.0,0.0,0.0,-2.975,-3.0602,-3.1554,-3.2882,0.0,-3.4671,-3.5362,0.0,0.0,0.0,0.0,0.0,0.0,0.0,0.0,0.0,0.0,0.0,0.0,0.0,0.0,0.0,0.0,0.0,0.0,0.0,-3.3582,-3.3582,-3.4235,-3.514,-3.6333,-3.6374,-3.6603,-3.7152,-3.7649,-3.8041,-3.8383,-3.885,-3.9238,-3.9576,-3.9576,-3.9775,-4.0081,-4.0181,-4.043,-4.0828,-4.108,-4.1191,-4.1172,-4.1052,-4.092,-4.0785,-4.071,-4.061,-4.0457,-4.0195,-3.9861,-3.951,-3.9186,-3.8894,-3.8483,-3.7433,-3.6606,-3.5813,-3.4778,-3.2935,-3.1012,-3.0144,-2.7367,-2.4028,-2.0923,-1.8527,-1.6291,-1.3998,-1.2304,-1.1105,-1.0421,-0.4718,0.1511,0.6225,0.8468,1.0569,1.3568,1.3074,1.3988,1.8452,1.8946,1.9312,2.0547,2.2414,2.3147,2.2103,2.2027,2.2027,2.2027,2.1155,2.0644,2.0644,2.0644,2.0644,2.0644,2.0644,2.0644,2.0644,2.0644,2.0566,2.0566,1.952,1.839,-2.5755,0.0,0.0,0.0,0.0,0.0,0.0,0.0,-3.2385,-3.3081,0.0,0.0,0.0,0.0,0.0,0.0,0.0,0.0,0.0,0.0,0.0,0.0,0.0,0.0,0.0,0.0,0.0,0.0,-3.3145,-3.3093,-3.3582,-3.3786,-3.4268,-3.5078,-3.5497,-3.5778,-3.6054,-3.6943,-3.7452,-3.756,-3.8008,-3.848,-3.8942,-3.9144,-3.9414,-3.9757,-4.0074,-4.0389,-4.0742,-4.095,-4.1052,-4.106,-4.1004,-4.092,-4.0785,-4.071,-4.061,-4.0457,-4.0195,-3.9637,-3.8981,-3.8691,-3.8154,-3.7379,-3.626,-3.4975,-3.3697,-3.2538,-3.0939,-2.9296,-2.7748,-2.3883,-2.0215,-1.9331,-1.6056,-1.2977,-1.2328,-0.7476,-0.3186,-0.2932,-0.1334,0.1865,0.7749,1.0086,1.1813,1.3743,1.442,1.5756,1.863,1.9603,2.0352,2.1507,2.3379,2.4192,2.3147,2.3073,2.3073,2.3073,2.1527,2.0934,2.1593,2.0934,2.0934,2.1593,2.0934,2.0934,2.1593,2.0934,2.0566,2.0566,1.952,1.8798,-2.4337,-2.5463,-2.6582,-2.6582,0.0,0.0,-2.9783,-3.0661,0.0,0.0,0.0,0.0,0.0,0.0,0.0,0.0,0.0,0.0,0.0,0.0,0.0,0.0,0.0,0.0,0.0,-3.186,-3.1804,-3.2204,-3.217,-3.2422,-3.3145,-3.3198,-3.3479,-3.4186,-3.451,-3.4669,-3.4752,-3.5874,-3.6458,-3.6458,-3.725,-3.7773,-3.8101,-3.8431,-3.8793,-3.9137,-3.9711,-4.0149,-4.0468,-4.0752,-4.0928,-4.1003,-4.1054,-4.0996,-4.0864,-4.0781,-4.0665,-4.054,-4.0336,-3.9605,-3.8774,-3.8627,-3.7965,-3.7041,-3.6104,-3.4545,-3.2812,-3.144,-2.9256,-2.6637,-2.3858,-2.0923,-1.818,-1.6226,-1.362,-1.0702,-0.7494,-0.2468,0.1154,0.0178,0.2131,0.5326,0.9717,1.1721,1.3307,1.5079,1.5921,1.7309,1.9944,2.0661,2.1415,2.2542,2.4409,2.5217,2.4181,2.412,2.412,2.412,2.2638,2.1897,2.2027,2.1441,2.1441,2.1952,2.1441,2.1441,2.2027,2.1078,2.0566,2.0566,1.952,1.9283,-2.3294,-2.4036,-2.4862,-2.4862,-2.602,0.0,-2.8955,-2.9949,-3.0995,0.0,0.0,0.0,0.0,0.0,0.0,0.0,0.0,0.0,0.0,0.0,0.0,0.0,0.0,0.0,-3.0147,-3.0147,-3.0147,-3.0147,-3.0896,-3.1667,-3.2312,-3.2422,-3.2788,-3.3495,-3.3495,-3.3531,-3.3582,-3.4714,-3.5341,-3.543,-3.6556,-3.7135,-3.7228,-3.7685,-3.8074,-3.8444,-3.9207,-3.9754,-4.0139,-4.0496,-4.0781,-4.0992,-4.1128,-4.1108,-4.0988,-4.0857,-4.0762,-4.0667,-4.0515,-3.9692,-3.8728,-3.8674,-3.7907,-3.6904,-3.6163,-3.4435,-3.2337,-3.0362,-2.7129,-2.3446,-1.9793,-1.8547,-1.6934,-1.2196,-1.0697,-0.8285,-0.1061,0.2389,0.3625,0.186,0.6031,1.0265,1.176,1.313,1.4816,1.7163,1.7496,1.8594,2.1638,2.2018,2.2509,2.3576,2.5358,2.6164,2.5229,2.5075,2.5087,2.5158,2.4108,2.3073,2.2178,2.2178,2.2178,2.2178,2.2253,2.2253,2.2178,2.1078,2.0566,2.0566,1.9599,1.9687,-2.2328,-2.2999,-2.3818,0.0,0.0,0.0,-2.4708,-2.5465,-2.6371,0.0,0.0,0.0,0.0,0.0,0.0,0.0,0.0,0.0,0.0,0.0,0.0,0.0,0.0,0.0,-2.9254,-2.9254,-2.9254,-2.9254,-3.0072,-3.0569,-3.0733,-3.1364,-3.2064,-3.2788,-3.2803,-3.3039,-3.3582,-3.4349,-3.4981,-3.543,-3.618,-3.6764,-3.7228,-3.7685,-3.8074,-3.8444,-3.8961,-3.9552,-4.0101,-4.023,-4.051,-4.0857,-4.0992,-4.1015,-4.0988,-4.0857,-4.0762,-4.0655,-4.03,-3.9345,-3.8198,-3.7913,-3.6943,-3.5565,-3.3661,-3.1774,-2.9342,-2.4905,-2.2505,-2.1064,-2.028,-1.7466,-1.3659,-0.8901,-0.5005,-0.1146,0.2788,0.6069,0.8882,1.0849,1.1273,1.183,1.3275,1.3827,1.5058,1.8212,1.8638,1.9483,2.1725,2.268,2.3565,2.4636,2.5804,2.6383,2.6233,2.5441,2.537,2.6164,2.4469,2.3441,2.322,2.322,2.322,2.322,2.3963,2.4047,2.322,2.1451,2.0566,2.0566,2.0401,2.0401,0.0,0.0,0.0,-2.2776,0.0,0.0,0.0,-2.4472,-2.5071,-2.6027,-2.6531,-2.6985,-2.7446,0.0,0.0,0.0,0.0,0.0,0.0,0.0,0.0,0.0,0.0,0.0,-2.8363,-2.8363,-2.8556,-2.9002,-2.938,-2.9628,-2.9628,-3.0011,-3.0615,-3.1435,-3.1435,-3.1834,-3.2571,-3.3235,-3.3905,-3.4493,-3.4841,-3.547,-3.6399,-3.6579,-3.6917,-3.7453,-3.8077,-3.8758,-3.9452,-3.9678,-4.006,-4.0544,-4.0863,-4.1048,-4.1058,-4.0723,-4.0576,-4.0488,-4.0024,-3.8981,-3.7711,-3.6756,-3.5555,-3.4105,-3.223,-2.9399,-2.5983,-2.1607,-1.9885,-1.9048,-1.7549,-1.318,-0.8197,-0.4382,-0.1059,0.2478,0.7083,0.9952,1.2307,1.4378,1.465,1.4391,1.4072,1.5389,1.7041,1.8789,1.9885,2.1237,2.3121,2.3918,2.4945,2.6803,2.6676,2.6658,2.704,2.6277,2.5943,2.6452,2.5569,2.4767,2.4264,2.4264,2.4264,2.4264,2.4707,2.4719,2.4264,2.2264,2.1298,2.1298,2.0779,2.0566,0.0,0.0,0.0,0.0,0.0,-2.3051,0.0,0.0,0.0,0.0,0.0,0.0,0.0,0.0,0.0,0.0,0.0,0.0,0.0,0.0,0.0,0.0,0.0,0.0,0.0,-2.6896,-2.7285,-2.8141,-2.84,-2.8529,-2.8748,-2.8939,-2.9317,-3.0011,-3.0208,-3.0584,-3.1278,-3.216,-3.2895,-3.3391,-3.3531,-3.4252,-3.5407,-3.5239,-3.564,-3.644,-3.7072,-3.7784,-3.8619,-3.8964,-3.9456,-4.0038,-4.0696,-4.1007,-4.1015,-4.0648,-4.0469,-4.0301,-3.9696,-3.8674,-3.7325,-3.56,-3.3736,-3.1844,-3.0206,-2.6764,-2.2739,-1.9307,-1.8151,-1.6969,-1.2378,-0.7752,-0.3311,0.0884,0.3015,0.5651,1.1161,1.3294,1.4734,1.6466,1.7404,1.7293,1.5524,1.7357,1.9195,1.9806,2.1104,2.2733,2.4802,2.5192,2.6202,2.8734,2.7802,2.7162,2.767,2.7095,2.6658,2.6533,2.6533,2.6025,2.5004,2.5004,2.5075,2.53,2.53,2.53,2.53,2.3441,2.2403,2.1962,2.1011,2.0566,0.0,0.0,0.0,0.0,-1.9404,0.0,0.0,0.0,-2.1354,-2.2285,0.0,0.0,0.0,0.0,0.0,0.0,0.0,0.0,0.0,0.0,0.0,0.0,0.0,0.0,0.0,-2.4013,-2.4385,-2.5405,-2.6177,-2.6979,-2.7789,-2.8556,-2.9066,-2.9129,-2.9889,-3.0329,-3.045,-3.1905,-3.2641,-3.2749,-3.3339,-3.3987,-3.4736,-3.4506,-3.5155,-3.6416,-3.6313,-3.6836,-3.7772,-3.8291,-3.8745,-3.9252,-4.0378,-4.0726,-4.0616,-4.085,-4.0711,-4.0262,-3.9391,-3.8424,-3.7238,-3.4955,-3.1389,-2.7581,-2.5569,-2.301,-2.0236,-1.7335,-1.6468,-1.4153,-0.4159,-0.2625,-0.1583,0.6471,0.9497,1.1337,1.4282,1.5182,1.654,2.0446,2.0611,1.9955,1.9712,1.9298,1.9875,2.2606,2.2392,2.3018,2.577,2.614,2.6899,2.8798,2.8812,2.8427,2.7736,2.7604,2.7297,2.6521,2.6533,2.6025,2.5004,2.5004,2.5441,2.6314,2.6314,2.6314,2.6314,2.5217,2.3745,2.1962,2.1011,2.0566,0.0,0.0,0.0,0.0,0.0,0.0,-1.839,0.0,-2.0557,0.0,0.0,0.0,0.0,0.0,0.0,0.0,-1.9966,0.0,0.0,0.0,0.0,0.0,0.0,0.0,0.0,0.0,0.0,0.0,-2.4506,-2.5133,-2.6102,-2.6488,-2.7152,-2.8233,-2.862,-2.9002,-2.9566,-3.0719,-3.1202,-3.1098,-3.1957,-3.271,-3.3268,-3.3316,-3.3856,-3.4811,-3.5115,-3.5736,-3.662,-3.7535,-3.8039,-3.834,-3.9942,-4.0528,-4.0454,-4.0081,-3.986,-3.954,-3.8368,-3.6898,-3.4948,-3.1328,-2.7845,-2.4696,-2.2637,-2.1225,-1.9663,-1.6032,-1.0995,-0.5714,-0.1216,0.3303,0.7512,1.1149,1.2886,1.4406,1.6773,1.7821,1.9195,2.22,2.2878,2.3128,2.372,2.2981,2.2772,2.4054,2.479,2.5603,2.6876,2.7538,2.8552,3.0254,2.9566,2.8876,2.8492,2.8427,2.8117,2.7229,2.7229,2.6824,2.5873,2.5873,2.6094,2.6465,2.6533,2.6533,2.6533,2.5511,2.4564,2.3672,2.2113,2.1451,-1.8877,0.0,0.0,0.0,0.0,0.0,0.0,0.0,0.0,0.0,0.0,0.0,0.0,0.0,-1.7785,-1.6887,0.0,-1.7532,0.0,0.0,0.0,0.0,0.0,0.0,0.0,0.0,0.0,-2.2595,-2.2914,-2.3672,-2.4933,-2.5004,-2.5697,-2.7351,-2.7324,-2.7617,-2.8244,-2.9136,-2.9439,-2.9313,-3.0556,-3.1332,-3.1673,-3.2124,-3.2648,-3.326,-3.4005,-3.4678,-3.5283,-3.6496,-3.6984,-3.7149,-3.8545,-3.9527,-4.011,-3.984,-3.9246,-3.8398,-3.7285,-3.4866,-3.1766,-2.8837,-2.5804,-2.3005,-2.162,-1.9579,-1.6605,-1.1591,-0.5254,0.0695,0.3637,0.9154,1.4057,1.4664,1.5539,1.6883,1.9296,2.0712,2.2146,2.4543,2.5317,2.5971,2.7194,2.6176,2.5326,2.5903,2.6837,2.7708,2.8187,2.8919,2.9889,3.1351,3.0389,2.9566,2.938,2.938,2.9002,2.8117,2.7868,2.7417,2.685,2.6589,2.6533,2.6533,2.6533,2.6533,2.6533,2.5734,2.5441,2.537,2.3073,2.2027,0.0,0.0,0.0,-1.5304,0.0,0.0,0.0,0.0,-1.7415,0.0,0.0,0.0,0.0,-1.6519,-1.5673,-1.5446,-1.5576,0.0,0.0,0.0,0.0,0.0,0.0,0.0,0.0,0.0,0.0,-2.043,-2.1466,-2.2925,-2.4862,-2.5004,-2.5441,-2.6533,-2.6408,-2.6345,-2.6413,-2.7209,-2.7564,-2.7616,-2.942,-3.0242,-3.0129,-3.1072,-3.186,-3.2377,-3.326,-3.3633,-3.3754,-3.4961,-3.5457,-3.5504,-3.5761,-3.7256,-3.9404,-4.068,-3.9381,-3.6895,-3.6344,-3.237,-2.7719,-2.8986,-2.6275,-2.2625,-2.3176,-1.7459,-0.9235,-0.2344,-0.0261,0.2428,1.2971,1.4789,1.4432,1.65,1.7785,1.9343,2.2186,2.3732,2.5477,2.8295,2.8034,2.798,2.9846,2.7862,2.6706,2.8566,2.8099,2.8187,2.9983,3.0254,3.0584,3.1409,3.1467,3.1087,3.0329,3.0269,2.9889,2.9002,2.8182,2.767,2.767,2.6905,2.6533,2.6533,2.6533,2.6533,2.6533,2.6452,2.6465,2.6383,2.3356,2.2027,0.0,0.0,-1.7738,-1.4824,0.0,0.0,0.0,0.0,0.0,0.0,0.0,0.0,0.0,-1.5944,-1.5426,-1.4677,-1.4587,-1.4455,0.0,0.0,0.0,0.0,0.0,0.0,0.0,0.0,0.0,-1.9395,-2.044,-2.1669,-2.2925,-2.2999,-2.3514,-2.4469,-2.4434,-2.4411,-2.4411,-2.5305,-2.542,-2.485,-2.7328,-2.8123,-2.759,-2.9756,-3.0139,-2.9242,-3.185,-3.2237,-3.12,-3.2399,-3.3403,-3.4169,-3.399,-3.5582,-3.8061,-3.8525,-3.7695,-3.5914,-3.2805,-2.9854,-2.729,-2.5965,-2.0464,-1.3619,-0.9248,-0.6915,-0.421,0.2668,0.7536,1.1612,1.5288,1.7619,1.9242,1.9947,2.2426,2.4807,2.5765,2.6827,2.7866,2.8798,2.9213,2.9558,3.0194,2.9925,2.97,2.9875,3.0029,3.0197,3.0269,3.0777,3.1219,3.1467,3.1482,3.1161,3.0389,3.0329,3.0147,2.9889,2.9566,2.8876,2.7736,2.7417,2.704,2.6533,2.6533,2.6533,2.6533,2.6533,2.6533,2.6452,2.4767,2.3963,-1.7172,-1.7009,0.0,-1.4664,-1.547,0.0,-1.4496,0.0,0.0,0.0,0.0,0.0,0.0,-1.5696,-1.5455,-1.4817,-1.4334,-1.4088,0.0,-1.4088,0.0,0.0,0.0,0.0,0.0,0.0,-1.6676,-1.8301,-1.9027,-2.0032,0.0,0.0,-2.1339,-2.2296,-2.2414,-2.2435,-2.2435,-2.3341,-2.3509,-2.2999,-2.542,-2.612,-2.5378,-2.7734,-2.7967,-2.6665,-2.9458,-2.9791,-2.8581,-2.9551,-3.0915,-3.2014,-2.9607,-2.9241,-3.0695,-3.5945,-3.7143,-3.4711,-2.4528,-2.1635,-2.1805,-1.7578,-1.1846,-0.5312,0.1593,0.5293,0.7681,1.0338,1.4532,1.8318,1.8164,1.9898,2.2072,2.3444,2.5685,2.7694,2.8315,2.8983,2.9566,2.9827,3.054,3.1028,3.0763,3.1364,3.161,3.0822,3.1161,3.1278,3.0777,3.1161,3.1482,3.1482,3.1482,3.1278,3.0777,3.0718,3.0718,3.0718,3.045,2.9827,2.8684,2.8298,2.7802,2.6905,2.7229,2.7095,2.6533,2.6782,2.6782,2.6452,2.5804,2.5511]},{"header":{"parameterUnit":"m.s-1","parameterCategory":1,"la1":30.6,"la2":29.2853,"lo1":-89.7004,"lo2":-87.6739,"dy":0.0162,"dx":0.0183,"nx":112,"ny":82,"refTime":"2023-08-25T00:00:00:Z","depth":0,"parameterNumber":3,"parameterNumberName":"V-component_of_WINDS"},"data":[0.0,0.0,0.0,0.0,0.0,0.0,0.0,0.0,0.0,0.0,0.0,0.0,0.0,0.0,0.0,0.0,0.0,0.0,0.0,0.0,0.0,0.0,0.0,0.0,0.0,0.0,0.0,0.0,0.0,0.0,0.0,0.0,0.0,0.0,0.0,0.0,0.0,0.0,0.0,0.0,0.0,0.0,0.0,0.0,0.0,0.0,0.0,0.0,0.0,0.0,0.0,0.0,0.0,0.0,0.0,0.0,0.0,0.0,0.0,0.0,0.0,0.0,0.0,0.0,0.0,0.0,0.0,0.0,0.0,0.0,0.0,0.0,0.0,0.0,0.0,0.0,0.0,0.0,0.0,0.0,0.0,0.0,0.0,0.0,0.0,0.0,0.0,0.0,0.0,0.0,-3.7875,-3.8887,-3.9986,-4.0607,-4.0466,-4.0787,-3.8742,-3.3583,0.0,0.0,0.0,0.0,0.0,0.0,0.0,0.0,0.0,0.0,0.0,0.0,0.0,0.0,0.0,0.0,0.0,0.0,0.0,0.0,0.0,0.0,0.0,0.0,0.0,0.0,0.0,0.0,0.0,0.0,0.0,0.0,0.0,0.0,0.0,0.0,0.0,0.0,0.0,0.0,0.0,0.0,0.0,0.0,0.0,0.0,0.0,0.0,0.0,0.0,0.0,0.0,0.0,0.0,0.0,0.0,0.0,0.0,0.0,0.0,0.0,0.0,0.0,0.0,0.0,0.0,0.0,0.0,0.0,0.0,0.0,0.0,0.0,0.0,0.0,0.0,0.0,0.0,0.0,0.0,0.0,0.0,0.0,0.0,0.0,0.0,0.0,0.0,0.0,0.0,0.0,0.0,0.0,0.0,0.0,0.0,0.0,0.0,0.0,0.0,0.0,0.0,0.0,0.0,-3.6962,-3.9624,-4.0285,-4.0569,-4.0639,-4.0756,-3.8757,-3.3869,0.0,0.0,0.0,0.0,0.0,0.0,0.0,0.0,0.0,0.0,0.0,0.0,0.0,0.0,0.0,0.0,0.0,0.0,0.0,0.0,0.0,0.0,0.0,0.0,0.0,0.0,0.0,0.0,0.0,0.0,0.0,0.0,0.0,0.0,0.0,0.0,0.0,0.0,0.0,0.0,0.0,0.0,0.0,0.0,0.0,0.0,0.0,0.0,0.0,0.0,0.0,0.0,0.0,0.0,0.0,0.0,0.0,0.0,0.0,0.0,0.0,0.0,0.0,0.0,0.0,0.0,0.0,0.0,0.0,0.0,0.0,0.0,0.0,0.0,0.0,0.0,0.0,0.0,0.0,0.0,0.0,0.0,0.0,0.0,0.0,0.0,0.0,0.0,0.0,0.0,0.0,0.0,0.0,0.0,0.0,0.0,0.0,0.0,0.0,0.0,0.0,0.0,0.0,-3.6347,-3.7489,-3.9846,-4.0213,-4.0306,-4.0363,-4.0441,-3.8398,-3.3592,-3.2951,0.0,0.0,0.0,0.0,0.0,0.0,0.0,0.0,0.0,0.0,0.0,0.0,0.0,0.0,0.0,0.0,0.0,0.0,0.0,0.0,0.0,0.0,0.0,0.0,0.0,0.0,0.0,0.0,0.0,0.0,0.0,0.0,0.0,0.0,0.0,0.0,0.0,0.0,0.0,0.0,0.0,0.0,0.0,0.0,0.0,0.0,0.0,0.0,0.0,0.0,0.0,0.0,0.0,0.0,0.0,0.0,0.0,0.0,0.0,0.0,0.0,0.0,0.0,0.0,0.0,0.0,0.0,0.0,0.0,0.0,0.0,0.0,0.0,0.0,0.0,0.0,0.0,0.0,0.0,0.0,0.0,0.0,0.0,0.0,0.0,0.0,0.0,0.0,0.0,0.0,0.0,0.0,0.0,0.0,0.0,0.0,0.0,0.0,0.0,0.0,0.0,0.0,-3.73,-3.8364,-3.9842,-4.0042,-4.012,-4.0177,-4.0273,-3.8409,-3.3931,-3.3425,0.0,0.0,0.0,0.0,0.0,0.0,0.0,0.0,0.0,0.0,0.0,0.0,0.0,0.0,0.0,0.0,0.0,0.0,0.0,0.0,0.0,0.0,0.0,0.0,0.0,0.0,0.0,0.0,0.0,0.0,0.0,0.0,0.0,0.0,0.0,0.0,0.0,0.0,0.0,0.0,0.0,0.0,0.0,0.0,0.0,0.0,0.0,0.0,0.0,0.0,0.0,0.0,0.0,0.0,0.0,0.0,0.0,0.0,0.0,0.0,0.0,0.0,0.0,0.0,0.0,0.0,0.0,0.0,0.0,0.0,0.0,0.0,0.0,0.0,0.0,0.0,0.0,0.0,0.0,0.0,0.0,0.0,0.0,0.0,0.0,0.0,0.0,0.0,0.0,0.0,0.0,0.0,0.0,0.0,0.0,0.0,0.0,0.0,0.0,0.0,0.0,0.0,-3.6951,-3.9149,-3.9599,-3.9922,-4.0195,-4.0457,-4.0588,-3.9221,-3.5811,-3.4389,0.0,0.0,0.0,0.0,0.0,0.0,0.0,0.0,0.0,0.0,0.0,0.0,0.0,0.0,0.0,0.0,0.0,0.0,0.0,0.0,0.0,0.0,0.0,0.0,0.0,0.0,0.0,0.0,0.0,0.0,0.0,0.0,0.0,0.0,0.0,0.0,0.0,0.0,0.0,0.0,0.0,0.0,0.0,0.0,0.0,0.0,0.0,0.0,0.0,0.0,0.0,0.0,0.0,0.0,0.0,0.0,0.0,0.0,0.0,0.0,0.0,0.0,0.0,0.0,0.0,0.0,0.0,0.0,0.0,0.0,0.0,0.0,0.0,0.0,0.0,0.0,0.0,0.0,0.0,0.0,0.0,0.0,0.0,0.0,0.0,0.0,0.0,0.0,0.0,0.0,0.0,0.0,0.0,0.0,0.0,0.0,0.0,0.0,0.0,0.0,0.0,0.0,-3.645,-3.8224,0.0,-3.9712,-3.9984,-4.0473,-4.0394,-3.9025,-3.6007,0.0,0.0,0.0,0.0,0.0,0.0,0.0,0.0,0.0,0.0,0.0,0.0,0.0,0.0,0.0,0.0,0.0,0.0,0.0,0.0,0.0,0.0,0.0,0.0,0.0,0.0,0.0,0.0,0.0,0.0,0.0,0.0,0.0,0.0,0.0,0.0,0.0,0.0,0.0,0.0,0.0,0.0,0.0,0.0,0.0,0.0,0.0,0.0,0.0,0.0,0.0,0.0,0.0,0.0,0.0,0.0,0.0,0.0,0.0,0.0,0.0,0.0,0.0,0.0,0.0,0.0,0.0,0.0,0.0,0.0,0.0,0.0,0.0,0.0,0.0,0.0,0.0,0.0,0.0,0.0,0.0,0.0,0.0,0.0,0.0,0.0,0.0,0.0,0.0,0.0,0.0,0.0,0.0,0.0,0.0,0.0,0.0,0.0,0.0,0.0,0.0,0.0,-3.4576,-3.6304,-3.8008,0.0,-3.9599,-3.9842,-4.0438,-4.0339,-3.9165,-3.6708,0.0,0.0,0.0,0.0,0.0,0.0,0.0,0.0,0.0,0.0,0.0,0.0,0.0,0.0,0.0,0.0,0.0,0.0,0.0,0.0,0.0,0.0,0.0,0.0,0.0,0.0,0.0,0.0,0.0,0.0,0.0,0.0,0.0,0.0,0.0,0.0,0.0,0.0,0.0,0.0,0.0,0.0,0.0,0.0,0.0,0.0,0.0,0.0,0.0,0.0,0.0,0.0,0.0,0.0,0.0,0.0,0.0,0.0,0.0,0.0,0.0,0.0,0.0,0.0,0.0,0.0,0.0,0.0,0.0,0.0,0.0,0.0,0.0,0.0,0.0,0.0,0.0,0.0,0.0,0.0,0.0,0.0,0.0,0.0,0.0,0.0,0.0,0.0,0.0,0.0,0.0,0.0,0.0,0.0,0.0,0.0,0.0,0.0,0.0,0.0,0.0,0.0,-3.3832,-3.6695,-3.8931,-3.9529,-3.9599,-3.9842,-4.0438,-4.0489,-3.9814,0.0,0.0,0.0,0.0,0.0,0.0,0.0,0.0,0.0,0.0,0.0,0.0,0.0,0.0,0.0,0.0,0.0,0.0,0.0,0.0,0.0,0.0,0.0,0.0,0.0,0.0,0.0,0.0,0.0,0.0,0.0,0.0,0.0,0.0,0.0,0.0,0.0,0.0,0.0,0.0,0.0,0.0,0.0,0.0,0.0,0.0,0.0,0.0,0.0,0.0,0.0,0.0,0.0,0.0,0.0,0.0,0.0,0.0,0.0,0.0,0.0,0.0,0.0,0.0,0.0,0.0,0.0,0.0,0.0,0.0,0.0,0.0,0.0,0.0,0.0,0.0,0.0,0.0,0.0,0.0,0.0,0.0,0.0,0.0,0.0,0.0,0.0,0.0,0.0,0.0,0.0,0.0,0.0,0.0,0.0,0.0,0.0,0.0,0.0,0.0,0.0,0.0,0.0,-3.5352,-3.7517,-3.9144,-3.9552,-3.9797,-4.0101,-4.0473,-4.0489,-3.9814,-3.8191,0.0,0.0,0.0,0.0,0.0,0.0,0.0,0.0,0.0,0.0,0.0,0.0,0.0,0.0,0.0,0.0,0.0,0.0,0.0,0.0,0.0,0.0,0.0,0.0,0.0,0.0,0.0,0.0,0.0,0.0,0.0,0.0,0.0,0.0,0.0,0.0,0.0,0.0,0.0,0.0,0.0,0.0,0.0,0.0,0.0,0.0,0.0,0.0,0.0,0.0,0.0,0.0,0.0,0.0,0.0,0.0,0.0,0.0,0.0,0.0,0.0,0.0,0.0,0.0,0.0,0.0,0.0,0.0,0.0,0.0,0.0,0.0,0.0,0.0,0.0,0.0,0.0,0.0,0.0,0.0,0.0,0.0,0.0,0.0,0.0,0.0,0.0,0.0,0.0,0.0,0.0,0.0,0.0,0.0,0.0,0.0,0.0,0.0,0.0,0.0,0.0,0.0,-3.6063,-3.7856,-3.9212,-3.9576,-3.9901,-4.0195,-4.0473,-4.0489,-3.9948,-3.8662,0.0,0.0,0.0,0.0,0.0,0.0,0.0,0.0,0.0,0.0,0.0,0.0,0.0,0.0,0.0,0.0,0.0,0.0,0.0,0.0,0.0,0.0,0.0,0.0,0.0,0.0,0.0,0.0,0.0,0.0,0.0,0.0,0.0,0.0,0.0,0.0,0.0,0.0,0.0,0.0,0.0,0.0,0.0,0.0,0.0,0.0,0.0,0.0,0.0,0.0,0.0,0.0,0.0,0.0,0.0,0.0,0.0,0.0,0.0,0.0,0.0,0.0,0.0,0.0,0.0,0.0,0.0,0.0,0.0,0.0,0.0,0.0,0.0,0.0,0.0,0.0,0.0,0.0,0.0,0.0,0.0,0.0,0.0,0.0,0.0,0.0,0.0,0.0,0.0,0.0,0.0,0.0,0.0,0.0,0.0,0.0,0.0,0.0,0.0,0.0,0.0,0.0,-3.6209,-3.7968,-3.9314,-3.9622,-3.9943,-4.0251,-4.0473,-4.0489,-4.0152,-3.9343,0.0,0.0,0.0,0.0,0.0,0.0,0.0,0.0,0.0,0.0,0.0,0.0,0.0,0.0,0.0,0.0,0.0,0.0,0.0,0.0,0.0,0.0,0.0,0.0,0.0,0.0,0.0,0.0,0.0,0.0,0.0,0.0,0.0,0.0,0.0,0.0,0.0,0.0,0.0,0.0,0.0,0.0,0.0,0.0,0.0,0.0,0.0,0.0,0.0,0.0,0.0,0.0,0.0,0.0,0.0,0.0,0.0,0.0,0.0,0.0,-0.2964,0.0,0.0,0.0,0.0,0.0,0.0,0.0,0.0,0.0,0.0,0.0,0.0,0.0,0.0,0.0,0.0,0.0,0.0,0.0,0.0,0.0,0.0,0.0,0.0,0.0,0.0,0.0,0.0,0.0,0.0,0.0,0.0,0.0,0.0,0.0,0.0,0.0,0.0,0.0,0.0,0.0,-3.722,-3.8803,-3.9922,-3.9982,-4.025,-4.0441,-4.0489,-4.0489,-4.0152,-3.9343,-3.6648,0.0,0.0,0.0,0.0,0.0,0.0,0.0,0.0,0.0,0.0,0.0,0.0,0.0,0.0,0.0,0.0,0.0,0.0,0.0,0.0,0.0,0.0,0.0,0.0,0.0,0.0,0.0,0.0,0.0,0.0,0.0,0.0,0.0,0.0,0.0,0.0,0.0,0.0,0.0,0.0,0.0,0.0,0.0,0.0,0.0,0.0,0.0,0.0,0.0,0.0,0.0,0.0,0.0,0.0,0.0,0.0,0.0,0.0,0.0,0.0,-0.5563,0.0,0.0,0.0,0.0,0.0,0.0,0.0,0.0,0.0,0.0,0.0,0.0,0.0,0.0,0.0,0.0,0.0,0.0,0.0,0.0,0.0,0.0,0.0,0.0,0.0,0.0,0.0,0.0,0.0,0.0,0.0,0.0,0.0,0.0,0.0,0.0,0.0,0.0,0.0,0.0,-3.7571,-3.9058,-4.0101,-4.0101,-4.0339,-4.0489,-4.0489,-4.0489,-4.0332,-3.991,-3.721,0.0,0.0,0.0,0.0,0.0,0.0,0.0,0.0,0.0,0.0,0.0,0.0,0.0,0.0,0.0,0.0,0.0,0.0,0.0,0.0,0.0,0.0,0.0,0.0,0.0,0.0,0.0,0.0,0.0,0.0,0.0,0.0,0.0,0.0,0.0,0.0,0.0,0.0,0.0,0.0,0.0,0.0,0.0,0.0,0.0,0.0,0.0,0.0,0.0,0.0,0.0,0.0,0.0,0.0895,0.0,-0.009,-0.1433,-0.268,-0.3746,-0.7051,-0.7588,-0.6991,0.0,0.0,0.0,0.0,0.0,0.0,0.0,0.0,0.0,0.0,0.0,0.0,0.0,0.0,0.0,0.0,0.0,0.0,0.0,0.0,0.0,0.0,0.0,0.0,0.0,-4.0493,-4.0324,0.0,0.0,0.0,0.0,0.0,0.0,0.0,0.0,0.0,0.0,0.0,0.0,-3.7899,-3.9226,-4.0158,-4.0158,-4.0372,-4.0473,-4.0422,-4.0441,-4.037,-4.0208,-3.7757,-3.6096,0.0,0.0,0.0,0.0,0.0,0.0,0.0,0.0,0.0,0.0,0.0,0.0,0.0,0.0,0.0,0.0,0.0,0.0,0.0,0.0,0.0,0.0,0.0,0.0,0.0,0.0,0.0,0.0,0.0,0.0,0.0,0.0,1.4281,1.2776,0.0,0.0,0.0,0.0,0.0,0.0,0.0,0.0,0.0,0.0,0.0,0.0,0.0,0.2498,0.2498,0.1164,0.0448,0.0448,0.018,0.0,-0.009,-0.2325,-0.3481,-0.3748,-0.6231,0.0,-1.0162,-1.502,0.0,0.0,0.0,0.0,0.0,0.0,0.0,0.0,0.0,0.0,0.0,0.0,0.0,0.0,0.0,0.0,0.0,0.0,0.0,0.0,0.0,0.0,-4.0372,-4.0468,-4.0491,-4.0458,0.0,-4.0354,-4.0349,-4.0208,-4.0117,0.0,0.0,0.0,0.0,0.0,0.0,0.0,-3.9045,-3.9871,-4.0457,-4.0457,-4.0473,-4.0425,-4.0177,-4.0158,-3.9827,-3.9077,-3.8617,-3.7312,-3.4882,-3.4452,0.0,0.0,0.0,0.0,0.0,0.0,0.0,0.0,0.0,0.0,0.0,0.0,0.0,0.0,0.0,0.0,0.0,0.0,0.0,0.0,0.0,0.0,0.0,0.0,0.0,0.0,0.0,0.0,0.0,1.54,1.2193,1.0565,0.93,0.8619,0.0,0.0,0.0,0.0,0.0,0.0,0.0,0.0,0.0,0.2592,0.1433,0.0807,0.0807,0.0269,0.0,0.0,0.0,0.0,-0.009,-0.2503,-0.357,-0.3748,-0.6065,-0.765,-0.8835,-1.2588,-1.572,-1.8537,0.0,0.0,0.0,0.0,-3.251,-3.4718,-3.4432,-3.5561,0.0,0.0,0.0,0.0,0.0,0.0,0.0,0.0,0.0,0.0,0.0,0.0,0.0,-4.0511,-4.0489,-4.0489,-4.0489,-4.0498,-4.0507,0.0,-4.0389,-4.0207,-3.9862,0.0,0.0,0.0,0.0,-3.9137,-3.9297,-4.0005,-4.0489,-4.0489,-4.0372,-4.0213,-4.0101,-3.9922,-3.9671,-3.9258,-3.8543,-3.7558,-3.6347,-3.4711,-3.3072,0.0,0.0,0.0,0.0,0.0,0.0,0.0,0.0,0.0,0.0,0.0,0.0,0.0,0.0,0.0,0.0,0.0,0.0,0.0,0.0,0.0,0.0,0.0,0.0,0.0,0.0,0.0,0.0,1.2884,1.0373,0.9056,0.7302,0.6334,0.0,0.0,0.0,0.0,0.0,0.0,0.3126,0.1969,0.1344,0.1344,0.0449,0.0,0.0,0.0,0.0,0.0,0.0,0.0,-0.009,-0.2503,-0.357,-0.3748,-0.6065,-0.7139,-0.7397,-1.0797,-1.352,-1.592,-2.0068,-2.3764,-2.685,-2.7591,-2.9477,-3.1737,-3.2053,-3.3869,-3.6017,-3.6074,0.0,-3.7831,-3.6404,0.0,0.0,0.0,0.0,-3.9608,-4.0072,-4.0349,-4.0497,-4.0506,-4.0489,-4.0489,-4.0489,-4.0543,-4.0596,0.0,-4.0597,-4.0457,-4.0298,0.0,0.0,0.0,0.0,-3.9529,-3.9593,-4.0135,-4.0473,-4.0406,-4.0213,-4.0022,-3.9859,-3.9622,-3.9346,-3.9005,-3.8041,-3.7381,-3.7074,-3.5049,-3.3695,-3.3294,0.0,0.0,0.0,0.0,0.0,0.0,0.0,0.0,0.0,0.0,0.0,0.0,0.0,0.0,0.0,0.0,0.0,0.0,0.0,0.0,0.0,0.0,0.0,0.0,0.0,0.0,0.0,0.0,0.0,0.8798,0.5874,0.0,0.0,0.0,0.0,0.3659,0.2592,0.1879,0.1879,0.0718,0.009,0.009,0.0,0.0,0.0,0.0,0.0,0.0,0.0,0.0,-0.009,-0.2503,-0.357,-0.3748,-0.6065,-0.7139,-0.7397,-1.0797,-1.2307,-1.3021,-1.9266,-2.1861,-2.2366,-2.518,-2.6346,-2.6801,-2.9158,-3.0818,-3.2352,-3.519,-3.7274,-3.8691,-3.8833,-3.8892,0.0,0.0,-3.9972,-4.0126,-4.0404,-4.0496,-4.05,-4.0504,-4.0489,-4.0489,-4.0489,-4.06,-4.0717,0.0,-4.0782,-4.0727,-4.0527,0.0,-4.0281,-4.0153,-4.0098,-4.0157,-4.0422,-4.0469,-4.0389,-4.0139,-4.0101,-3.984,-3.9186,-3.9133,-3.8601,-3.7397,-3.7268,-3.6768,-3.5749,-3.5543,-3.4795,-3.3345,-3.3227,0.0,0.0,0.0,0.0,0.0,0.0,0.0,0.0,0.0,0.0,0.0,0.0,0.0,0.0,0.0,0.0,0.0,0.0,0.0,0.0,0.0,0.0,0.0,0.0,0.0,0.0,0.0,0.0,0.889,0.6413,0.0,0.5359,0.3573,0.2413,0.2413,0.1344,0.0628,0.0628,0.0269,0.0,0.0,0.0,0.0,0.0,0.0,0.0,0.0,0.0,0.0,-0.009,-0.1701,-0.2858,-0.3659,-0.5265,-0.6428,-0.7228,-0.9296,-1.0904,-1.2554,-1.6283,-1.8662,-2.0159,-2.1901,-2.3324,-2.439,-2.5281,-2.7933,-3.155,-3.4979,-3.704,-3.8201,-3.8316,-3.8838,-3.946,-3.9711,-4.0067,-4.0389,-4.0472,-4.0489,-4.0489,-4.0489,-4.0489,-4.0489,-4.0489,-4.0543,-4.0592,-4.0713,-4.0836,-4.0887,-4.0722,-4.0737,-4.0727,-4.0556,-4.0492,-4.0485,-4.0508,-4.0489,-4.0473,-4.0372,-4.0023,-3.9668,-3.9438,-3.9073,-3.8646,-3.8201,-3.756,-3.702,-3.6643,-3.5968,-3.5328,-3.4795,-3.4795,-3.3793,0.0,0.0,0.0,0.0,0.0,0.0,0.0,0.0,0.0,0.0,0.0,0.0,0.0,0.0,0.0,0.0,0.0,0.0,0.0,0.0,0.0,0.0,0.0,0.0,0.0,0.0,0.844,0.889,0.6502,0.4821,0.4821,0.295,0.1612,0.1254,0.0449,0.0,0.0,0.0,0.0,0.0,0.0,0.0,0.0,0.0,0.0,0.0,0.0,0.0,0.0,-0.1254,-0.2413,-0.3659,-0.491,-0.6071,-0.7139,-0.7929,-0.9383,-1.1321,-1.4011,-1.5942,-1.7543,-1.9344,-2.0844,-2.2073,-2.3918,-2.7189,-3.1165,-3.47,-3.6496,-3.7345,-3.77,-3.8346,-3.8958,-3.9044,-3.9392,-3.9735,-3.989,-4.0024,-4.0135,-4.0319,-4.0422,-4.0489,-4.0489,-4.0489,-4.0543,-4.0677,-4.082,-4.0914,-4.0878,-4.0937,-4.0935,-4.0761,-4.0714,-4.0658,-4.0508,-4.0489,-4.0422,-4.023,-3.9842,-3.9505,-3.9301,-3.8931,-3.8627,-3.8433,-3.7667,-3.7114,-3.696,-3.5847,-3.5253,-3.5253,-3.5052,-3.4154,-3.2651,0.0,0.0,0.0,0.0,0.0,0.0,0.0,0.0,0.0,0.0,0.0,0.0,0.0,0.0,0.0,0.0,0.0,0.0,0.0,0.0,0.0,0.0,0.0,1.2143,0.9238,0.7537,0.8623,0.5695,0.357,0.357,0.2413,0.1254,0.009,0.0,0.0,0.0,0.0,0.0,0.0,0.0,0.0,0.0,0.0,0.0,0.0,0.0,0.0,0.0,-0.1255,-0.2413,-0.357,-0.4821,-0.5983,-0.7051,-0.7051,-0.7753,-0.9144,-1.2626,-1.3981,-1.4393,-1.7705,-1.8957,-1.9731,-2.511,-2.8516,-3.1016,-3.418,-3.5608,-3.6209,-3.7184,-3.7518,-3.7654,-3.7966,-3.8071,-3.821,-3.8682,-3.9039,-3.9381,-3.9945,-4.0267,-4.0454,-4.0489,-4.0489,-4.0527,-4.0677,-4.0735,-4.0834,-4.0984,-4.0996,-4.0969,-4.0838,-4.0757,0.0,-4.0508,-4.0489,-4.0266,-3.969,-3.9599,-3.9352,-3.8762,-3.8707,-3.8465,-3.7946,-3.747,-3.696,-3.6457,-3.5278,-3.4624,-3.4624,-3.3937,-3.3486,-3.3294,0.0,0.0,0.0,0.0,0.0,0.0,0.0,0.0,0.0,0.0,0.0,0.0,0.0,0.0,0.0,0.0,0.0,0.0,0.0,0.0,0.0,0.0,1.1889,1.1038,0.8752,0.6949,0.6419,0.4725,0.3215,0.2415,0.1165,0.0359,0.0,0.0,0.0,0.0,0.0,0.0,0.0,0.0,0.0,0.0,0.0,0.0,0.0,0.0,0.0,0.0,-0.0359,-0.1165,-0.2325,-0.3571,-0.473,-0.5894,-0.6782,-0.7316,-0.7921,-1.1321,-1.3193,-1.4309,-1.6822,-1.831,-1.9543,-2.3067,-2.5946,-2.8421,-3.0651,-3.2883,-3.4856,-3.5104,-3.5995,-3.6898,-3.7006,-3.7555,-3.821,-3.8682,-3.8637,-3.8664,-3.9524,-3.949,-3.9437,-4.0063,-4.0213,-4.0286,-4.0511,-4.0648,-4.0781,-4.0959,-4.1091,-4.1093,-4.0967,-4.0849,0.0,-4.0658,-4.0562,-4.0372,-4.0002,-3.9754,-3.9432,-3.9027,-3.8833,-3.8627,-3.8496,-3.7667,-3.7135,-3.6999,-3.5933,-3.5316,-3.5316,-3.4056,-3.3358,0.0,0.0,0.0,0.0,0.0,0.0,0.0,0.0,0.0,0.0,0.0,0.0,0.0,0.0,0.0,0.0,0.0,0.0,0.0,0.0,0.0,0.0,1.2974,1.0984,0.9269,0.7906,0.6694,0.5536,0.4821,0.366,0.1969,0.1165,0.0539,0.0,0.0,0.0,0.0,0.0,0.0,0.0,0.0,0.0,0.0,0.0,0.0,0.0,0.0,0.0,0.0,0.0,-0.0628,0.0,-0.3037,-0.4283,-0.5447,-0.6605,-0.7139,0.0,0.0,0.0,0.0,0.0,-1.7658,-1.9395,-2.2264,-2.453,-2.6526,-2.9083,-3.1328,-3.3121,-3.3361,-3.4339,-3.5343,-3.5343,-3.5739,-3.6303,-3.6773,-3.7023,-3.7386,-3.8422,-3.8747,-3.8995,-3.9719,-4.0002,-4.0157,-4.0342,-4.0563,0.0,-4.09,-4.1032,-4.1094,-4.1016,-4.0889,-4.0771,-4.0712,-4.0581,-4.0389,-4.012,-3.9797,-3.9462,-3.9125,-3.8855,0.0,0.0,0.0,-3.6869,-3.6146,-3.5504,0.0,0.0,0.0,-3.3709,-3.4267,0.0,0.0,0.0,-3.3746,-3.3811,0.0,0.0,0.0,0.0,0.0,0.0,0.0,0.0,0.0,0.0,0.0,0.0,0.0,0.0,0.0,0.0,1.1968,0.9831,0.7573,0.7228,0.6605,0.5356,0.5179,0.4287,0.179,0.1612,0.1165,0.009,0.0,0.0,0.0,0.0,0.0,0.0,0.0,0.0,0.0,0.0,0.0,0.0,0.0,0.0,0.0,0.0,-0.0628,-0.17,-0.3037,-0.4196,-0.5267,-0.6605,-0.7139,-0.7489,-0.9744,-1.0697,-1.1209,-1.4511,-1.6919,-1.8991,-2.1616,0.0,0.0,-2.8203,-3.0069,-3.1127,-3.1718,-3.2531,-3.3224,-3.3292,-3.3411,-3.3569,-3.4153,-3.4919,-3.5844,-3.688,-3.7781,-3.86,-3.9227,-3.9633,-3.9966,-4.0142,-4.0438,-4.0665,-4.0773,-4.0915,-4.0996,-4.0996,-4.0898,-4.0809,-4.0718,-4.06,-4.0408,-4.012,0.0,0.0,-3.9125,-3.8855,-3.8707,-3.8707,-3.7756,-3.6493,-3.4861,-3.4719,-3.4736,-3.4736,-3.4137,-3.4399,-3.5622,-3.5081,-3.5081,-3.556,-3.481,-3.4515,0.0,0.0,0.0,0.0,0.0,0.0,0.0,0.0,0.0,0.0,0.0,0.0,0.0,0.0,0.0,1.4192,1.2026,1.0096,0.8711,0.7753,0.6334,0.4194,0.3927,0.3038,0.0539,0.0359,0.0269,0.0,0.0,0.0,0.0,0.0,0.0,0.0,0.0,0.0,0.0,0.0,0.0,0.0,0.0,0.0,0.0,0.0,-0.009,-0.0449,-0.2681,-0.3748,-0.4105,-0.6245,-0.7665,-0.8715,-1.0091,-1.1123,-1.2237,-1.4768,-1.5944,-1.6503,-1.7983,-2.0655,-2.3632,-2.4284,-2.6775,-2.9462,-2.9619,-3.0141,0.0,-3.157,-3.2112,-3.2804,-3.3991,-3.4186,-3.4266,-3.53,-3.5818,-3.6379,-3.7573,-3.832,-3.9003,-3.9946,-4.0177,-4.0326,-4.0665,-4.0877,-4.0996,-4.0996,-4.0975,-4.0916,-4.0805,-4.0716,-4.0504,-4.0139,-3.9797,-3.9462,-3.9125,-3.8855,-3.8707,-3.8707,-3.7756,-3.6865,-3.6088,-3.5661,-3.5407,-3.5407,-3.527,-3.5316,-3.5622,-3.5907,-3.5907,-3.5622,-3.6295,-3.617,0.0,0.0,0.0,0.0,0.0,0.0,0.0,0.0,0.0,0.0,0.0,1.9284,1.8162,0.0,1.5108,1.3406,1.1712,1.0183,0.9061,0.7841,0.6425,0.473,0.3927,0.2858,0.1076,0.0359,0.0,0.0,0.0,0.0,0.0,0.0,0.0,0.0,0.0,0.0,0.0,0.0,0.0,0.0,0.0,0.0,0.0,0.0,-0.0359,-0.0986,-0.2771,-0.3927,-0.4641,-0.6425,-0.7489,-0.8101,-0.9318,-1.0778,-1.2498,-1.4294,-1.5213,-1.5861,-1.6879,-1.9247,-2.1881,-2.239,-2.4484,-2.6969,-2.7486,-2.8136,-2.8955,-2.9883,-3.0734,-3.1441,-3.2105,-3.2701,-3.3292,-3.4039,-3.4532,-3.5188,-3.6464,-3.7359,-3.8169,-3.9081,-3.9716,-4.0158,-4.0363,-4.0641,-4.0883,-4.0975,-4.0937,-4.0876,-4.0798,-4.0737,-4.0592,-4.0321,-3.9882,-3.9529,-3.9364,-3.8942,-3.8596,-3.8318,-3.7596,-3.696,-3.6416,-3.5898,-3.5622,-3.5622,-3.5622,-3.5622,-3.5622,-3.5854,-3.5854,-3.5622,-3.6706,-3.6764,0.0,0.0,0.0,0.0,0.0,0.0,0.0,2.3738,2.2783,2.159,1.982,1.8179,1.7146,1.607,1.4615,1.2322,1.1209,1.0096,0.8711,0.7753,0.6782,0.5805,0.4461,0.3037,0.1612,0.0539,0.0,0.0,0.0,0.0,0.0,0.0,0.0,0.0,0.0,0.0,0.0,0.0,0.0,0.0,0.0,0.0,0.0,0.0,-0.0628,-0.1879,-0.3304,-0.4641,-0.5802,-0.6694,-0.7139,-0.7228,-0.8711,-1.0178,-1.1815,-1.3209,-1.4475,-1.553,-1.6285,-1.8108,-2.0169,-2.0801,-2.2581,-2.4685,-2.5247,-2.6052,-2.6917,-2.7931,-2.8666,-2.9282,-2.942,-3.069,-3.1952,-3.2315,-3.3208,-3.4233,-3.5331,-3.6234,-3.7059,-3.7903,-3.8883,-3.9643,-3.9906,-4.0307,-4.0662,-4.0929,-4.0894,-4.0845,-4.0846,-4.0765,-4.0677,-4.0562,-4.0043,-3.9645,-3.951,-3.9008,-3.8465,-3.7928,-3.747,-3.696,-3.6416,-3.5749,-3.5407,-3.5407,-3.527,-3.5207,-3.5207,-3.5436,-3.5498,-3.5453,-3.6626,-3.6882,2.8363,2.6761,2.5545,2.5346,2.4541,2.3565,0.0,2.2242,2.1628,1.9709,1.8364,1.7155,1.6093,1.497,1.3555,1.1214,1.0697,0.9831,0.7573,0.7228,0.7051,0.6962,0.4907,0.2681,0.0449,0.009,0.0,0.0,0.0,0.0,0.0,0.0,0.0,0.0,0.0,0.0,0.0,0.0,0.0,0.0,0.0,0.0,0.0,0.0,-0.0628,-0.1969,-0.4198,-0.5891,-0.6962,-0.7051,-0.7139,-0.7312,-0.9575,-0.9923,-0.9579,-1.1729,-1.3288,-1.4334,-1.4405,-1.6456,-1.8873,-1.7994,-2.0409,-2.3481,-2.2635,-2.311,-2.4112,-2.5025,-2.5338,-2.5591,-2.6346,-2.7887,-2.9232,-2.9313,-3.1068,-3.2924,-3.3494,-3.4167,-3.5053,-3.6529,-3.7284,-3.8058,-3.9209,-3.9829,-4.0325,-4.0766,-4.0908,-4.0984,-4.099,-4.0862,-4.0754,-4.0696,-4.0308,-3.9797,-3.9231,-3.8884,-3.8465,-3.7928,-3.747,-3.696,-3.6416,-3.5323,-3.4736,-3.4736,-3.4137,-3.3836,-3.3836,-3.4918,-3.5165,-3.4736,-3.6411,-3.6684,2.7499,2.5566,2.412,2.412,2.3368,2.2553,2.2103,2.1552,2.0459,1.8452,1.7172,1.6034,1.4977,1.4412,1.3561,1.1901,1.1037,1.0005,0.836,0.7577,0.6874,0.616,0.5267,0.4018,0.2236,0.0807,0.0,0.0,0.0,0.0,0.0,0.0,0.0,0.0,0.0,0.0,0.0,0.0,0.0,0.0,0.0,-0.0359,-0.1076,-0.1076,-0.2058,-0.402,-0.5622,-0.6694,-0.7139,-0.7139,-0.7139,-0.7228,-0.8181,-0.8707,-0.9235,-1.2254,-1.3209,-1.3118,-1.3822,-1.5365,-1.6936,-1.6464,-1.8382,-2.0767,-2.0284,-2.1308,-2.2669,-2.2992,-2.3913,-2.4849,-2.5232,-2.6291,-2.7354,-2.794,-2.9232,-3.0719,-3.19,-3.2982,-3.4136,-3.56,-3.6468,-3.7368,-3.8779,-3.9373,-3.9888,-4.063,-4.082,-4.0889,-4.0881,-4.082,-4.0623,-4.012,-3.992,-3.9548,-3.8923,-3.8762,-3.8578,-3.8382,-3.7253,-3.6469,-3.6225,-3.4808,-3.4037,-3.4037,-3.3735,-3.3582,-3.3582,-3.4478,-3.4828,-3.4624,-3.6053,-3.6333,2.6468,2.4779,2.3441,2.3147,2.2328,2.1593,2.1593,2.1028,1.9925,1.8132,1.6927,1.5786,1.4734,1.4334,1.3561,1.2072,1.1123,1.0091,0.8623,0.7665,0.6786,0.5983,0.5625,0.4912,0.3748,0.1701,0.0359,0.0,0.0,0.0,0.0,0.0,0.0,0.0,0.0,0.0,0.0,0.0,0.0,0.0,0.0,-0.0449,-0.1344,-0.1969,-0.3395,-0.5447,-0.6605,-0.7139,-0.7139,-0.7139,-0.7139,-0.7139,-0.7492,-0.7929,-0.8798,-1.1997,-1.2772,-1.2498,-1.3646,-1.4817,-1.5613,-1.5379,-1.6764,-1.8461,-1.8054,-1.9478,-2.1171,-2.109,-2.2339,-2.367,-2.367,-2.4449,-2.5505,-2.6168,-2.7394,-2.8781,-2.9978,-3.1407,-3.284,-3.4056,-3.5169,-3.64,-3.7744,-3.8643,-3.9422,-4.0194,-4.0584,-4.0811,-4.0856,-4.0818,-4.0552,-3.9906,-3.9712,-3.9408,-3.8998,-3.8792,-3.8627,-3.8496,-3.718,-3.6354,-3.6191,-3.4508,-3.3582,-3.3582,-3.3235,-3.313,-3.3339,-3.3987,-3.4431,-3.4624,-3.5715,-3.5985,2.5288,2.4264,2.3294,2.2253,2.1375,2.0644,2.0644,2.0644,2.0313,1.9195,1.8069,1.6927,1.5869,1.4817,1.33,1.1042,1.0611,0.9831,0.7489,0.7139,0.7051,0.7051,0.6071,0.4912,0.0,0.2503,0.1254,0.009,0.0,0.0,0.0,0.0,0.0,0.0,0.0,0.0,0.0,0.0,0.0,0.0,0.0,0.0,-0.009,-0.2503,-0.4196,-0.5447,-0.6605,-0.7139,-0.7139,-0.7139,-0.7139,-0.7228,-0.8364,-0.8193,-0.7401,-0.9831,-1.1381,-1.2498,-1.3646,-1.4817,-1.5538,-1.4496,-1.5636,-1.7172,-1.6108,-1.7326,-1.9116,-1.9116,-1.9904,-2.0712,-2.0712,-2.2018,-2.3385,-2.3446,-2.5541,-2.7564,-2.7616,-2.9066,-3.0585,-3.1315,-3.3018,-3.4697,-3.5721,-3.7515,-3.8957,-3.9297,-4.0176,-4.0849,-4.0972,-4.0873,-4.0716,-4.0492,-3.9945,-3.9599,-3.9576,-3.9036,-3.8465,-3.7946,-3.747,-3.6943,-3.6416,-3.4574,-3.3582,-3.3582,-3.2256,-3.191,-3.2641,-3.3287,-3.3987,-3.464,-3.5299,-3.5622,2.53,2.4264,2.3294,2.2253,2.1298,2.0566,2.0566,2.0566,2.0323,1.9204,1.8709,1.8069,1.7009,1.5869,1.4699,1.3146,1.1621,1.0091,0.8536,0.7577,0.7139,0.7139,0.6782,0.0,0.0,0.0,0.0,0.009,0.0,0.0,0.0,0.0,0.0,0.0,0.0,0.0,0.0,0.0,0.0,0.0,-0.0807,-0.1165,-0.1254,-0.3664,-0.5001,-0.5447,-0.6605,-0.7139,-0.7139,-0.7139,-0.7139,-0.7139,-0.7577,-0.7489,-0.7312,-0.8882,-0.9753,-1.0183,-1.1391,-1.2492,-1.3341,-1.3021,-1.4441,-1.6034,-1.4977,-1.6116,-1.7738,-1.7001,-1.8132,-1.952,-1.952,-2.0498,-2.1683,-2.2264,-2.408,-2.589,-2.6566,-2.8589,-3.048,-3.1157,-3.2654,-3.4266,-3.5555,-3.7214,-3.879,-4.0101,-4.0577,-4.0843,-4.097,-4.0888,-4.0677,-4.0335,-3.9869,-3.9529,-3.9289,-3.8913,-3.8627,-3.8433,-3.7198,-3.6394,-3.6208,-3.4508,-3.3391,-3.2949,-3.2933,-3.2571,-3.1853,-3.3479,-3.4137,-3.3987,-3.5068,-3.5622,2.485,2.3963,2.3147,2.1811,2.1078,2.0566,2.0566,2.0566,2.0323,1.9204,1.9036,1.863,1.7496,1.6437,1.535,1.4156,1.2468,1.0697,0.9152,0.8189,0.7577,0.7139,0.7139,0.6157,0.0,0.0,0.0,0.009,0.0,0.0,0.0,0.0,0.0,0.0,0.0,0.0,0.0,0.0,0.0,0.0,-0.0807,-0.1344,-0.1879,-0.3396,-0.4556,-0.5447,-0.616,-0.6694,-0.7139,-0.7139,-0.7139,-0.7139,-0.7139,-0.7139,-0.7228,-0.7929,-0.8277,-0.8452,-1.0091,-1.1037,-1.1724,-1.1724,-1.265,-1.384,-1.3542,-1.4692,-1.6085,-1.5779,-1.7001,-1.839,-1.839,-1.9195,-2.0148,-2.0807,-2.2392,-2.4054,-2.5097,-2.7433,-2.9529,-3.0319,-3.2158,-3.389,-3.4863,-3.6717,-3.8691,-4.0528,-4.0796,-4.0827,-4.0928,-4.0846,-4.064,-4.02,-3.9827,-3.9462,-3.9125,-3.8855,-3.8627,-3.8433,-3.7198,-3.6411,-3.6225,-3.4761,-3.3735,-3.3339,-3.3287,-3.3024,-3.2594,-3.3719,-3.4284,-3.435,-3.5207,-3.5622,2.4108,2.3514,2.2999,2.1155,2.0644,2.0566,2.0566,2.0566,2.0323,1.9274,1.9116,1.8709,1.7658,1.6519,1.5433,1.4316,1.3068,1.1466,0.9323,0.889,0.8364,0.7228,0.7139,0.6245,0.3927,0.3659,0.0,0.0269,0.0,0.0,0.0,0.0,0.0,0.0,0.0,0.0,0.0,0.0,0.0,0.0,0.0,-0.0628,-0.1701,-0.179,-0.304,-0.527,-0.5359,-0.6071,-0.7139,-0.7139,-0.7139,-0.7139,-0.7139,-0.7139,-0.7139,-0.7139,-0.7139,-0.7401,-0.9657,-1.0438,-1.0524,-1.0524,-1.0524,-1.0783,-1.1895,-1.2983,-1.4072,-1.5101,-1.6183,-1.7082,-1.7082,-1.798,-1.8868,-1.8957,-2.0498,-2.2178,-2.322,-2.5514,-2.7734,-2.8707,-3.1456,-3.3633,-3.3772,-3.6204,-3.8691,-4.0528,-4.0807,-4.0805,-4.0818,-4.0805,-4.0621,-4.0157,-3.9797,-3.9462,-3.9125,-3.8826,-3.8433,-3.7946,-3.7433,-3.6921,-3.6416,-3.5278,-3.464,-3.4576,-3.3391,-3.3339,-3.4528,-3.3987,-3.435,-3.556,-3.5577,-3.5622,2.4779,2.3514,2.2253,2.1735,2.1155,2.0566,2.0566,2.0566,2.0489,2.0245,2.0157,2.0079,1.9835,1.8221,1.6764,1.6495,1.3393,1.0869,1.0265,0.8619,0.7401,0.7139,0.7139,0.6514,0.509,0.4912,0.0,0.0,0.0539,0.0,0.0,0.0,0.0,0.0,0.0,0.0,0.0,0.0,0.0,0.0,0.0,-0.018,-0.0449,-0.1433,-0.2592,-0.4105,-0.5001,-0.6071,-0.7139,-0.7139,-0.7139,-0.7139,-0.7139,-0.7139,-0.7139,-0.7139,-0.7139,-0.7228,-0.7749,-0.8623,-0.9323,-0.9323,-0.9923,-1.0611,-1.0956,-1.1203,-1.1541,-1.1798,-1.2693,-1.3677,-1.4643,-1.5621,-1.692,-1.8612,-1.9934,-2.1064,-2.2167,-2.4637,-2.6848,-2.7748,-3.0994,-3.4314,-3.6569,-3.7588,-3.8691,-4.0528,-4.0762,-4.0773,-4.0931,-4.0861,-4.0654,-4.0233,-3.9829,-3.9462,-3.9125,-3.8493,-3.8065,-3.7893,-3.7079,-3.6539,-3.6433,-3.5749,-3.5098,-3.4624,-3.4752,-3.4496,-3.3836,-3.4704,-3.5005,-3.4894,-3.5362,-3.5622,2.4552,2.3514,2.2478,2.1593,2.1011,2.0566,2.0566,2.0566,2.0566,2.0566,2.0566,2.0566,2.0566,1.8789,1.7342,1.7342,1.442,1.174,1.0783,0.9483,0.8269,0.7228,0.7139,0.6694,0.5536,0.5359,0.4643,0.0,0.1433,0.0539,0.0,0.0,0.0,0.0,0.0,0.0,0.0,0.0,0.0,0.0,0.0,0.0,0.0,-0.0718,-0.1969,-0.3659,0.0,-0.5534,-0.7139,-0.7139,-0.7139,-0.7139,-0.7139,-0.7139,-0.7139,-0.7139,-0.7139,-0.7139,-0.7139,-0.7577,-0.8105,-0.8105,-0.8536,-0.9139,-0.9662,-0.9836,-0.9923,-1.0438,-1.1016,-1.1679,-1.2292,-1.3703,-1.5359,-1.7098,-1.8638,-2.0159,-2.1638,-2.3933,-2.6324,-2.8691,-3.155,-3.4345,-3.668,-3.7653,-3.8598,-4.0051,-4.0526,-4.0778,-4.0891,-4.0812,-4.055,-3.9992,-3.9724,-3.9408,-3.8961,-3.8291,-3.7825,-3.7614,-3.6825,-3.6291,-3.6054,-3.5783,-3.5407,-3.5052,-3.5098,-3.4958,-3.4496,-3.4657,-3.4847,-3.5052,-3.5098,-3.5316,2.4181,2.3514,2.2925,2.1231,2.0712,2.0566,2.0566,2.0566,2.0566,2.0566,2.0566,2.0566,2.0566,1.8948,1.7504,1.7334,1.5462,1.3288,1.0956,1.0438,0.957,0.7401,0.7139,0.6694,0.5714,0.5625,0.5087,0.3927,0.286,0.1701,0.0269,0.009,0.0,0.0,0.0,0.0,0.0,0.0,0.0,0.0,0.0,0.0,0.0,0.0,-0.1254,-0.3393,0.0,0.0,-0.6874,-0.7051,-0.7139,-0.7139,-0.7139,-0.7139,-0.7139,-0.7139,-0.7139,-0.7139,-0.7139,-0.7139,-0.7139,-0.7139,-0.7139,-0.7316,-0.8364,-0.8627,-0.8886,-0.9831,-1.0178,-1.0178,-1.0351,-1.1958,-1.3884,-1.5097,-1.7106,-1.9256,-2.1181,-2.3256,-2.6033,-3.0129,-3.2292,-3.3958,-3.5513,-3.7076,-3.8449,-3.944,-4.0272,-4.0787,-4.0784,-4.0716,-4.0404,-3.9687,-3.9552,-3.9282,-3.867,-3.8117,-3.7614,-3.7097,-3.6603,-3.6097,-3.5622,-3.5622,-3.5622,-3.5622,-3.5052,-3.4988,-3.547,-3.4399,-3.4399,-3.547,-3.4941,-3.5052,2.4862,2.3514,2.2178,2.1811,2.1155,2.0566,2.0566,2.0566,2.0566,2.0566,2.0566,2.0566,2.0566,1.9599,1.839,1.7423,1.5418,1.3237,1.095,0.9749,0.8711,0.7228,0.7139,0.7051,0.6782,0.6782,0.0,0.0,0.0,0.3842,0.1612,0.0539,0.0,0.0,0.0,0.0,0.0,0.0,0.0,0.0,0.0,0.0,0.0,0.0,-0.0807,-0.2147,-0.3126,0.0,-0.5805,-0.6694,-0.7139,-0.7139,-0.7139,-0.7139,-0.7139,-0.7139,-0.7139,-0.7139,-0.7139,-0.7139,-0.7139,-0.7139,-0.7139,-0.7139,-0.7312,-0.7404,-0.7489,-0.7661,-0.7749,-0.7921,-0.8973,-1.0178,-1.1707,-1.38,-1.598,-1.798,-1.9256,-2.2339,-2.5623,-2.8491,-3.0962,-3.3195,-3.5437,-3.7076,-3.8404,-3.9382,-4.0189,-4.0726,-4.0713,-4.0566,-4.023,-3.966,-3.9339,-3.8887,-3.8114,-3.7578,-3.7097,-3.6563,-3.6054,-3.5694,-3.5622,-3.5622,-3.5622,-3.5622,-3.547,-3.5207,-3.4783,-3.5115,-3.5098,-3.4783,-3.5207,-3.547,2.5158,2.3891,2.2627,2.2103,2.1298,2.0566,2.0566,2.0566,2.0566,2.0566,2.0566,2.0566,2.0566,1.9678,1.8638,1.7496,1.5921,1.3904,1.1031,1.0096,0.9144,0.7316,0.7139,0.7139,0.7139,0.7139,0.6874,0.6337,0.0,0.4376,0.1969,0.0628,0.0,0.0,0.0,0.0,0.0,0.0,0.0,0.0,0.0,0.0,0.0,0.0,-0.0628,-0.1879,-0.3037,0.0,-0.5447,-0.6605,-0.7139,-0.7139,-0.7139,-0.7139,-0.7139,-0.7139,-0.7139,-0.7139,-0.7139,-0.7139,-0.7139,-0.7139,-0.7139,-0.7139,-0.7139,-0.7139,-0.7139,-0.7139,-0.7139,-0.7228,-0.7841,-0.8798,-1.0255,-1.2517,-1.5696,-1.8621,-2.0178,-2.2794,-2.544,-2.7601,-3.0057,-3.24,-3.4341,-3.6253,-3.7871,-3.8688,-3.9923,-4.074,-4.0703,-4.0513,-4.0174,-3.9664,-3.9289,-3.8877,-3.8364,-3.7632,-3.7097,-3.6843,-3.6054,-3.5622,-3.5622,-3.5622,-3.5622,-3.5622,-3.5253,-3.4941,-3.4576,-3.4592,-3.4592,-3.4624,-3.4941,-3.527,2.5523,2.4552,2.3599,2.2553,2.1593,2.0857,2.0644,2.0566,2.0566,2.0566,2.0566,2.0566,2.0566,1.9923,1.8957,1.7827,1.6764,1.4837,1.1445,1.0773,0.9744,0.7401,0.7139,0.7139,0.7139,0.7139,0.0,0.7139,0.0,0.0,0.1969,0.0897,0.0269,0.0,0.0,0.0,0.0,0.0,0.0,0.0,0.0,0.0,0.0,0.0,-0.0539,-0.1523,-0.2681,0.0,0.0,-0.6248,-0.6874,-0.7139,-0.7139,-0.7139,-0.7139,-0.7139,-0.7139,-0.7139,-0.7139,-0.7139,-0.7139,-0.7139,-0.7139,-0.7139,-0.7139,-0.7139,-0.7139,-0.7139,-0.7139,-0.7139,-0.7139,-0.8017,-0.9566,-1.2318,-1.5837,-1.9177,-2.1278,-2.3216,-2.5071,-2.6865,-2.9251,-3.157,-3.3292,-3.5559,-3.7371,-3.8052,-3.9678,-4.0779,-4.0667,-4.0497,-4.0189,-3.9668,-3.9289,-3.8952,-3.8559,-3.7808,-3.7248,-3.702,-3.6249,-3.5739,-3.5622,-3.547,-3.5362,-3.5362,-3.4752,-3.4382,-3.4382,-3.3987,-3.4087,-3.4576,-3.4736,-3.5098,2.6383,2.5652,2.4636,2.3588,2.2627,2.1669,2.0789,2.0566,2.0566,2.0566,2.0566,2.0566,2.0566,2.0489,2.0079,1.9036,1.7908,1.5973,1.2493,1.1177,0.9744,0.7401,0.7139,0.7139,0.7139,0.7139,0.7139,0.0,0.0,0.0,0.1969,0.1701,0.1165,0.0,0.0,0.0,0.0,0.0,0.0,0.0,0.0,0.0,0.0,0.0,-0.009,-0.0269,-0.1433,0.0,0.0,-0.5087,-0.616,-0.7139,-0.7139,-0.7139,-0.7139,-0.7139,-0.7139,-0.7139,-0.7139,-0.7139,-0.7139,-0.7139,-0.7139,-0.7139,-0.7139,-0.7139,-0.7139,-0.7139,-0.7139,-0.7139,-0.7139,-0.8017,-0.999,-1.4248,-1.6366,-1.806,-2.0226,-2.2253,-2.416,-2.5872,-2.8356,-3.085,-3.3224,-3.5559,-3.7334,-3.801,-3.9646,-4.0723,-4.0544,-4.0441,-4.0189,-3.9668,-3.9289,-3.8802,-3.8047,-3.7911,-3.7452,-3.6539,-3.6374,-3.6097,-3.5622,-3.5005,-3.4688,-3.4688,-3.4037,-3.3684,-3.3684,-3.4235,-3.4528,-3.4624,-3.5207,-3.5515,2.6533,2.5734,2.4779,2.3745,2.2776,2.1735,2.0789,2.0566,2.0566,2.0566,2.0566,2.0566,2.0566,2.0566,2.0001,1.823,1.7585,1.616,1.2705,1.1284,1.0005,0.8364,0.7577,0.7139,0.0,0.0,0.7139,0.0,0.0,0.0,0.3037,0.2236,0.1254,0.0,0.0,0.0,0.0,0.0,0.0,0.0,0.0,0.0,0.0,0.0,0.0,-0.009,-0.1254,0.0,0.0,-0.491,-0.6071,-0.7139,-0.7139,-0.7139,-0.7139,-0.7139,-0.7139,-0.7139,-0.7139,-0.7139,-0.7139,-0.7139,-0.7139,-0.7139,-0.7139,-0.7139,-0.7139,-0.7139,-0.7139,-0.7139,-0.7139,-0.8532,-1.0509,-1.2993,-1.5449,-1.7738,-1.9274,-2.1638,-2.4028,-2.5735,-2.7862,-3.0276,-3.3119,-3.5198,-3.6804,-3.7937,-3.9643,-4.0723,-4.0523,-4.0586,-4.0362,-3.9668,-3.9289,-3.8906,-3.8428,-3.8099,-3.772,-3.7342,-3.6746,-3.6291,-3.6097,-3.5157,-3.4576,-3.4576,-3.3937,-3.3582,-3.3582,-3.4284,-3.4576,-3.464,-3.5316,-3.5622,2.6533,2.5955,2.5146,2.3818,2.2999,2.2113,2.0857,2.0566,2.0566,2.0566,2.0566,2.0566,2.0566,2.0566,2.0001,1.8141,1.7504,1.625,1.3237,1.1804,1.0524,0.9065,0.8193,0.7489,0.0,0.7139,0.0,0.0,0.0,0.0,0.0,0.2949,0.1612,0.009,0.0,0.0,0.0,0.0,0.0,0.0,0.0,0.0,0.0,0.0,0.0,-0.009,0.0,0.0,0.0,-0.4552,-0.5711,-0.7139,-0.7139,-0.7139,-0.7139,-0.7139,-0.7139,-0.7139,-0.7139,-0.7139,-0.7139,-0.7139,-0.7139,-0.7139,-0.7139,-0.7139,-0.7139,-0.7139,-0.7139,-0.7139,-0.7139,-0.8619,-1.0423,-1.1821,-1.4511,-1.722,-1.8709,-2.1171,-2.3654,-2.5735,-2.7433,-2.9596,-3.2998,-3.4871,-3.6398,-3.7903,-3.9573,-4.0645,-4.0562,-4.0703,-4.0494,-3.9687,-3.9389,-3.909,-3.8719,-3.8332,-3.8032,-3.772,-3.702,-3.6481,-3.6182,-3.4955,-3.4382,-3.4592,-3.3735,-3.3495,-3.3887,-3.4382,-3.4688,-3.4894,-3.5362,-3.5622,2.6533,2.6465,2.6013,2.4036,2.3514,2.2999,2.1011,2.0566,2.0566,2.0566,2.0566,2.0566,2.0566,2.0566,2.0245,1.9195,1.8069,1.6495,1.4316,1.299,1.1466,0.9148,0.889,0.8452,0.7228,0.7139,0.0,0.0,0.0,0.0,0.0,0.4196,0.2503,0.009,0.0,0.0,0.0,0.0,0.0,0.0,0.0,0.0,0.0,0.0,0.0,0.0,0.0,0.0,0.0,-0.357,-0.4994,-0.7139,-0.7139,-0.7139,-0.7139,-0.7139,-0.7139,-0.7139,-0.7139,-0.7139,-0.7139,-0.7139,-0.7139,-0.7139,-0.7139,-0.7139,-0.7139,-0.7139,-0.7139,-0.7139,-0.7139,-0.8017,-0.9483,-1.1651,-1.3985,-1.6254,-1.8532,-2.0575,-2.2848,-2.5586,-2.684,-2.8837,-3.2914,-3.4684,-3.6186,-3.7954,-3.9467,-4.0479,-4.0679,-4.0761,-4.0494,-3.9687,-3.9599,-3.9352,-3.875,-3.8707,-3.8285,-3.7266,-3.719,-3.6724,-3.565,-3.4301,-3.3937,-3.4576,-3.3287,-3.3235,-3.4576,-3.4592,-3.4941,-3.5577,-3.5622,-3.5622,2.6533,2.6025,2.5146,2.3806,2.2999,2.2188,2.0867,2.0566,2.0566,2.0566,2.0566,2.0566,2.0566,2.0566,2.0001,1.8149,1.7504,1.6519,1.4384,1.2413,1.0869,1.0183,0.8619,0.7492,0.0,0.0,0.0,0.0,0.0,0.0,0.0,0.5001,0.3751,0.1344,0.0449,0.0,0.0,0.0,0.0,0.0,0.0,0.0,0.0,0.0,0.0,0.0,0.0,0.0,0.0,-0.3304,-0.4552,-0.5983,-0.6786,-0.7139,-0.7139,-0.7139,-0.7139,-0.7139,-0.7139,-0.7139,-0.7139,-0.7139,-0.7139,-0.7139,-0.7139,-0.7139,-0.7139,-0.7139,-0.7139,-0.7139,-0.7139,-0.8532,-1.0265,-1.093,-1.4032,-1.6976,-1.7658,-2.0003,-2.2648,-2.4755,-2.6464,-2.8587,-3.209,-3.4309,-3.6162,-3.7874,-3.9433,-4.0451,-4.0544,-4.0703,-4.0494,-3.9687,-3.9599,-3.9352,-3.875,-3.8707,-3.8401,-3.772,-3.736,-3.6865,-3.6182,-3.4955,-3.4382,-3.4592,-3.4186,-3.4186,-3.4576,-3.5052,-3.5407,-3.5622,-3.5622,-3.5622,2.6589,2.6025,2.5217,2.3818,2.2999,2.2253,2.0934,2.0566,2.0566,2.0566,2.0566,2.0566,2.0566,2.0566,2.0001,1.823,1.7585,1.669,1.4985,1.2668,1.0956,1.0096,0.0,0.0,0.0,0.0,0.0,0.0,0.0,0.0,0.0,0.5625,0.4734,0.3217,0.1523,0.0449,0.0,0.0,0.0,0.0,0.0,0.0,0.0,0.0,0.0,0.0,0.0,0.0,0.0,-0.2592,-0.3929,-0.5447,-0.616,-0.6694,-0.7139,-0.7139,-0.7139,-0.7139,-0.7139,-0.6782,-0.6517,-0.6962,-0.6782,-0.6517,-0.6962,-0.7139,-0.7139,-0.7139,-0.7139,-0.7139,-0.7139,-0.8532,-1.0096,-1.0524,-1.371,-1.6806,-1.7253,-1.9474,-2.2211,-2.4813,-2.6168,-2.8216,-3.2129,-3.4355,-3.6186,-3.788,-3.9425,-4.0432,-4.0565,-4.0704,-4.0494,-3.9687,-3.9599,-3.9352,-3.875,-3.8707,-3.8401,-3.7685,-3.736,-3.6865,-3.6139,-3.514,-3.4736,-3.4988,-3.4736,-3.4736,-3.4988,-3.5424,-3.5622,-3.5622,-3.5622,-3.5622,0.0,2.6465,2.5943,2.4108,2.3514,2.2925,2.1078,2.0644,0.0,2.0566,2.0566,2.0566,2.0566,2.0566,2.0245,1.9195,1.8069,1.6927,1.5861,1.3672,1.1381,0.0,0.7925,0.0,0.0,0.0,0.0,0.0,0.0,0.0,0.0,0.6071,0.5447,0.5359,0.3218,0.1433,0.018,0.0,0.0,0.0,0.0,0.0,0.0,0.0,0.0,0.0,0.0,0.0,0.0,-0.1879,-0.3306,-0.5447,-0.5447,-0.616,-0.7139,-0.7139,-0.7139,-0.7139,-0.7139,-0.634,-0.5536,-0.6605,-0.6337,-0.5714,-0.6782,-0.7051,-0.6962,-0.7051,-0.7139,-0.7139,-0.7139,-0.8013,-0.9323,-1.0351,-1.3193,-1.5934,-1.7074,-1.9027,-2.1673,-2.531,-2.6118,-2.7739,-3.2729,-3.4684,-3.6186,-3.7966,-3.9474,-4.0463,-4.0667,-4.0757,-4.0494,-3.9687,-3.9599,-3.9352,-3.875,-3.8707,-3.8285,-3.7248,-3.719,-3.6706,-3.565,-3.4988,-3.4941,-3.5577,-3.5005,-3.4988,-3.5622,-3.5622,-3.5622,-3.5622,-3.5622,-3.5622,2.6521,0.0,2.5229,2.4779,2.3514,2.2253,0.0,2.1155,2.0566,2.0566,2.0566,2.0566,2.0566,2.0566,2.0245,1.9195,1.8069,1.6927,1.5861,1.2983,0.0,1.0265,0.8356,0.7489,0.0,0.0,0.0,0.0,0.0,0.0,0.0,0.6874,0.6337,0.5447,0.4823,0.3575,0.1433,0.0449,0.0,0.0,0.0,0.0,0.0,0.0,0.0,0.0,0.0,0.0,-0.1879,-0.2769,-0.4018,-0.5447,-0.634,-0.6874,-0.7139,-0.7139,-0.7139,-0.7139,-0.7139,-0.634,-0.5447,-0.5714,-0.6248,-0.6782,-0.7051,-0.6517,-0.5983,-0.6874,-0.7139,-0.7139,-0.7139,-0.8619,-1.0269,-1.0524,-1.3224,-1.6003,-1.709,-1.8982,-2.1394,-2.446,-2.6249,-2.8477,-3.2531,-3.4533,-3.6319,-3.8338,-3.9646,-4.0454,-4.0525,-4.0704,-4.0494,-3.9687,-3.9599,-3.9352,-3.875,-3.8707,-3.8285,-3.7248,-3.719,-3.6706,-3.565,-3.547,-3.5424,-3.5622,-3.547,-3.5453,-3.5622,-3.5622,-3.5622,-3.5622,-3.5622,-3.5622,2.6589,2.6094,2.5594,2.5087,2.3818,2.2553,2.2103,2.1298,2.0566,2.0566,2.0566,2.0566,2.0566,2.0167,1.9844,1.9766,1.798,1.6018,0.0,0.0,1.095,0.9923,0.8711,0.0,0.0,0.0,0.0,0.0,0.0,0.0,0.0,0.7139,0.6782,0.616,0.5714,0.4198,0.179,0.1165,0.0539,0.0,0.0,0.0,0.0,0.0,0.0,0.0,0.0,0.0,-0.1879,-0.3126,-0.4285,-0.5447,-0.6071,-0.6605,-0.7139,-0.7139,-0.7139,-0.7051,-0.6517,-0.5894,-0.527,-0.4732,-0.5356,-0.6337,-0.6337,-0.5894,-0.5625,-0.6782,-0.7139,-0.7228,-0.7753,-0.9226,-1.0697,-1.13,-1.3581,-1.6026,-1.709,-1.8964,-2.1363,-2.4789,-2.6531,-2.8802,-3.293,-3.483,-3.6487,-3.8575,-3.9863,-4.0588,-4.0598,-4.0621,-4.0346,-3.9683,-3.9462,-3.9197,-3.875,-3.8465,-3.8117,-3.7542,-3.7097,-3.6563,-3.5985,-3.5739,-3.5622,-3.5622,-3.5622,-3.5739,-3.5985,-3.5985,-3.6097,-3.6316,-3.6097,-3.5985,2.6714,2.6383,2.6094,2.537,2.448,2.3441,2.2478,2.1527,2.0789,2.0644,2.0566,2.0566,2.0401,1.9766,1.952,2.0235,1.7891,0.0,1.2923,1.2413,1.1643,0.9927,0.941,0.0,0.0,0.0,0.0,0.0,0.0,0.0,0.0,0.7139,0.7139,0.7139,0.616,0.4554,0.2415,0.1969,0.1165,0.0,0.0,0.0,0.0,0.0,0.0,0.0,0.0,0.0,-0.2147,-0.3393,-0.4552,-0.5625,-0.5625,-0.6248,-0.7139,-0.7139,-0.7139,-0.6874,-0.5625,-0.5359,-0.5359,-0.3838,-0.4374,-0.5625,-0.5447,-0.5536,-0.5894,-0.6871,-0.7228,-0.7577,-0.8627,-0.9836,-1.1123,-1.2072,-1.3931,-1.5786,-1.7009,-1.8955,-2.1538,-2.5343,-2.7091,-2.928,-3.3664,-3.5387,-3.6825,-3.8835,-4.0072,-4.0768,-4.0719,-4.0519,-4.0193,-3.9656,-3.9289,-3.8999,-3.8719,-3.815,-3.7825,-3.7911,-3.6943,-3.6374,-3.6266,-3.5854,-3.5622,-3.5622,-3.5694,-3.5941,-3.6374,-3.6498,-3.6724,-3.7076,-3.6603,-3.635,2.6714,2.5886,2.537,2.6094,2.5511,2.4492,2.3514,2.2478,2.1593,2.0789,2.0566,2.0323,1.9441,1.9835,2.0079,1.9362,1.798,1.6281,0.0,0.0,1.2589,1.3215,0.0,0.0,0.0,0.0,0.0,0.0,0.0,0.0,0.0,0.7139,0.7139,0.7139,0.6962,0.616,0.4823,0.2861,0.1165,0.0,0.0,0.0,0.0,0.0,0.0,0.0,0.0,-0.2415,-0.3392,-0.4643,-0.5802,-0.6871,-0.6871,-0.6962,-0.7139,-0.7139,-0.7139,-0.6782,-0.4639,-0.5174,-0.6337,-0.3127,-0.4196,-0.6694,-0.5716,-0.6071,-0.6874,-0.7051,-0.7841,-0.8627,-0.889,-1.0438,-1.2066,-1.2242,-1.3366,-1.4901,-1.6854,-1.89,-2.1445,-2.533,-2.8025,-3.0787,-3.4366,-3.605,-3.7544,-3.9415,-4.0312,-4.0779,-4.0701,-4.0519,-4.0193,-3.9656,-3.9289,-3.8999,-3.8719,-3.7826,-3.747,-3.7859,-3.6943,-3.6182,-3.5739,-3.565,-3.5622,-3.5622,-3.6071,-3.6291,-3.6374,-3.6843,-3.6882,-3.6539,-3.6416,-3.6139,2.6714,2.6164,2.5804,2.5734,2.4541,2.3294,2.2776,2.1962,2.1155,2.0722,2.0566,2.0245,1.9204,1.8877,1.8301,1.6609,0.0,1.5869,1.4328,1.3646,1.3203,0.0,0.0,0.0,0.0,0.0,0.0,0.0,0.0,0.0,0.0,0.0,0.7139,0.7139,0.7139,0.6517,0.5447,0.3662,0.2147,0.0986,0.0269,0.0,0.0,0.0,0.0,-0.009,0.0,-0.2503,-0.3659,-0.491,-0.6071,-0.7139,-0.7139,-0.7139,-0.7139,-0.7139,-0.6694,-0.616,-0.562,-0.58,-0.5891,-0.4287,-0.5265,-0.6874,-0.5714,-0.616,-0.7139,-0.7139,-0.7929,-0.9065,-0.9666,-1.1042,-1.2498,-1.3118,-1.4132,-1.5379,-1.6927,-1.9362,-2.2147,-2.548,-2.8216,-3.1087,-3.4505,-3.6201,-3.7721,-3.9583,-4.0352,-4.0754,-4.075,-4.0364,-3.9957,-3.9637,-3.9189,-3.8718,-3.83,-3.7843,-3.7305,-3.6689,-3.6481,-3.6182,-3.5622,-3.5622,-3.5739,-3.6028,-3.6249,-3.6684,-3.7193,-3.747,-3.7452,-3.7193,-3.6943,-3.6522,2.6714,2.6314,2.5943,2.5229,2.4036,2.284,2.2178,2.1593,2.1155,2.0722,2.0401,2.0001,1.9116,1.8069,1.6772,1.5144,1.5304,1.5296,1.425,1.4088,0.0,0.0,0.0,0.0,0.0,0.0,0.0,0.0,0.0,0.0,0.0,0.0,0.7228,0.7489,0.7228,0.6694,0.5802,0.4372,0.3037,0.179,0.0897,0.0269,0.0,0.0269,0.0269,-0.009,-0.1254,-0.2503,-0.3659,-0.491,-0.6071,-0.7139,-0.7139,-0.7139,-0.7139,-0.7139,-0.6517,-0.5891,-0.6517,-0.6337,-0.5714,-0.5179,-0.598,-0.6874,-0.5714,-0.616,-0.7139,-0.7401,-0.836,-0.9492,-1.0351,-1.1643,-1.3021,-1.423,-1.5137,-1.6108,-1.7415,-2.0053,-2.2977,-2.5629,-2.8504,-3.148,-3.4568,-3.635,-3.7912,-3.9631,-4.0374,-4.0728,-4.0799,-4.0215,-3.9783,-3.9705,-3.9119,-3.8433,-3.779,-3.7614,-3.6985,-3.5694,-3.6097,-3.6182,-3.5622,-3.5739,-3.5985,-3.6374,-3.6643,-3.7117,-3.7893,-3.8032,-3.8013,-3.7911,-3.7433,-3.6999,2.6714,2.5804,2.5075,2.5016,2.5581,2.5417,2.2616,2.2702,2.2787,2.0934,1.9844,1.9116,1.9036,1.8069,1.7253,1.7098,1.6273,1.5296,1.425,0.0,0.0,0.0,0.0,0.0,0.0,0.0,0.0,0.0,0.0,0.0,0.0,0.0,0.0,0.8715,0.7665,0.7051,0.6962,0.4727,0.3037,0.179,0.1701,0.1076,0.0,0.1165,0.1076,-0.009,-0.1254,-0.2503,-0.3659,-0.491,-0.6071,-0.7139,-0.7139,-0.7139,-0.7139,-0.7139,-0.7051,-0.6871,-0.5894,-0.616,-0.6605,-0.4461,-0.5262,-0.6874,-0.5714,-0.616,-0.7316,-0.8452,-0.9579,-1.0524,-1.0611,-1.226,-1.4243,-1.5296,-1.5621,-1.6273,-1.839,-2.1085,-2.3693,-2.5685,-2.9373,-3.2746,-3.4739,-3.6717,-3.8449,-3.9717,-4.0374,-4.0727,-4.0789,-4.0203,-3.9881,-4.004,-3.9234,-3.8318,-3.7323,-3.6786,-3.6249,-3.5667,-3.6097,-3.6182,-3.5622,-3.6097,-3.6333,-3.6374,-3.7305,-3.7825,-3.7893,-3.8382,-3.8382,-3.7911,-3.7433,-3.7173,2.6714,2.5734,2.5004,2.5004,2.53,2.4921,2.2553,2.2328,2.2178,2.0857,2.0245,1.9756,1.9116,1.7017,1.5553,1.6191,1.5379,1.4573,0.0,0.0,0.0,0.0,0.0,0.0,0.0,0.0,0.0,0.0,0.0,0.0,0.0,0.0,0.0,0.889,0.7753,0.7139,0.7139,0.5534,0.4465,0.402,0.2504,0.1969,0.2236,0.1969,0.1522,0.1076,-0.0179,-0.1344,-0.2592,-0.3749,-0.4999,-0.6071,-0.6782,-0.7139,-0.7139,-0.7139,-0.7139,-0.7051,-0.6605,-0.6782,-0.6959,-0.6065,-0.6334,-0.7051,-0.6605,-0.6782,-0.7312,-0.854,-0.9753,-1.0783,-1.1466,-1.3347,-1.522,-1.5621,-1.6756,-1.798,-1.8798,-2.172,-2.4555,-2.5847,-2.948,-3.2918,-3.4784,-3.6772,-3.8496,-3.9717,-4.0286,-4.0629,-4.0781,-4.0133,-3.9708,-3.9794,-3.8571,-3.7879,-3.8101,-3.6746,-3.6097,-3.6563,-3.6165,-3.5827,-3.5622,-3.6097,-3.658,-3.6882,-3.7578,-3.8065,-3.8382,-3.8596,-3.8267,-3.747,-3.7285,-3.702,2.6151,2.5511,2.4933,2.4636,2.4791,2.448,2.2478,2.2253,2.2027,2.0382,2.0079,1.9844,1.9116,1.6854,1.5394,0.0,1.5061,0.0,0.0,0.0,0.0,0.0,0.0,0.0,0.0,0.0,0.0,0.0,0.0,0.0,0.0,0.0,0.0,0.0,0.7925,0.7139,0.7139,0.5983,0.5536,0.5894,0.3929,0.3127,0.357,0.2771,0.2147,0.1701,0.0539,-0.0718,-0.1879,-0.3126,-0.4552,-0.5983,-0.6786,-0.7139,-0.7139,-0.7139,-0.7139,-0.7139,-0.7139,-0.7139,-0.7139,-0.7139,-0.7139,-0.7139,-0.7139,-0.7404,-0.7925,-0.9144,-1.0265,-1.1386,-1.2595,-1.428,-1.5779,-1.6108,-1.7658,-1.9116,-1.9441,-2.2529,-2.5359,-2.5995,-2.9674,-3.324,-3.4801,-3.6772,-3.8496,-3.9717,-4.0228,-4.057,-4.0781,-4.0099,-3.9529,-3.9327,-3.8277,-3.7754,-3.8201,-3.6786,-3.6079,-3.6684,-3.6011,-3.5622,-3.5622,-3.6097,-3.6563,-3.696,-3.7433,-3.7843,-3.8219,-3.8219,-3.7861,-3.719,-3.719,-3.7058,2.5004,2.5004,2.4719,2.3745,2.4264,2.442,2.2478,2.2776,2.2606,1.965,1.9036,1.9036,1.9036,1.8069,1.7261,1.7342,1.547,0.0,0.0,0.0,0.0,0.0,0.0,0.0,0.0,0.0,0.0,0.0,0.0,0.0,0.0,0.0,0.0,0.0,0.8356,0.7139,0.7139,0.5983,0.5983,0.7051,0.598,0.4821,0.3659,0.357,0.2948,0.1791,0.0539,-0.0718,-0.1879,-0.3126,-0.4994,-0.7139,-0.7139,-0.7139,-0.7139,-0.7139,-0.7139,-0.7139,-0.7139,-0.7139,-0.7139,-0.7139,-0.7139,-0.7139,-0.7139,-0.7929,-0.9148,-1.0265,-1.1381,-1.2589,-1.3822,-1.4894,-1.5944,-1.7009,-1.8149,-1.9283,-2.0401,-2.353,-2.6118,-2.6118,-3.0163,-3.394,-3.4925,-3.6772,-3.8496,-3.9717,-4.0228,-4.0567,-4.0747,-4.0099,-3.9377,-3.8762,-3.8524,-3.8067,-3.7268,-3.6724,-3.6182,-3.5667,-3.5622,-3.5622,-3.5622,-3.6139,-3.6433,-3.6374,-3.6921,-3.721,-3.719,-3.719,-3.719,-3.7173,-3.719,-3.7433,2.6025,2.4992,2.4036,2.448,2.3745,2.2702,2.2103,2.2253,2.179,1.9502,1.9036,1.9036,1.9036,1.7415,0.0,1.7172,0.0,0.0,0.0,0.0,0.0,0.0,0.0,0.0,0.0,0.0,0.0,0.0,0.0,0.0,0.0,0.0,0.0,0.0,0.9144,0.7929,0.7139,0.6782,0.6782,0.7139,0.6782,0.6425,0.5977,0.4372,0.3392,0.2948,0.0897,-0.018,-0.0718,-0.2769,-0.4994,-0.7139,-0.7139,-0.7139,-0.7139,-0.7139,-0.7139,-0.7139,-0.7139,-0.7139,-0.7139,-0.7139,-0.7139,-0.7139,-0.7139,-0.7929,-0.9148,-1.0265,-1.1381,-1.2589,-1.3822,-1.547,-1.6927,-1.7253,-1.8789,-2.0382,-2.1364,-2.3962,-2.6429,-2.7611,-3.1233,-3.444,-3.5591,-3.7372,-3.8875,-3.976,-4.0228,-4.0365,-3.9986,-3.9548,-3.9109,-3.875,-3.7995,-3.7596,-3.7685,-3.6545,-3.5941,-3.6139,-3.5827,-3.5622,-3.5622,-3.6481,-3.6803,-3.6416,-3.723,-3.7542,-3.719,-3.719,-3.6999,-3.6661,-3.702,-3.7285,2.4886,2.3806,2.2925,2.3158,2.2627,2.1886,2.1517,2.1125,2.0575,1.9835,1.9283,1.9116,1.952,1.8221,0.0,0.0,0.0,0.0,0.0,0.0,0.0,0.0,0.0,0.0,0.0,0.0,0.0,0.0,0.0,0.0,0.0,0.0,0.0,0.0,1.0183,0.9231,0.8532,0.8013,0.7841,0.7841,0.7316,0.7139,0.7051,0.5176,0.4016,0.3481,0.1076,-0.0269,-0.0897,-0.2769,-0.4727,-0.6425,-0.6962,-0.7139,-0.7139,-0.7139,-0.7139,-0.7139,-0.7139,-0.7139,-0.7139,-0.7139,-0.7139,-0.7139,-0.7139,-0.8273,-0.9753,-1.0438,-1.1729,-1.3281,-1.4475,-1.6034,-1.7342,-1.7342,-1.9246,-2.1298,-2.1886,-2.4472,-2.7052,-2.8324,-3.1673,-3.4747,-3.6064,-3.7721,-3.9154,-3.9991,-4.0296,-4.0256,-3.9659,-3.9289,-3.8924,-3.8428,-3.7843,-3.7433,-3.7305,-3.644,-3.5985,-3.6054,-3.5783,-3.5622,-3.5622,-3.6207,-3.6399,-3.6097,-3.6689,-3.6847,-3.6545,-3.6545,-3.6399,-3.6097,-3.6825,-3.719,2.2744,2.2103,2.1811,2.0934,2.1298,2.1669,2.0789,1.9844,1.9362,2.0245,1.9766,1.9441,2.0323,1.9599,1.8559,0.0,0.0,0.0,0.0,0.0,0.0,0.0,0.0,0.0,0.0,0.0,0.0,0.0,0.0,0.0,0.0,0.0,0.0,1.2328,1.13,1.0697,1.0611,0.9492,0.889,0.0,0.7665,0.7139,0.7051,0.5894,0.4643,0.3303,0.0986,-0.0718,-0.1879,-0.3126,-0.4285,-0.5536,-0.6694,-0.7139,-0.7139,-0.7139,-0.7139,-0.7139,-0.7139,-0.7139,-0.7139,-0.7139,-0.7139,-0.7139,-0.7228,-0.879,-1.0611,-1.0697,-1.2345,-1.4334,-1.5462,-1.6519,-1.7334,-1.7568,-1.9837,-2.2027,-2.2242,-2.5047,-2.7771,-2.874,-3.1852,-3.4863,-3.6397,-3.8005,-3.938,-4.029,-4.0383,-4.017,-3.9656,-3.9282,-3.8744,-3.7995,-3.7859,-3.7452,-3.6498,-3.635,-3.6139,-3.5622,-3.5622,-3.5622,-3.5622,-3.5667,-3.5667,-3.5622,-3.5667,-3.5667,-3.5622,-3.5622,-3.5622,-3.5694,-3.6706,-3.721,2.4672,2.322,2.1952,2.1735,2.1298,2.0857,2.0644,2.0401,2.0079,1.9441,1.9835,2.0079,1.9441,1.839,0.0,0.0,0.0,0.0,0.0,0.0,0.0,0.0,0.0,0.0,0.0,0.0,0.0,0.0,0.0,0.0,0.0,0.0,0.0,1.2328,1.2066,1.1466,1.0611,0.9492,0.889,0.0,0.7665,0.7139,0.7051,0.5894,0.4198,0.2147,0.0628,-0.0718,-0.1879,-0.3126,-0.4285,-0.5536,-0.6694,-0.7139,-0.7139,-0.7139,-0.7139,-0.7139,-0.7139,-0.7139,-0.7139,-0.7139,-0.7139,-0.7316,-0.8189,-0.9488,-1.0783,-1.1638,-1.2948,-1.4334,-1.5462,-1.6519,-1.7721,-1.9349,-2.0921,-2.2371,-2.3899,-2.5934,-2.8271,-3.0962,-3.3351,-3.5446,-3.7077,-3.864,-3.9873,-4.0532,-4.0242,-3.9846,-3.9614,-3.9109,-3.8554,-3.7962,-3.7578,-3.7097,-3.6457,-3.6011,-3.5739,-3.5622,-3.5622,-3.5622,-3.5622,-3.6011,-3.6011,-3.5622,-3.6011,-3.6028,-3.5622,-3.5622,-3.5827,-3.6249,-3.6921,-3.7396,2.4708,2.3103,2.1886,2.1441,2.0934,2.0566,2.0566,2.0566,2.0401,1.9844,2.0235,2.0411,1.9844,1.8877,0.0,0.0,0.0,0.0,0.0,0.0,0.0,0.0,0.0,0.0,0.0,0.0,0.0,0.0,0.0,0.0,0.0,1.4901,1.43,1.3203,1.3118,1.2857,1.226,1.0529,0.9753,0.9666,0.7925,0.7139,0.7051,0.5894,0.4376,0.2592,0.1344,0.0179,-0.1076,-0.2858,-0.3927,-0.473,-0.6425,-0.7139,-0.7139,-0.7139,-0.7139,-0.7139,-0.7139,-0.7139,-0.7139,-0.7139,-0.7139,-0.7316,-0.854,-0.9666,-1.095,-1.2644,-1.3937,-1.522,-1.6846,-1.8026,-1.9201,-2.0757,-2.2254,-2.3765,-2.5177,-2.7538,-3.0012,-3.2222,-3.4376,-3.6338,-3.789,-3.9328,-4.0307,-4.0516,-4.012,-3.9682,-3.9396,-3.8752,-3.8117,-3.7614,-3.7135,-3.6603,-3.6054,-3.5783,-3.5622,-3.5622,-3.5622,-3.5622,-3.5622,-3.5854,-3.5898,-3.5622,-3.5854,-3.5898,-3.5622,-3.5622,-3.5854,-3.6416,-3.696,-3.7323,2.4519,2.29,2.1735,2.0857,2.0566,2.0566,2.0566,2.0566,2.0566,2.0566,2.0566,2.0566,2.0323,0.0,0.0,0.0,0.0,0.0,0.0,0.0,0.0,0.0,0.0,0.0,0.0,0.0,0.0,0.0,0.0,0.0,1.6026,1.5779,1.5296,1.4412,1.4166,1.4088,1.4088,1.1992,1.0778,1.0611,0.8181,0.7139,0.7051,0.616,0.491,0.357,0.2325,0.1076,-0.018,-0.2415,-0.3392,-0.3837,-0.5977,-0.6962,-0.7139,-0.7139,-0.7139,-0.7139,-0.7316,-0.7316,-0.7139,-0.7573,-0.7573,-0.7665,-0.9056,-1.0265,-1.1621,-1.373,-1.5094,-1.6511,-1.8691,-1.9847,-2.0814,-2.235,-2.4042,-2.5546,-2.6473,-2.9094,-3.1734,-3.3233,-3.5377,-3.746,-3.884,-3.9987,-4.0632,-4.0437,-4.0026,-3.9607,-3.9163,-3.8413,-3.772,-3.7248,-3.6724,-3.6182,-3.5667,-3.5622,-3.5622,-3.5622,-3.5622,-3.5622,-3.5622,-3.5622,-3.5622,-3.5622,-3.5622,-3.5622,-3.5622,-3.5622,-3.5941,-3.6539,-3.6981,-3.7285,2.6226,2.4005,2.1735,2.0857,2.0566,2.0566,2.0566,2.0566,2.0566,2.0566,2.0566,2.0323,0.0,0.0,0.0,0.0,0.0,0.0,0.0,0.0,0.0,0.0,0.0,0.0,0.0,0.0,0.0,0.0,0.0,0.0,1.709,1.6191,1.5613,1.5455,1.4573,1.4088,1.4088,1.2766,1.1552,1.0611,0.8181,0.7139,0.7051,0.6962,0.5708,0.357,0.2325,0.1076,-0.009,-0.1433,-0.268,-0.3748,-0.509,-0.6248,-0.7139,-0.7139,-0.7139,-0.7228,-0.8277,-0.8017,-0.7401,-0.9483,-0.9492,-0.9061,-1.1209,-1.2644,-1.3814,-1.5101,-1.6265,-1.756,-1.9662,-2.0285,-2.1308,-2.4897,-2.6473,-2.7315,-2.8048,-2.9832,-3.2066,-3.4582,-3.7031,-3.898,-4.0026,-4.0479,-4.0632,-4.0437,-3.9958,-3.9494,-3.9152,-3.8413,-3.772,-3.7248,-3.6724,-3.6182,-3.5667,-3.5622,-3.5622,-3.5622,-3.5622,-3.5622,-3.5622,-3.5622,-3.5622,-3.5622,-3.5622,-3.5622,-3.5622,-3.5622,-3.6122,-3.7097,-3.719,-3.7685,2.5366,2.3396,2.1735,2.0857,2.0566,2.0566,2.0566,2.0566,2.0566,2.0566,2.0566,2.0479,0.0,0.0,0.0,0.0,0.0,0.0,0.0,0.0,0.0,0.0,0.0,0.0,0.0,0.0,0.0,0.0,0.0,1.8868,1.831,1.7819,1.7253,1.6601,1.5545,1.4977,1.4977,1.3178,1.1381,0.9666,0.8623,0.7753,0.7139,0.7139,0.5797,0.357,0.3037,0.1701,-0.009,-0.1344,-0.2147,-0.2771,-0.4645,-0.5714,-0.6248,-0.6874,-0.7489,-0.8189,-0.8715,-0.8969,-0.9222,-1.0265,-1.0265,-1.0265,-1.2553,-1.3562,-1.4476,-1.6903,-1.8266,-1.9358,-2.0921,-2.2519,-2.4151,-2.5908,-2.7709,-2.9336,-3.0412,-3.1842,-3.3811,-3.6735,-3.8575,-3.9851,-4.0459,-4.0632,-4.0563,-4.0135,-3.9816,-3.9408,-3.8952,-3.8096,-3.7433,-3.721,-3.644,-3.5871,-3.5622,-3.5622,-3.5622,-3.5622,-3.5622,-3.5622,-3.5622,-3.5622,-3.5622,-3.5622,-3.5622,-3.5622,-3.5622,-3.5622,-3.6165,-3.719,-3.719,-3.7596,2.5097,2.3492,2.2478,2.1231,2.0934,2.0857,2.0634,2.0566,2.0566,0.0,2.0401,0.0,0.0,0.0,0.0,0.0,0.0,0.0,0.0,0.0,0.0,0.0,0.0,0.0,0.0,0.0,0.0,0.0,0.0,2.0245,1.9441,1.9125,1.863,1.7738,1.6437,1.5696,1.5696,1.3425,1.1295,0.9318,0.9065,0.8277,0.7139,0.7139,0.5977,0.4016,0.3748,0.2413,0.0359,-0.0807,-0.1522,-0.1969,-0.4109,-0.509,-0.5536,-0.6694,-0.7665,-0.854,-0.9148,-0.9666,-1.0269,-1.1219,-1.13,-1.1461,-1.3736,-1.4657,-1.5396,-1.8212,-1.9856,-2.1131,-2.2339,-2.4495,-2.6481,-2.7141,-2.8856,-3.0793,-3.2469,-3.4022,-3.5873,-3.8387,-3.9613,-4.0353,-4.0667,-4.073,-4.0518,-3.9896,-3.9688,-3.9333,-3.8603,-3.7756,-3.7152,-3.702,-3.6165,-3.5622,-3.5622,-3.5622,-3.5622,-3.5622,-3.5622,-3.5622,-3.5622,-3.5622,-3.5622,-3.5622,-3.5622,-3.5622,-3.5622,-3.5622,-3.6097,-3.6999,-3.7152,-3.7433,2.6684,2.5496,2.4337,2.2403,2.1962,2.1659,2.0789,2.0566,2.0566,2.0566,1.9756,0.0,0.0,0.0,0.0,0.0,0.0,0.0,0.0,0.0,0.0,0.0,0.0,0.0,0.0,0.0,0.0,0.0,0.0,2.0566,2.0489,1.952,1.8957,1.8877,1.6838,1.5696,1.5696,1.3425,1.1724,1.0524,0.9405,0.8277,0.7139,0.7139,0.6428,0.527,0.4105,0.2858,0.1612,0.0449,-0.0807,-0.1969,-0.3215,-0.4374,-0.5536,-0.6694,-0.7139,-0.7489,-0.9744,-0.9836,-0.9497,-1.2869,-1.3118,-1.2662,-1.4935,-1.6355,-1.7415,-1.863,-2.042,-2.2371,-2.4174,-2.5456,-2.694,-2.9462,-3.0194,-3.1041,-3.3612,-3.5925,-3.7729,-3.8781,-3.9754,-4.048,-4.0743,-4.0785,-4.0569,-3.9908,-3.9688,-3.92,-3.8077,-3.7506,-3.6999,-3.6498,-3.5941,-3.5622,-3.5622,-3.5622,-3.5622,-3.5622,-3.5622,-3.5622,-3.5622,-3.5622,-3.5622,-3.5622,-3.5622,-3.5622,-3.5622,-3.5622,-3.5898,-3.6457,-3.6943,-3.7433,2.7551,2.6455,2.553,2.4126,2.3374,2.2702,2.1745,2.1517,2.1298,2.0712,0.0,0.0,0.0,0.0,0.0,0.0,0.0,0.0,0.0,0.0,0.0,0.0,0.0,0.0,0.0,0.0,0.0,0.0,0.0,0.0,2.0644,2.0245,2.0001,2.0001,1.8621,1.7496,1.6764,1.4545,1.319,1.2802,1.1627,1.0433,0.9309,0.8623,0.8009,0.7474,0.4812,0.2948,0.1701,0.0539,-0.0269,-0.0807,-0.286,-0.3838,-0.4461,-0.6425,-0.7577,-0.8452,-1.0091,-1.0783,-1.1386,-1.3476,-1.3822,-1.388,-1.6018,-1.7454,-1.8611,-2.0391,-2.2382,-2.423,-2.5423,-2.686,-2.8666,-3.1159,-3.285,-3.4187,-3.5496,-3.7146,-3.8655,-3.9596,-4.0252,-4.0673,-4.0736,-4.0629,-4.0357,-3.976,-3.9458,-3.8952,-3.8011,-3.7506,-3.6981,-3.6457,-3.5537,-3.5144,-3.556,-3.5207,-3.5144,-3.5577,-3.5622,-3.5622,-3.5622,-3.5622,-3.5622,-3.5622,-3.5622,-3.5622,-3.5622,-3.5622,-3.5854,-3.6416,-3.662,-3.7117,2.8801,2.7839,2.694,2.5959,2.5049,2.4112,2.2711,2.2221,2.1735,2.0789,0.0,0.0,0.0,0.0,0.0,0.0,0.0,0.0,0.0,0.0,0.0,0.0,0.0,0.0,0.0,0.0,0.0,0.0,0.0,0.0,2.1603,2.1231,2.0769,2.0079,1.9362,1.847,1.7334,1.5553,1.4455,1.3981,1.282,1.1724,1.0611,0.9836,0.9235,0.8711,0.5957,0.3833,0.2236,0.0628,0.0,-0.018,-0.2236,-0.3215,-0.3837,-0.58,-0.7309,-0.8452,-0.9662,-1.0783,-1.1901,-1.3118,-1.3737,-1.4496,-1.669,-1.7992,-1.9275,-2.138,-2.3638,-2.5648,-2.6455,-2.842,-3.0734,-3.284,-3.4762,-3.6264,-3.7024,-3.8157,-3.9296,-4.0094,-4.0565,-4.0756,-4.0625,-4.0453,-4.0079,-3.9314,-3.9141,-3.8678,-3.7542,-3.7064,-3.6636,-3.6165,-3.5001,-3.4544,-3.5207,-3.4847,-3.4783,-3.5253,-3.547,-3.5622,-3.5622,-3.5622,-3.5622,-3.5622,-3.5622,-3.5622,-3.5622,-3.5622,-3.5766,-3.6139,-3.6308,-3.6865,0.0,0.0,0.0,2.7864,2.6956,2.5896,2.389,0.0,2.1876,2.0934,0.0,0.0,0.0,0.0,0.0,0.0,0.0,0.0,0.0,0.0,0.0,0.0,0.0,0.0,0.0,0.0,0.0,0.0,0.0,2.3514,2.3514,2.2553,2.1115,1.9116,1.9036,1.855,1.7423,1.6273,1.5177,1.4065,1.2905,1.1809,1.0697,1.0697,1.0009,0.8886,0.7629,0.5772,0.3482,0.1076,0.009,-0.009,-0.1344,-0.2503,-0.3748,-0.4999,-0.616,-0.7316,-0.8452,-0.9662,-1.0864,-1.198,-1.3203,-1.458,-1.6764,-1.8152,-1.9344,-2.1521,-2.4149,-2.6604,-2.738,-3.0129,-3.3072,-3.448,-3.5781,-3.7024,-3.82,-3.9024,-3.9707,-4.0295,-4.0625,-4.0714,-4.0442,-4.0272,-3.9792,-3.8582,-3.8793,-3.8432,-3.6609,-3.6201,-3.5941,-3.5588,-3.435,-3.3836,-3.4528,-3.4576,-3.4576,-3.4576,-3.5207,-3.5577,-3.5577,-3.5577,-3.5577,-3.5577,-3.5577,-3.5577,-3.5577,-3.5577,-3.5622,-3.5622,-3.6139,-3.6684,3.1946,0.0,0.0,0.0,0.0,0.0,0.0,0.0,2.485,2.3815,0.0,0.0,0.0,0.0,0.0,0.0,0.0,0.0,0.0,0.0,0.0,0.0,0.0,0.0,0.0,0.0,0.0,0.0,2.4192,2.4264,2.3514,2.322,2.2467,2.1181,2.0391,1.9934,1.9678,1.7819,1.6675,1.6332,1.526,1.4196,1.3124,1.2248,1.1209,1.0005,0.7971,0.6307,0.4732,0.2325,0.1344,0.1075,-0.0984,-0.2503,-0.3748,-0.4999,-0.616,-0.7316,-0.8452,-1.0159,-1.1918,-1.3134,-1.4837,-1.6838,-1.8876,-2.0705,-2.241,-2.4519,-2.6659,-2.8538,-2.9886,-3.2573,-3.5013,-3.5419,-3.7147,-3.8785,-3.9099,-3.9852,-4.048,-4.0656,-4.0759,-4.068,-4.0336,-4.0079,-3.9563,-3.8541,-3.8314,-3.7805,-3.6563,-3.5917,-3.543,-3.4925,-3.37,-3.3145,-3.3836,-3.3887,-3.3887,-3.3887,-3.4958,-3.5362,-3.4894,-3.5362,-3.5362,-3.4894,-3.5362,-3.5362,-3.4894,-3.5362,-3.5622,-3.5622,-3.6139,-3.6498,3.3039,3.2155,3.1261,3.1261,0.0,0.0,2.7773,2.6889,0.0,0.0,0.0,0.0,0.0,0.0,0.0,0.0,0.0,0.0,0.0,0.0,0.0,0.0,0.0,0.0,0.0,2.58,2.5869,2.5274,2.5475,2.5217,2.4192,2.412,2.3661,2.2627,2.1985,2.1769,2.1821,1.9681,1.8576,1.8576,1.7074,1.6034,1.5394,1.4273,1.3074,1.1872,0.9534,0.7895,0.6681,0.4283,0.2683,0.1611,-0.0269,-0.179,-0.3037,-0.4196,-0.5354,-0.6602,-0.7749,-0.9966,-1.2318,-1.3018,-1.5051,-1.7568,-1.9298,-2.1377,-2.3621,-2.5573,-2.813,-3.0777,-3.2688,-3.448,-3.6068,-3.7095,-3.846,-3.9595,-3.9948,-4.0354,-4.0667,-4.0781,-4.0667,-4.0452,-4.0089,-3.957,-3.8921,-3.8038,-3.7736,-3.712,-3.5795,-3.5251,-3.4775,-3.4219,-3.2986,-3.2422,-3.313,-3.3198,-3.3198,-3.3198,-3.4202,-3.4704,-3.4576,-3.4988,-3.4988,-3.4624,-3.4988,-3.4988,-3.4576,-3.5253,-3.5622,-3.5622,-3.6139,-3.6266,3.3735,3.3235,3.2695,3.2695,3.1705,0.0,2.8579,2.7564,2.6473,0.0,0.0,0.0,0.0,0.0,0.0,0.0,0.0,0.0,0.0,0.0,0.0,0.0,0.0,0.0,2.7868,2.7868,2.7868,2.7868,2.7095,2.622,2.5358,2.5217,2.4707,2.3672,2.3672,2.3588,2.3514,2.1587,2.0507,2.0352,1.8426,1.7415,1.7261,1.6191,1.5094,1.3898,1.1707,1.0096,0.8715,0.6505,0.4196,0.1879,0.0628,-0.0628,-0.1969,-0.3126,-0.4374,-0.5625,-0.6871,-0.9529,-1.2397,-1.2566,-1.4932,-1.79,-1.9228,-2.1518,-2.4038,-2.6161,-2.9606,-3.3176,-3.5343,-3.6012,-3.6734,-3.8976,-3.9576,-3.9831,-4.0513,-4.0515,-4.0424,-4.0563,-4.0353,-4.0053,-3.9701,-3.896,-3.8099,-3.723,-3.7097,-3.6493,-3.4797,-3.4396,-3.4007,-3.3515,-3.2312,-3.1739,-3.2437,-3.2532,-3.2547,-3.2492,-3.3182,-3.3887,-3.4479,-3.4479,-3.4479,-3.4479,-3.4431,-3.4431,-3.4479,-3.5253,-3.5622,-3.5622,-3.6097,-3.6071,3.4382,3.3937,3.3391,0.0,0.0,0.0,3.2493,3.1728,3.0877,0.0,0.0,0.0,0.0,0.0,0.0,0.0,0.0,0.0,0.0,0.0,0.0,0.0,0.0,0.0,2.8748,2.8748,2.8748,2.8748,2.792,2.7404,2.7191,2.6552,2.5734,2.4707,2.4719,2.4337,2.3514,2.2307,2.1227,2.0352,1.9237,1.823,1.7261,1.6191,1.5094,1.3898,1.2565,1.0783,0.8798,0.7365,0.5333,0.3126,0.1879,0.0089,-0.1969,-0.3126,-0.4374,-0.5714,-0.7834,-1.0727,-1.3715,-1.4648,-1.7227,-2.043,-2.2919,-2.4936,-2.7243,-3.145,-3.3681,-3.5057,-3.6212,-3.7456,-3.8571,-3.9337,-4.004,-4.0394,-3.9864,-4.0011,-4.0062,-3.9453,-3.9639,-3.9619,-3.8828,-3.8511,-3.7983,-3.6729,-3.658,-3.6071,-3.4767,-3.4104,-3.3499,-3.2841,-3.2007,-3.1582,-3.1682,-3.2272,-3.2327,-3.1739,-3.2917,-3.3633,-3.3786,-3.3786,-3.3786,-3.3786,-3.3287,-3.3251,-3.3786,-3.5005,-3.5622,-3.5622,-3.5694,-3.5694,0.0,0.0,0.0,3.4087,0.0,0.0,0.0,3.2623,3.209,3.1294,3.0791,3.0367,3.0084,0.0,0.0,0.0,0.0,0.0,0.0,0.0,0.0,0.0,0.0,0.0,2.9628,2.9628,2.9442,2.9002,2.862,2.8363,2.8363,2.7986,2.7324,2.6377,2.6377,2.5894,2.4992,2.4036,2.2977,2.1975,2.1456,2.0478,1.8948,1.8337,1.751,1.6382,1.4712,1.2687,1.0479,0.9252,0.7425,0.5068,0.2768,0.0717,-0.1165,-0.3563,-0.4802,-0.578,-0.869,-1.1918,-1.495,-1.6461,-1.9204,-2.236,-2.4731,-2.7296,-3.0155,-3.4079,-3.5873,-3.6787,-3.7633,-3.8551,-3.941,-4.0015,-4.0455,-4.051,-3.9665,-3.9548,-3.933,-3.8455,-3.8415,-3.8491,-3.8401,-3.7851,-3.7179,-3.6481,-3.5873,-3.4998,-3.3641,-3.3224,-3.2509,-3.0969,-3.1233,-3.1351,-3.097,-3.1595,-3.1894,-3.1524,-3.2145,-3.2718,-3.3093,-3.3093,-3.3093,-3.3093,-3.2788,-3.2803,-3.3093,-3.4447,-3.5098,-3.5098,-3.5453,-3.5622,0.0,0.0,0.0,0.0,0.0,3.3855,0.0,0.0,0.0,0.0,0.0,0.0,0.0,0.0,0.0,0.0,0.0,0.0,0.0,0.0,0.0,0.0,0.0,0.0,0.0,3.094,3.0571,2.9785,2.9538,2.9414,2.9254,2.9066,2.8684,2.7986,2.7802,2.7417,2.6714,2.5581,2.4564,2.3818,2.3588,2.2563,2.0857,2.0757,2.0062,1.8868,1.6993,1.4979,1.2734,1.1634,0.9838,0.733,0.365,0.1522,0.0268,-0.3288,-0.4879,-0.5843,-0.9347,-1.2753,-1.594,-1.8237,-2.1492,-2.4879,-2.6607,-2.9595,-3.2932,-3.5744,-3.7216,-3.8112,-3.896,-3.9421,-3.9843,-4.0518,-4.0572,-4.021,-3.9245,-3.8884,-3.8382,-3.7202,-3.6902,-3.7084,-3.7711,-3.7011,-3.6291,-3.5916,-3.5124,-3.4022,-3.2323,-3.2244,-3.1504,-2.924,-3.0208,-3.0837,-3.0329,-3.0896,-3.1351,-3.1482,-3.1482,-3.1853,-3.2586,-3.2586,-3.2532,-3.2382,-3.2382,-3.2382,-3.2382,-3.3633,-3.4333,-3.464,-3.5316,-3.5622,0.0,0.0,0.0,0.0,3.6113,0.0,0.0,0.0,3.5018,3.4317,0.0,0.0,0.0,0.0,0.0,0.0,0.0,0.0,0.0,0.0,0.0,0.0,0.0,0.0,0.0,3.3203,3.2955,3.2226,3.1474,3.0764,3.0194,2.9442,2.8939,2.8876,2.8117,2.767,2.7537,2.5836,2.4933,2.4791,2.3891,2.2925,2.1811,2.1772,2.0708,1.8957,1.8602,1.7177,1.5165,1.4032,1.2216,0.9605,0.5137,0.3295,0.2662,-0.0891,-0.3472,-0.5838,-0.9275,-1.2763,-1.6191,-2.008,-2.4856,-2.932,-3.0608,-3.2862,-3.5406,-3.7603,-3.8331,-3.8621,-3.9567,-4.0051,-4.0281,-4.0284,-3.9941,-3.9214,-3.7698,-3.7576,-3.7148,-3.5059,-3.5166,-3.5633,-3.5745,-3.6104,-3.5856,-3.4153,-3.4317,-3.3806,-3.1682,-3.1429,-3.0808,-2.9178,-2.9192,-2.9566,-3.0269,-3.0389,-3.0718,-3.1467,-3.1482,-3.1853,-3.2586,-3.2586,-3.2272,-3.164,-3.164,-3.164,-3.164,-3.2422,-3.3443,-3.464,-3.5316,-3.5622,0.0,0.0,0.0,0.0,0.0,0.0,3.6684,0.0,3.5605,0.0,0.0,0.0,0.0,0.0,0.0,0.0,3.5111,0.0,0.0,0.0,0.0,0.0,0.0,0.0,0.0,0.0,0.0,0.0,3.2817,3.2314,3.1664,3.1289,3.069,2.9752,2.938,2.9002,2.8427,2.7178,2.6531,2.6443,2.5648,2.4648,2.3621,2.3654,2.2944,2.1542,2.0891,1.9403,1.7271,1.5643,1.4317,1.2828,0.6863,0.417,0.274,-0.3507,-0.6402,-0.7955,-1.2745,-1.6525,-1.9975,-2.4808,-2.8961,-3.233,-3.4039,-3.5325,-3.6595,-3.8705,-3.9312,-3.9412,-3.9806,-3.9746,-3.9567,-3.9532,-3.8795,-3.7776,-3.6593,-3.6138,-3.5538,-3.4186,-3.3759,-3.3494,-3.3101,-3.3595,-3.3761,-3.2956,-3.2307,-3.1617,-3.0646,-3.0185,-2.931,-2.7723,-2.8427,-2.9129,-2.9504,-2.9566,-2.9889,-3.0777,-3.0777,-3.1131,-3.1951,-3.1951,-3.1796,-3.1539,-3.1482,-3.1482,-3.1482,-3.2216,-3.2895,-3.3495,-3.4544,-3.5005,3.6457,0.0,0.0,0.0,0.0,0.0,0.0,0.0,0.0,0.0,0.0,0.0,0.0,0.0,3.6872,3.7056,0.0,3.6756,0.0,0.0,0.0,0.0,0.0,0.0,0.0,0.0,0.0,3.4137,3.3971,3.3495,3.2641,3.2586,3.2018,3.0644,3.0615,3.0271,2.9633,2.8757,2.8306,2.8184,2.7272,2.6408,2.5534,2.5438,2.4826,2.3834,2.2829,2.146,1.986,1.78,1.6952,1.6346,1.069,0.697,0.4039,-0.3573,-0.7629,-1.0109,-1.4593,-1.9526,-2.4596,-2.8837,-3.2007,-3.4592,-3.6522,-3.7214,-3.7739,-3.9446,-3.9909,-3.9838,-3.9579,-3.9259,-3.8885,-3.8451,-3.7514,-3.6413,-3.5172,-3.4471,-3.3778,-3.2569,-3.1971,-3.1366,-3.0469,-3.1195,-3.1839,-3.1423,-3.0602,-2.9843,-2.9445,-2.8919,-2.8117,-2.6658,-2.7604,-2.8427,-2.862,-2.862,-2.9002,-2.9889,-3.0147,-3.0584,-3.1161,-3.1409,-3.1482,-3.1482,-3.1482,-3.1482,-3.1482,-3.2064,-3.2272,-3.2327,-3.3887,-3.4576,0.0,0.0,0.0,3.8117,0.0,0.0,0.0,0.0,3.7135,0.0,0.0,0.0,0.0,3.7542,3.7607,3.6834,3.7372,0.0,0.0,0.0,0.0,0.0,0.0,0.0,0.0,0.0,0.0,3.5385,3.4858,3.3987,3.2695,3.2586,3.2272,3.1482,3.1332,3.1258,3.12,3.0351,2.9949,2.9875,2.841,2.7591,2.7367,2.6773,2.58,2.4732,2.3834,2.3441,2.3198,2.111,2.0265,1.9985,1.7346,1.3101,0.7838,0.1865,-0.4923,-1.1456,-1.2692,-2.0326,-2.9725,-3.0813,-3.333,-3.6208,-3.7635,-3.8534,-3.922,-3.9755,-3.9901,-3.9691,-3.8766,-3.878,-3.8601,-3.7059,-3.6264,-3.5257,-3.3048,-3.2514,-3.1744,-2.9558,-2.9671,-2.9614,-2.8076,-2.9618,-3.0587,-2.9324,-2.961,-2.9445,-2.7959,-2.7723,-2.7417,-2.6589,-2.6521,-2.6905,-2.767,-2.7736,-2.8117,-2.9002,-2.9827,-3.0329,-3.0329,-3.1087,-3.1482,-3.1482,-3.1482,-3.1482,-3.1482,-3.1524,-3.1539,-3.1582,-3.3668,-3.4576,0.0,0.0,3.6981,3.8368,0.0,0.0,0.0,0.0,0.0,0.0,0.0,0.0,0.0,3.779,3.7941,3.7986,3.825,3.8405,0.0,0.0,0.0,0.0,0.0,0.0,0.0,0.0,0.0,3.6096,3.5582,3.4847,3.3987,3.3937,3.3582,3.2917,3.287,3.2839,3.2839,3.1956,3.1814,3.2385,3.0218,2.9506,2.9978,2.8115,2.7617,2.8116,2.5563,2.5073,2.5834,2.3756,2.2743,2.219,1.9329,1.5196,0.9932,0.337,-0.4712,-1.3696,-2.2127,-2.7839,-3.1812,-3.4457,-3.6355,-3.7672,-3.8153,-3.8723,-3.9228,-3.9382,-3.9224,-3.8889,-3.8564,-3.7147,-3.5624,-3.5077,-3.3405,-3.1751,-3.0979,-3.0456,-2.9883,-2.9178,-2.8707,-2.8295,-2.7789,-2.7906,-2.8061,-2.8103,-2.788,-2.767,-2.7736,-2.7229,-2.6782,-2.6521,-2.6533,-2.685,-2.7604,-2.767,-2.7868,-2.8117,-2.8427,-2.9129,-3.0269,-3.0584,-3.097,-3.1482,-3.1482,-3.1482,-3.1482,-3.1482,-3.1482,-3.1524,-3.2718,-3.3287,3.7248,3.7323,0.0,3.8451,3.805,0.0,3.8515,0.0,0.0,0.0,0.0,0.0,0.0,3.7893,3.8013,3.835,3.8596,3.8707,0.0,3.8707,0.0,0.0,0.0,0.0,0.0,0.0,3.7237,3.6706,3.6357,3.5769,0.0,0.0,3.4822,3.417,3.4186,3.4219,3.4219,3.3489,3.3419,3.3937,3.1814,3.1267,3.2048,2.9872,2.96,3.0675,2.7833,2.7418,2.8457,2.6842,2.5598,2.4788,2.4082,1.9446,1.2401,0.5774,-0.4396,-1.6556,-2.834,-3.3156,-3.4393,-3.6647,-3.7858,-3.8404,-3.8404,-3.8268,-3.818,-3.858,-3.8104,-3.7351,-3.7036,-3.553,-3.3826,-3.2867,-3.1298,-2.9829,-2.9321,-2.8856,-2.8427,-2.8182,-2.7378,-2.6854,-2.7217,-2.6552,-2.6289,-2.7149,-2.685,-2.6714,-2.7229,-2.685,-2.6533,-2.6533,-2.6533,-2.6714,-2.7229,-2.7297,-2.7297,-2.7297,-2.7537,-2.8182,-2.9317,-2.969,-3.0208,-3.1087,-3.0777,-3.0896,-3.1482,-3.1219,-3.1219,-3.1524,-3.2007,-3.2216]}]]